[[{"header":{"parameterUnit":"m.s-1","parameterCategory":1,"la1":30.6,"la2":29.2853,"lo1":-89.7004,"lo2":-87.6739,"dy":0.0162,"dx":0.0183,"nx":112,"ny":82,"refTime":"2023-05-01T12:00:00:Z","depth":0,"parameterNumber":2,"parameterNumberName":"U-component_of_WINDS"},"data":[0.0,0.0,0.0,0.0,0.0,0.0,0.0,0.0,0.0,0.0,0.0,0.0,0.0,0.0,0.0,0.0,0.0,0.0,0.0,0.0,0.0,0.0,0.0,0.0,0.0,0.0,0.0,0.0,0.0,0.0,0.0,0.0,0.0,0.0,0.0,0.0,0.0,0.0,0.0,0.0,0.0,0.0,0.0,0.0,0.0,0.0,0.0,0.0,0.0,0.0,0.0,0.0,0.0,0.0,0.0,0.0,0.0,0.0,0.0,0.0,0.0,0.0,0.0,0.0,0.0,0.0,0.0,0.0,0.0,0.0,0.0,0.0,0.0,0.0,0.0,0.0,0.0,0.0,0.0,0.0,0.0,0.0,0.0,0.0,0.0,0.0,0.0,0.0,0.0,0.0,1.7193,2.1647,2.3844,2.5243,2.5803,2.5353,2.3818,2.0968,0.0,0.0,0.0,0.0,0.0,0.0,0.0,0.0,0.0,0.0,0.0,0.0,0.0,0.0,0.0,0.0,0.0,0.0,0.0,0.0,0.0,0.0,0.0,0.0,0.0,0.0,0.0,0.0,0.0,0.0,0.0,0.0,0.0,0.0,0.0,0.0,0.0,0.0,0.0,0.0,0.0,0.0,0.0,0.0,0.0,0.0,0.0,0.0,0.0,0.0,0.0,0.0,0.0,0.0,0.0,0.0,0.0,0.0,0.0,0.0,0.0,0.0,0.0,0.0,0.0,0.0,0.0,0.0,0.0,0.0,0.0,0.0,0.0,0.0,0.0,0.0,0.0,0.0,0.0,0.0,0.0,0.0,0.0,0.0,0.0,0.0,0.0,0.0,0.0,0.0,0.0,0.0,0.0,0.0,0.0,0.0,0.0,0.0,0.0,0.0,0.0,0.0,0.0,0.0,1.9529,2.3212,2.4428,2.5053,2.5148,2.5069,2.3818,2.0968,0.0,0.0,0.0,0.0,0.0,0.0,0.0,0.0,0.0,0.0,0.0,0.0,0.0,0.0,0.0,0.0,0.0,0.0,0.0,0.0,0.0,0.0,0.0,0.0,0.0,0.0,0.0,0.0,0.0,0.0,0.0,0.0,0.0,0.0,0.0,0.0,0.0,0.0,0.0,0.0,0.0,0.0,0.0,0.0,0.0,0.0,0.0,0.0,0.0,0.0,0.0,0.0,0.0,0.0,0.0,0.0,0.0,0.0,0.0,0.0,0.0,0.0,0.0,0.0,0.0,0.0,0.0,0.0,0.0,0.0,0.0,0.0,0.0,0.0,0.0,0.0,0.0,0.0,0.0,0.0,0.0,0.0,0.0,0.0,0.0,0.0,0.0,0.0,0.0,0.0,0.0,0.0,0.0,0.0,0.0,0.0,0.0,0.0,0.0,0.0,0.0,0.0,0.0,1.8566,2.1726,2.3702,2.4555,2.5005,2.5005,2.5005,2.3818,2.0968,2.0462,0.0,0.0,0.0,0.0,0.0,0.0,0.0,0.0,0.0,0.0,0.0,0.0,0.0,0.0,0.0,0.0,0.0,0.0,0.0,0.0,0.0,0.0,0.0,0.0,0.0,0.0,0.0,0.0,0.0,0.0,0.0,0.0,0.0,0.0,0.0,0.0,0.0,0.0,0.0,0.0,0.0,0.0,0.0,0.0,0.0,0.0,0.0,0.0,0.0,0.0,0.0,0.0,0.0,0.0,0.0,0.0,0.0,0.0,0.0,0.0,0.0,0.0,0.0,0.0,0.0,0.0,0.0,0.0,0.0,0.0,0.0,0.0,0.0,0.0,0.0,0.0,0.0,0.0,0.0,0.0,0.0,0.0,0.0,0.0,0.0,0.0,0.0,0.0,0.0,0.0,0.0,0.0,0.0,0.0,0.0,0.0,0.0,0.0,0.0,0.0,0.0,0.0,2.0067,2.2675,2.4018,2.465,2.5005,2.5005,2.5005,2.3818,2.0968,2.0178,0.0,0.0,0.0,0.0,0.0,0.0,0.0,0.0,0.0,0.0,0.0,0.0,0.0,0.0,0.0,0.0,0.0,0.0,0.0,0.0,0.0,0.0,0.0,0.0,0.0,0.0,0.0,0.0,0.0,0.0,0.0,0.0,0.0,0.0,0.0,0.0,0.0,0.0,0.0,0.0,0.0,0.0,0.0,0.0,0.0,0.0,0.0,0.0,0.0,0.0,0.0,0.0,0.0,0.0,0.0,0.0,0.0,0.0,0.0,0.0,0.0,0.0,0.0,0.0,0.0,0.0,0.0,0.0,0.0,0.0,0.0,0.0,0.0,0.0,0.0,0.0,0.0,0.0,0.0,0.0,0.0,0.0,0.0,0.0,0.0,0.0,0.0,0.0,0.0,0.0,0.0,0.0,0.0,0.0,0.0,0.0,0.0,0.0,0.0,0.0,0.0,0.0,1.942,2.1268,2.4578,2.4974,2.5005,2.5005,2.5005,2.3818,2.0968,2.0178,0.0,0.0,0.0,0.0,0.0,0.0,0.0,0.0,0.0,0.0,0.0,0.0,0.0,0.0,0.0,0.0,0.0,0.0,0.0,0.0,0.0,0.0,0.0,0.0,0.0,0.0,0.0,0.0,0.0,0.0,0.0,0.0,0.0,0.0,0.0,0.0,0.0,0.0,0.0,0.0,0.0,0.0,0.0,0.0,0.0,0.0,0.0,0.0,0.0,0.0,0.0,0.0,0.0,0.0,0.0,0.0,0.0,0.0,0.0,0.0,0.0,0.0,0.0,0.0,0.0,0.0,0.0,0.0,0.0,0.0,0.0,0.0,0.0,0.0,0.0,0.0,0.0,0.0,0.0,0.0,0.0,0.0,0.0,0.0,0.0,0.0,0.0,0.0,0.0,0.0,0.0,0.0,0.0,0.0,0.0,0.0,0.0,0.0,0.0,0.0,0.0,0.0,2.0842,2.3038,0.0,2.5005,2.5005,2.5005,2.5005,2.3818,2.0968,0.0,0.0,0.0,0.0,0.0,0.0,0.0,0.0,0.0,0.0,0.0,0.0,0.0,0.0,0.0,0.0,0.0,0.0,0.0,0.0,0.0,0.0,0.0,0.0,0.0,0.0,0.0,0.0,0.0,0.0,0.0,0.0,0.0,0.0,0.0,0.0,0.0,0.0,0.0,0.0,0.0,0.0,0.0,0.0,0.0,0.0,0.0,0.0,0.0,0.0,0.0,0.0,0.0,0.0,0.0,0.0,0.0,0.0,0.0,0.0,0.0,0.0,0.0,0.0,0.0,0.0,0.0,0.0,0.0,0.0,0.0,0.0,0.0,0.0,0.0,0.0,0.0,0.0,0.0,0.0,0.0,0.0,0.0,0.0,0.0,0.0,0.0,0.0,0.0,0.0,0.0,0.0,0.0,0.0,0.0,0.0,0.0,0.0,0.0,0.0,0.0,0.0,1.8677,2.1758,2.4191,0.0,2.5005,2.5005,2.5005,2.5005,2.3818,2.0968,0.0,0.0,0.0,0.0,0.0,0.0,0.0,0.0,0.0,0.0,0.0,0.0,0.0,0.0,0.0,0.0,0.0,0.0,0.0,0.0,0.0,0.0,0.0,0.0,0.0,0.0,0.0,0.0,0.0,0.0,0.0,0.0,0.0,0.0,0.0,0.0,0.0,0.0,0.0,0.0,0.0,0.0,0.0,0.0,0.0,0.0,0.0,0.0,0.0,0.0,0.0,0.0,0.0,0.0,0.0,0.0,0.0,0.0,0.0,0.0,0.0,0.0,0.0,0.0,0.0,0.0,0.0,0.0,0.0,0.0,0.0,0.0,0.0,0.0,0.0,0.0,0.0,0.0,0.0,0.0,0.0,0.0,0.0,0.0,0.0,0.0,0.0,0.0,0.0,0.0,0.0,0.0,0.0,0.0,0.0,0.0,0.0,0.0,0.0,0.0,0.0,0.0,1.8629,2.1758,2.4191,2.4926,2.5005,2.5005,2.5005,2.5005,2.3818,0.0,0.0,0.0,0.0,0.0,0.0,0.0,0.0,0.0,0.0,0.0,0.0,0.0,0.0,0.0,0.0,0.0,0.0,0.0,0.0,0.0,0.0,0.0,0.0,0.0,0.0,0.0,0.0,0.0,0.0,0.0,0.0,0.0,0.0,0.0,0.0,0.0,0.0,0.0,0.0,0.0,0.0,0.0,0.0,0.0,0.0,0.0,0.0,0.0,0.0,0.0,0.0,0.0,0.0,0.0,0.0,0.0,0.0,0.0,0.0,0.0,0.0,0.0,0.0,0.0,0.0,0.0,0.0,0.0,0.0,0.0,0.0,0.0,0.0,0.0,0.0,0.0,0.0,0.0,0.0,0.0,0.0,0.0,0.0,0.0,0.0,0.0,0.0,0.0,0.0,0.0,0.0,0.0,0.0,0.0,0.0,0.0,0.0,0.0,0.0,0.0,0.0,0.0,1.874,2.2185,2.4744,2.4989,2.5005,2.5005,2.5005,2.5005,2.3818,2.0968,0.0,0.0,0.0,0.0,0.0,0.0,0.0,0.0,0.0,0.0,0.0,0.0,0.0,0.0,0.0,0.0,0.0,0.0,0.0,0.0,0.0,0.0,0.0,0.0,0.0,0.0,0.0,0.0,0.0,0.0,0.0,0.0,0.0,0.0,0.0,0.0,0.0,0.0,0.0,0.0,0.0,0.0,0.0,0.0,0.0,0.0,0.0,0.0,0.0,0.0,0.0,0.0,0.0,0.0,0.0,0.0,0.0,0.0,0.0,0.0,0.0,0.0,0.0,0.0,0.0,0.0,0.0,0.0,0.0,0.0,0.0,0.0,0.0,0.0,0.0,0.0,0.0,0.0,0.0,0.0,0.0,0.0,0.0,0.0,0.0,0.0,0.0,0.0,0.0,0.0,0.0,0.0,0.0,0.0,0.0,0.0,0.0,0.0,0.0,0.0,0.0,0.0,1.9167,2.2564,2.5005,2.5005,2.5005,2.5005,2.5005,2.5005,2.398,2.16,0.0,0.0,0.0,0.0,0.0,0.0,0.0,0.0,0.0,0.0,0.0,0.0,0.0,0.0,0.0,0.0,0.0,0.0,0.0,0.0,0.0,0.0,0.0,0.0,0.0,0.0,0.0,0.0,0.0,0.0,0.0,0.0,0.0,0.0,0.0,0.0,0.0,0.0,0.0,0.0,0.0,0.0,0.0,0.0,0.0,0.0,0.0,0.0,0.0,0.0,0.0,0.0,0.0,0.0,0.0,0.0,0.0,0.0,0.0,0.0,0.0,0.0,0.0,0.0,0.0,0.0,0.0,0.0,0.0,0.0,0.0,0.0,0.0,0.0,0.0,0.0,0.0,0.0,0.0,0.0,0.0,0.0,0.0,0.0,0.0,0.0,0.0,0.0,0.0,0.0,0.0,0.0,0.0,0.0,0.0,0.0,0.0,0.0,0.0,0.0,0.0,0.0,1.9609,2.2785,2.5005,2.5005,2.5005,2.5005,2.5005,2.4966,2.4226,2.253,0.0,0.0,0.0,0.0,0.0,0.0,0.0,0.0,0.0,0.0,0.0,0.0,0.0,0.0,0.0,0.0,0.0,0.0,0.0,0.0,0.0,0.0,0.0,0.0,0.0,0.0,0.0,0.0,0.0,0.0,0.0,0.0,0.0,0.0,0.0,0.0,0.0,0.0,0.0,0.0,0.0,0.0,0.0,0.0,0.0,0.0,0.0,0.0,0.0,0.0,0.0,0.0,0.0,0.0,0.0,0.0,0.0,0.0,0.0,0.0,2.0537,0.0,0.0,0.0,0.0,0.0,0.0,0.0,0.0,0.0,0.0,0.0,0.0,0.0,0.0,0.0,0.0,0.0,0.0,0.0,0.0,0.0,0.0,0.0,0.0,0.0,0.0,0.0,0.0,0.0,0.0,0.0,0.0,0.0,0.0,0.0,0.0,0.0,0.0,0.0,0.0,0.0,1.8914,2.2469,2.5005,2.5005,2.5005,2.5005,2.5005,2.4782,2.4108,2.2865,2.2321,0.0,0.0,0.0,0.0,0.0,0.0,0.0,0.0,0.0,0.0,0.0,0.0,0.0,0.0,0.0,0.0,0.0,0.0,0.0,0.0,0.0,0.0,0.0,0.0,0.0,0.0,0.0,0.0,0.0,0.0,0.0,0.0,0.0,0.0,0.0,0.0,0.0,0.0,0.0,0.0,0.0,0.0,0.0,0.0,0.0,0.0,0.0,0.0,0.0,0.0,0.0,0.0,0.0,0.0,0.0,0.0,0.0,0.0,0.0,0.0,2.1001,0.0,0.0,0.0,0.0,0.0,0.0,0.0,0.0,0.0,0.0,0.0,0.0,0.0,0.0,0.0,0.0,0.0,0.0,0.0,0.0,0.0,0.0,0.0,0.0,0.0,0.0,0.0,0.0,0.0,0.0,0.0,0.0,0.0,0.0,0.0,0.0,0.0,0.0,0.0,0.0,1.9183,2.2596,2.5005,2.5005,2.4862,2.4806,2.4966,2.4701,2.4269,2.3709,2.3142,0.0,0.0,0.0,0.0,0.0,0.0,0.0,0.0,0.0,0.0,0.0,0.0,0.0,0.0,0.0,0.0,0.0,0.0,0.0,0.0,0.0,0.0,0.0,0.0,0.0,0.0,0.0,0.0,0.0,0.0,0.0,0.0,0.0,0.0,0.0,0.0,0.0,0.0,0.0,0.0,0.0,0.0,0.0,0.0,0.0,0.0,0.0,0.0,0.0,0.0,0.0,0.0,0.0,2.6086,2.6104,2.6461,2.7246,2.7174,2.6318,2.4397,2.2861,2.175,2.1875,0.0,0.0,0.0,0.0,0.0,0.0,0.0,0.0,0.0,0.0,0.0,0.0,0.0,0.0,0.0,0.0,0.0,0.0,0.0,0.0,0.0,0.0,0.0,0.0,2.2676,2.2102,0.0,0.0,0.0,0.0,0.0,0.0,0.0,0.0,0.0,0.0,0.0,0.0,1.9736,2.3054,2.5385,2.5385,2.5102,2.5061,2.5345,2.5004,2.4813,2.4854,2.4117,2.3468,0.0,0.0,0.0,0.0,0.0,0.0,0.0,0.0,0.0,0.0,0.0,0.0,0.0,0.0,0.0,0.0,0.0,0.0,0.0,0.0,0.0,0.0,0.0,0.0,0.0,0.0,0.0,0.0,0.0,0.0,0.0,0.0,1.9829,2.0657,0.0,0.0,0.0,0.0,0.0,0.0,0.0,0.0,0.0,0.0,0.0,0.0,0.0,2.6282,2.7861,2.8495,2.8834,2.8941,3.0172,3.0136,2.8959,2.9708,2.9637,2.8905,2.8667,0.0,2.4284,2.4926,0.0,0.0,0.0,0.0,0.0,0.0,0.0,0.0,0.0,0.0,0.0,0.0,0.0,0.0,0.0,0.0,0.0,0.0,0.0,0.0,0.0,0.0,2.5211,2.7145,2.6614,2.6016,0.0,2.3499,2.0705,2.3134,2.1444,0.0,0.0,0.0,0.0,0.0,0.0,0.0,1.9799,2.3907,2.6814,2.6814,2.6772,2.6788,2.6814,2.622,2.5938,2.622,2.5531,2.4867,2.4225,2.5497,0.0,0.0,0.0,0.0,0.0,0.0,0.0,0.0,0.0,0.0,0.0,0.0,0.0,0.0,0.0,0.0,0.0,0.0,0.0,0.0,0.0,0.0,0.0,0.0,0.0,0.0,0.0,0.0,0.0,2.082,2.1603,2.1577,2.2016,2.2349,0.0,0.0,0.0,0.0,0.0,0.0,0.0,0.0,0.0,2.8298,2.8368,2.8956,3.0172,3.0975,3.1581,3.2045,3.2741,3.292,3.267,3.3059,3.2822,3.2089,3.2163,3.0901,2.8694,2.7233,2.5763,2.4316,0.0,0.0,0.0,0.0,2.2068,2.3191,2.3099,2.3401,0.0,2.3584,0.0,0.0,0.0,0.0,0.0,0.0,0.0,0.0,0.0,0.0,2.6367,2.8018,2.8251,2.8234,2.882,2.6445,2.4394,0.0,2.3438,2.1396,2.0213,0.0,0.0,0.0,0.0,2.2351,2.2141,2.5045,2.7013,2.6779,2.6588,2.6543,2.6764,2.6108,2.6016,2.6779,2.6273,2.5884,2.5818,2.6749,2.6259,0.0,0.0,0.0,0.0,0.0,0.0,0.0,0.0,0.0,0.0,0.0,0.0,0.0,0.0,0.0,0.0,0.0,0.0,0.0,0.0,0.0,0.0,0.0,0.0,0.0,0.0,0.0,0.0,2.2553,2.3052,2.2729,2.3253,2.3637,0.0,0.0,0.0,0.0,0.0,0.0,2.7817,2.7786,2.8621,3.0547,3.1092,3.1751,3.2599,3.2909,3.3481,3.4266,3.4179,3.4463,3.4995,3.5401,3.5041,3.4145,3.4225,3.3468,3.2044,2.9521,2.7885,2.6713,2.492,2.4784,2.539,2.3874,2.441,2.5897,2.5746,2.6134,2.6549,2.5746,2.484,2.3909,2.3187,0.0,0.0,0.0,0.0,2.4351,2.6567,2.7232,2.759,2.8738,2.9317,2.9698,2.9698,2.8445,2.7354,0.0,2.5478,2.3445,2.1711,0.0,0.0,0.0,0.0,2.4574,2.4214,2.6198,2.7488,2.719,2.6948,2.6857,2.6994,2.6518,2.6518,2.7235,2.6927,2.6909,2.7296,2.7704,2.7263,2.5939,0.0,0.0,0.0,0.0,0.0,0.0,0.0,0.0,0.0,0.0,0.0,0.0,0.0,0.0,0.0,0.0,0.0,0.0,0.0,0.0,0.0,0.0,0.0,0.0,0.0,0.0,0.0,0.0,0.0,2.4201,2.4442,0.0,0.0,0.0,0.0,2.6668,2.6774,2.7784,3.0178,3.0261,3.1346,3.3794,3.3901,3.4276,3.5025,3.4074,3.3953,3.4745,3.4434,3.4341,3.4486,3.5576,3.5279,3.3928,3.4062,3.363,3.2791,3.208,3.07,2.9012,2.8905,2.8282,2.7362,2.6584,2.6367,2.6472,2.6528,2.6591,2.6838,2.8294,2.766,2.6277,2.5902,2.478,0.0,0.0,2.5794,2.7036,2.7675,2.8842,2.996,3.0473,3.0526,3.046,3.046,2.8888,2.8031,0.0,2.7992,2.622,2.6783,0.0,2.433,2.2443,2.4023,2.5307,2.4997,2.732,2.898,2.898,2.8934,2.8779,2.8418,2.837,2.8211,2.7856,2.7838,2.8015,2.8417,2.8094,2.8209,2.8871,2.6598,0.0,0.0,0.0,0.0,0.0,0.0,0.0,0.0,0.0,0.0,0.0,0.0,0.0,0.0,0.0,0.0,0.0,0.0,0.0,0.0,0.0,0.0,0.0,0.0,0.0,0.0,0.0,0.0,2.5922,2.6916,0.0,2.7674,2.8,2.8699,2.9882,3.0361,3.1249,3.2759,3.2468,3.2984,3.45,3.476,3.5016,3.5337,3.5451,3.5692,3.595,3.5915,3.5915,3.5955,3.6524,3.6178,3.5189,3.5314,3.4924,3.4126,3.3395,3.2101,3.0499,2.9478,2.8853,2.8451,2.8067,2.8216,2.8673,2.9099,2.924,2.9171,2.8752,2.8216,2.7514,2.6402,2.6061,2.6096,2.6371,2.6756,2.7449,2.8985,2.9668,3.0068,3.0566,3.0609,3.0526,3.0526,2.9938,2.9622,3.0361,2.8616,2.6925,2.6654,2.7694,2.7663,2.5007,2.6675,2.8178,2.7939,2.8595,2.8982,2.8716,2.8716,2.8669,2.8511,2.8042,2.7944,2.8271,2.7845,2.7745,2.811,2.8207,2.8415,2.8716,2.8091,2.6902,0.0,0.0,0.0,0.0,0.0,0.0,0.0,0.0,0.0,0.0,0.0,0.0,0.0,0.0,0.0,0.0,0.0,0.0,0.0,0.0,0.0,0.0,0.0,0.0,0.0,0.0,2.7299,2.8047,2.9276,3.0214,3.0588,3.0968,3.156,3.2438,3.311,3.3808,3.4605,3.4357,3.4561,3.5332,3.5684,3.5849,3.5792,3.5972,3.6208,3.6492,3.6232,3.6249,3.6591,3.6834,3.6531,3.5794,3.5925,3.5485,3.4745,3.4091,3.323,3.2161,3.0683,3.0004,2.9939,2.981,3.0056,3.0525,3.0922,3.1058,3.0851,2.9592,2.9179,2.8937,2.7644,2.7627,2.8092,2.8368,2.8354,2.8613,3.0214,3.0446,3.0348,3.0714,3.0651,3.0526,3.0526,2.9947,2.9632,3.0377,2.9413,2.8006,2.6468,2.7992,2.8345,2.5173,2.6411,2.7656,2.741,2.7838,2.8018,2.7762,2.8295,2.8669,2.8511,2.7315,2.7145,2.8417,2.73,2.7113,2.8273,2.7983,2.7891,2.8046,2.7952,2.7264,2.5919,0.0,0.0,0.0,0.0,0.0,0.0,0.0,0.0,0.0,0.0,0.0,0.0,0.0,0.0,0.0,0.0,0.0,0.0,0.0,0.0,0.0,0.0,0.0,2.6038,2.8058,2.9755,3.063,3.1416,3.2166,3.2855,3.3041,3.3412,3.4148,3.4763,3.5277,3.5741,3.5922,3.6159,3.6399,3.6753,3.6851,3.6574,3.5559,3.5452,3.6301,3.5224,3.5232,3.6225,3.6468,3.6232,3.5614,3.5692,3.529,3.4533,3.4246,3.4128,3.4012,3.2751,3.2106,3.1834,3.1834,3.1817,3.18,3.18,3.18,3.1679,3.0955,3.0749,3.0575,2.9817,2.9575,2.973,3.0506,3.0642,3.0688,3.1329,3.1269,3.0975,3.0912,3.0692,3.0526,3.0526,2.887,2.7992,3.0112,3.0526,2.9632,2.6833,2.6916,2.6366,2.3309,2.339,0.0,2.3519,2.515,2.6293,2.6293,2.7945,2.8904,2.8559,2.6365,2.6,2.8341,2.6365,2.6309,2.8965,2.7469,2.6782,2.7162,2.6174,2.6377,2.7745,0.0,0.0,0.0,0.0,0.0,0.0,0.0,0.0,0.0,0.0,0.0,0.0,0.0,0.0,0.0,0.0,0.0,0.0,0.0,0.0,0.0,0.0,2.8757,2.9277,2.9986,3.1211,3.3122,3.3892,3.4628,3.56,3.5522,3.574,3.6647,3.6863,3.6951,3.6867,3.6735,3.6606,3.6468,3.636,3.6233,3.6191,3.5882,3.5857,3.6088,3.5857,3.5934,3.6208,3.6318,3.6264,3.6115,3.6115,3.5994,3.5769,3.5152,3.4927,3.4938,3.3952,3.3225,3.274,3.274,3.2414,3.2001,3.2001,3.1965,3.1841,3.1758,3.1653,3.1529,3.1428,3.1323,3.1287,3.1512,3.1399,3.1244,3.1466,3.123,3.0912,3.0912,3.0692,3.0526,3.0526,3.0046,2.9798,3.041,3.0526,3.0261,2.9466,2.9499,2.931,2.8477,2.8352,0.0,2.8323,2.8452,2.8606,2.8606,2.7631,2.7506,2.8841,2.6773,2.6299,2.8372,2.7907,2.7875,2.8638,2.8466,2.8432,2.8568,2.7815,2.7742,0.0,0.0,0.0,0.0,0.0,0.0,0.0,0.0,0.0,0.0,0.0,0.0,0.0,0.0,0.0,0.0,0.0,0.0,0.0,0.0,0.0,0.0,2.9625,3.1636,3.3194,3.3164,3.3635,3.5322,3.611,3.6692,3.7262,3.7467,3.7613,3.7792,3.7899,3.7854,3.7563,3.7386,3.7259,3.7197,3.68,3.6585,3.6454,3.6129,3.6019,3.6062,3.6165,3.6208,3.6233,3.6259,3.6301,3.6301,3.6301,3.6343,3.6367,3.5935,3.5803,0.0,0.0,0.0,0.0,0.0,3.2383,3.2073,3.2037,3.1984,3.1984,3.2073,3.2037,3.1984,3.202,3.1948,3.1894,3.1875,3.1709,3.1538,3.1538,3.1252,3.0952,3.0952,3.0733,3.0526,3.0526,2.9798,2.9433,3.0344,2.9781,0.0,3.0361,2.9764,2.8738,2.7512,2.7481,2.7717,2.8014,2.8426,2.8833,2.9139,2.8646,2.877,2.9896,2.7677,0.0,0.0,0.0,2.8186,2.8748,2.8982,0.0,0.0,0.0,2.8356,2.9151,0.0,0.0,0.0,2.7118,2.6856,0.0,0.0,0.0,0.0,0.0,0.0,0.0,0.0,0.0,0.0,0.0,0.0,0.0,0.0,0.0,0.0,3.2294,3.4037,3.6941,3.6711,3.6479,3.7176,3.7871,3.8223,3.8052,3.8719,3.8865,3.8079,3.8307,3.8351,3.8076,0.0,0.0,0.0,0.0,3.755,3.7329,3.6661,3.6423,3.6509,3.6423,3.6414,3.6464,3.6377,3.636,3.636,3.636,3.6402,3.6502,3.6502,3.6602,3.6545,3.4988,3.3998,3.336,3.2418,3.2159,3.223,3.2018,0.0,0.0,3.2108,3.2108,3.2073,3.1984,3.193,3.1912,3.1819,3.1709,3.1617,3.1617,3.1312,3.1055,3.1055,3.0757,3.0568,3.0568,2.9042,2.8207,3.0145,2.8953,2.8274,3.0195,2.893,2.6783,2.4249,2.4431,2.5127,2.5872,2.7245,2.8375,2.9022,0.0,0.0,3.1191,2.8758,2.8363,3.1049,2.8916,2.811,2.9264,2.9358,2.8865,2.7801,2.8146,2.8935,3.0214,3.0718,3.1556,3.2594,3.0063,2.9599,0.0,0.0,0.0,0.0,0.0,0.0,0.0,0.0,0.0,0.0,0.0,0.0,0.0,0.0,0.0,3.1194,3.391,3.6205,3.745,3.8029,3.8279,3.8177,3.8162,3.8186,3.8318,3.8313,3.8468,3.8762,3.8869,3.8928,3.9024,3.9083,3.9028,3.8833,3.8738,3.8695,3.8608,3.8512,3.8426,3.8426,0.0,0.0,3.7495,3.6904,3.6602,3.6602,3.6602,3.6643,3.6643,3.6643,3.6725,3.6701,3.5793,3.5339,3.5025,3.3701,3.323,3.3125,3.2388,3.2108,3.2108,3.2144,3.2144,3.2108,3.2144,3.2108,0.0,3.1912,3.1765,3.1617,3.1617,3.1428,3.1218,3.1218,3.1055,3.0831,3.0831,3.0318,3.0013,3.0444,3.0179,3.0071,3.0624,3.0248,2.9897,2.993,3.0063,3.041,3.1139,3.1342,3.1446,3.1364,3.0048,2.9726,3.1065,2.9261,2.8973,3.1081,3.0717,3.0543,3.0796,3.099,3.1007,3.0782,3.1627,3.2283,3.281,3.343,3.3952,3.4388,3.2663,3.2315,0.0,0.0,0.0,0.0,0.0,0.0,0.0,0.0,0.0,0.0,0.0,2.6392,0.0,0.0,3.1793,3.3852,3.6218,3.8081,3.8933,3.9719,3.9834,3.8775,3.892,3.8949,3.8483,3.9458,3.9801,3.9049,3.9584,3.9779,3.937,3.9596,3.9721,3.9626,3.9669,3.9669,3.9773,3.9371,3.9161,3.9161,3.8758,3.8356,3.793,3.7563,3.7155,3.6766,3.6766,3.6766,3.6766,3.6869,3.693,3.6882,3.6166,3.5829,3.5524,3.358,3.3125,3.3388,3.2494,3.2232,3.2284,3.2267,3.2232,3.2144,3.2144,3.2073,3.1984,3.1875,3.1783,3.1709,3.1709,3.1559,3.1406,3.1406,3.1134,3.0914,3.1016,3.1014,3.1087,3.1172,3.1429,3.1616,3.1757,3.166,3.1632,3.1729,3.1749,3.2085,3.3098,3.3077,3.2992,3.3209,3.2029,3.1582,3.2558,3.163,3.1373,3.2187,3.2352,3.2453,3.2453,3.2688,3.2836,3.2836,3.3486,3.3811,3.3811,3.4268,3.4497,3.448,3.3886,3.3895,0.0,0.0,0.0,0.0,0.0,0.0,0.0,0.0,2.4764,2.6303,2.7549,2.8964,3.0913,3.2687,3.454,3.6708,3.8364,3.9584,4.0142,4.0996,4.0937,3.9182,3.9789,4.0013,3.9153,4.0826,4.1282,3.9644,4.0459,4.074,3.9929,4.0237,4.0499,4.0622,4.063,4.0604,4.0567,3.9916,3.9511,3.9353,3.9212,3.8807,3.8134,3.7993,3.7549,3.6908,3.6908,3.6908,3.6908,3.7069,3.7058,3.6864,3.6321,3.5911,3.5375,3.3283,3.295,3.3442,3.2564,3.2301,3.2406,3.2406,3.2319,3.2179,3.2144,3.202,3.1948,3.1893,3.1873,3.1873,3.1856,3.1726,3.1572,3.1594,3.1354,3.1191,3.1298,3.1495,3.1736,3.188,3.2164,3.238,3.2436,3.2406,3.236,3.2141,3.2094,3.2559,3.3719,3.366,3.3794,3.4431,3.4101,3.3899,3.4101,3.3899,3.371,3.345,3.3658,3.3797,3.3797,3.405,3.4201,3.4201,3.4448,3.4448,3.425,3.4399,3.4399,3.425,3.4448,3.4611,1.9829,2.0816,2.2227,2.2959,2.3229,2.4075,0.0,0.0,2.9061,3.0015,3.2054,3.3736,3.4016,3.5376,3.6795,3.7785,3.9354,4.0205,3.9616,4.0802,4.1157,3.9552,4.0473,4.12,4.1077,4.1317,4.146,4.1397,4.1541,4.1654,4.1704,4.1785,4.1778,4.1839,4.1821,4.1467,4.076,4.0654,4.0265,3.9557,3.8828,3.8439,3.8333,3.7701,3.7347,3.7259,3.7259,3.7259,3.7259,3.7259,3.6852,3.6198,3.6128,3.5668,3.4907,3.3952,3.367,3.3634,3.2772,3.2457,3.2406,3.2406,3.2319,3.2179,3.2179,3.2179,3.2179,3.2144,3.2108,3.2073,3.2144,3.202,3.1866,3.1861,3.1999,3.2127,3.2114,3.1957,3.1897,3.1884,3.1534,3.1234,3.1451,3.1455,3.1768,3.274,3.2902,3.3161,3.3989,3.4037,3.4153,3.4497,3.4448,3.4349,3.4101,3.405,3.405,3.4,3.405,3.405,3.405,3.43,3.4448,3.4448,3.4691,3.4851,3.4787,3.4594,3.4594,3.4804,3.4594,3.4497,2.4106,2.3937,2.3891,0.0,2.7241,2.8476,3.0226,3.126,3.2219,3.3556,3.5082,3.6327,3.6735,3.7792,3.8865,0.0,4.0347,4.0828,4.094,4.1533,4.1488,4.03,4.1091,4.152,4.0921,4.1709,4.2129,4.1849,4.2393,4.2395,4.1528,4.2078,4.2154,4.1604,4.2014,4.1872,4.1149,4.1149,4.0739,3.9953,3.9613,3.922,3.881,3.8488,3.7773,3.6845,3.679,3.679,3.679,3.6809,3.6916,3.6987,3.6613,3.5952,3.5114,3.4144,3.3809,3.3669,3.2855,3.2523,3.2473,3.2489,3.2439,3.2301,3.2371,3.2318,3.2266,3.2266,3.2214,3.2144,3.2179,3.2108,3.2012,3.1904,3.1918,3.1868,3.187,3.1929,3.2072,3.2179,3.2242,3.2321,3.241,3.2404,3.2473,3.2646,3.2891,3.3462,3.4448,3.43,3.4101,3.405,3.4448,3.4546,3.4151,3.425,3.425,3.4101,3.425,3.4349,3.4349,3.4594,3.4739,3.4739,3.4851,3.4804,3.4643,3.4546,3.4497,3.4448,3.4497,3.4497,2.5933,0.0,0.0,2.8876,3.0788,3.2278,3.3184,3.3998,3.5,3.6458,3.7313,3.7938,3.8464,3.888,3.9429,4.0207,4.0505,4.0815,4.1356,4.1632,4.1337,4.0221,4.0635,4.0828,4.0323,4.1932,4.2742,4.2209,4.3011,4.3027,4.1767,4.2366,4.2459,4.1764,4.2031,4.1872,4.1157,4.0941,4.0418,3.9626,3.9626,3.9338,3.8815,3.8798,3.7989,3.6556,3.6504,3.6344,3.6148,3.6199,3.6448,3.6735,3.6481,3.5759,3.4774,3.4153,3.3786,3.3519,3.2933,3.2672,3.2657,3.2672,3.2623,3.2558,3.2523,3.2489,3.2438,3.2386,3.2335,3.2284,3.2318,3.2214,3.21,3.1918,3.1898,3.1872,3.1831,3.2002,3.2211,3.2345,3.2586,3.2718,3.2718,3.2718,3.268,3.2437,3.2841,3.3459,3.4102,3.4134,3.4101,3.405,3.4546,3.4739,3.4349,3.4497,3.4546,3.4349,3.4497,3.4594,3.4594,3.4804,3.4899,3.4899,3.4899,3.4787,3.4594,3.4546,3.4448,3.4349,3.4448,3.4546,0.0,0.0,2.8651,3.0562,3.2405,3.4144,3.5723,3.6748,3.7623,3.8459,3.8688,3.8726,3.8705,3.8077,3.7809,3.8537,3.9394,3.9883,3.9788,4.0547,4.0476,3.8769,3.8577,3.8897,0.0,4.1825,4.3072,4.2794,4.3341,4.3542,4.3266,4.3014,4.2882,4.2846,4.2102,4.1324,4.0528,3.9767,3.8971,3.8174,3.8174,3.8156,3.8138,3.8054,3.7553,3.6694,3.6712,3.6263,3.5511,3.5511,3.5112,3.4469,3.5256,3.4591,3.3247,3.4002,3.3786,3.3122,3.3086,3.3042,3.2997,3.2997,3.2948,3.2852,3.2672,3.269,3.2773,3.2639,3.2539,3.2489,3.2573,3.2404,3.2167,3.1951,3.2225,3.2531,3.2407,3.2351,3.2367,3.2382,3.1966,3.1524,3.1524,3.1524,3.1739,3.2342,3.2841,3.3039,3.2547,3.3403,3.43,3.4804,3.4899,3.4899,3.4899,3.4899,3.4899,3.4899,3.4899,3.4899,3.4899,3.4899,3.4899,3.4899,3.4899,3.4899,3.4899,3.4643,3.4643,3.4851,3.4594,3.4643,2.6628,0.0,3.0874,3.3274,3.5174,3.6755,3.7863,3.8323,3.861,3.895,3.7247,3.5662,3.5646,3.5384,3.56,3.6939,3.8327,3.96,4.064,4.0583,3.9804,3.8095,3.836,0.0,0.0,0.0,0.0,4.2875,4.3343,4.3562,4.3493,4.3627,4.3493,4.3123,4.2466,4.1679,4.0771,3.9987,3.9167,3.8364,3.8318,3.8012,3.7503,3.7471,3.6731,3.5447,3.5447,3.5284,3.503,3.503,3.5193,3.5447,3.5737,3.5175,3.425,3.4522,3.4105,3.3386,3.3178,3.3073,3.3028,3.3073,3.3011,3.2948,3.293,3.2961,3.3011,3.2961,3.2866,3.2977,3.3508,3.3486,3.3424,3.3799,3.3489,3.2896,3.2329,3.1659,3.1036,3.0628,3.0403,3.0372,3.0776,3.0507,3.0293,3.0498,3.2051,3.3251,3.3507,3.3882,3.4151,3.4349,3.4691,3.4899,3.4899,3.4899,3.4899,3.4899,3.4899,3.4899,3.4899,3.4899,3.4899,3.4899,3.4899,3.4899,3.4899,3.4804,3.4787,3.4899,3.4804,3.4787,2.9339,3.1768,3.3786,3.6142,3.779,3.8885,3.9115,3.8908,3.86,3.8396,3.5647,3.3269,3.3256,3.2448,3.245,3.4331,3.5572,3.716,3.9662,3.9338,3.8669,3.8174,3.8575,3.8688,0.0,0.0,0.0,4.2341,4.3108,4.3517,4.3558,4.3964,4.3881,4.3106,4.2433,4.1604,4.0616,3.9827,3.9148,3.8634,3.8328,3.7863,3.732,3.7028,3.6138,3.4867,3.4867,3.4702,3.44,3.44,3.4681,3.5126,3.5126,3.4845,3.4371,3.4371,3.4043,3.3577,3.3345,3.3208,3.3165,3.3196,3.3165,3.3152,3.3104,3.3117,3.3165,3.3073,3.3239,3.3548,3.4082,3.424,3.4429,3.4822,3.4061,3.311,3.2533,3.139,3.0387,2.9983,2.9729,2.9699,3.0103,3.0193,3.0235,3.0235,3.1911,3.326,3.3411,3.3822,3.4151,3.4349,3.4691,3.4899,3.4899,3.4899,3.4899,3.4899,3.4899,3.4899,3.4899,3.4899,3.4899,3.4899,3.4899,3.4899,3.4899,3.4899,3.4899,3.4899,3.4899,3.4899,3.0916,3.4208,3.7255,3.8948,3.9998,4.0417,3.9518,3.862,3.7739,3.6922,3.3963,3.1562,0.0,0.0,2.8648,3.1111,3.1712,3.3248,3.7226,3.7214,3.736,0.0,0.0,0.0,0.0,0.0,0.0,4.1336,0.0,4.3472,4.3567,4.4105,4.3971,4.2928,4.2155,4.1221,4.0152,3.9357,3.895,3.895,3.8173,3.771,3.7561,3.6731,3.5846,3.4972,3.4972,3.4477,3.3726,3.3726,3.3671,3.3633,3.3633,3.3633,3.3633,3.3633,3.3633,3.3605,3.3549,3.3491,3.3491,3.3422,3.3393,3.3364,3.3178,3.3196,3.3262,3.3127,3.3633,3.4257,3.4329,3.4771,3.5173,3.5114,3.4199,3.3304,3.3029,3.1674,3.0492,3.0417,2.9983,2.9624,2.9594,3.0608,3.1344,3.1251,3.2357,3.2961,3.2349,3.3331,3.43,3.4787,3.4899,3.4899,3.4899,3.4899,3.4899,3.4899,3.4899,3.4899,3.4899,3.4899,3.4899,3.4899,3.4899,3.4899,3.4899,3.4899,3.4899,3.4899,3.4899,3.4899,3.448,3.7032,3.9032,4.0089,4.0069,3.9765,3.9561,3.7865,3.6267,3.6086,3.1805,2.8465,0.0,0.0,0.0,3.1152,3.38,0.0,3.8501,3.9208,0.0,4.0073,0.0,4.0396,4.103,4.13,0.0,0.0,4.2814,4.339,4.4488,4.4735,4.4329,4.3243,4.2511,4.1663,4.0716,3.9889,3.9476,3.9427,3.9201,3.845,3.7225,3.7,3.6026,3.4535,3.4535,3.4346,3.3998,3.3998,3.3947,3.3895,3.3895,3.3895,3.3895,3.3895,3.3868,3.3815,3.3753,3.3661,3.3577,3.3549,3.3549,3.3549,3.3491,3.3491,3.3647,3.42,3.4479,3.4897,3.6113,3.6522,3.6717,3.7182,3.5919,3.433,3.3172,3.1776,3.0458,2.941,2.9768,3.0118,2.9669,3.0633,3.1001,2.9524,3.1539,3.3119,3.2945,3.3636,3.4151,3.43,3.4643,3.4899,3.4899,3.4899,3.4899,3.4899,3.4899,3.4899,3.4899,3.4899,3.4899,3.4899,3.4899,3.4899,3.4899,3.4899,3.4899,3.4899,3.4899,3.4899,3.6644,3.8706,4.0148,4.0246,3.9626,3.8627,3.7171,3.5105,3.3195,3.2078,2.8274,0.0,0.0,0.0,0.0,0.0,0.0,0.0,3.7829,3.8981,3.9805,0.0,4.0963,0.0,4.187,4.2256,4.2821,0.0,4.3534,4.3752,4.459,4.5051,4.4586,4.313,4.2721,4.1844,4.0482,4.0008,3.9778,3.9712,3.8994,3.8331,3.7785,3.7007,3.6323,3.5713,0.0,3.5055,3.4903,3.4544,3.4348,3.4255,3.4255,3.4227,3.4124,3.4124,3.4049,3.3947,3.3895,3.3842,3.3753,3.3633,3.3605,3.3605,3.3605,3.3605,3.3769,3.4582,3.479,3.5173,3.6778,3.7153,3.7289,3.8005,3.6611,3.4918,3.4155,3.2611,3.1097,3.0286,3.0573,3.0746,3.0103,3.1061,3.1313,2.9693,3.1588,3.3093,3.2895,3.3815,3.4349,3.4151,3.4594,3.4787,3.4546,3.4739,3.4899,3.4899,3.4899,3.4899,3.4899,3.4899,3.4899,3.4899,3.4899,3.4899,3.4899,3.4899,3.4899,3.4899,3.4899,3.4899,3.7938,3.9617,4.0712,3.989,3.8965,3.7369,3.4042,3.1871,2.9829,2.733,0.0,2.36,2.5589,2.4515,2.4742,2.9036,0.0,3.2441,3.6299,3.7781,3.9051,4.0607,4.1571,4.2164,4.2257,4.2904,4.3627,4.4408,4.4384,4.4347,4.4331,4.5043,4.4607,4.2753,4.2581,4.1703,4.0024,4.0005,4.0005,4.0004,3.8518,3.8175,3.8747,3.7224,3.6881,3.7414,3.654,3.6122,3.5987,3.5153,3.4734,3.4653,3.4766,3.462,3.4386,3.4498,3.4344,3.408,3.408,3.4074,3.4016,3.3881,3.3752,3.3661,3.3789,3.3734,3.3826,3.4611,3.4838,3.5184,3.6699,3.7111,3.7317,3.7867,3.6664,3.5378,3.5343,3.3705,3.2252,3.2258,3.2028,3.1569,3.0896,3.1693,3.1982,3.0668,3.1959,3.2949,3.2437,3.3799,3.4611,3.4151,3.4594,3.4691,3.425,3.4643,3.4899,3.4899,3.4899,3.4899,3.4899,3.4899,3.4899,3.4899,3.4899,3.4899,3.4899,3.4899,3.4899,3.4899,3.4899,3.4899,3.8991,4.0157,4.071,3.9894,3.8494,3.6616,3.392,3.1448,0.0,0.0,2.4817,2.3966,2.7167,2.633,2.6549,3.0785,0.0,0.0,0.0,0.0,3.973,0.0,0.0,0.0,0.0,0.0,0.0,0.0,0.0,4.4576,4.4462,4.4617,4.3907,4.2193,4.144,4.0899,4.0563,4.0563,4.0563,4.0563,4.027,3.9832,3.9273,3.8965,3.8464,3.7747,3.6903,0.0,3.6178,3.5267,3.487,3.4907,3.559,3.5399,3.4868,3.553,3.526,3.4569,3.4569,3.4416,3.4333,3.4829,3.4537,3.405,3.4714,3.4412,3.3999,3.4752,3.4962,3.52,3.6219,3.6953,3.7271,3.6632,3.6608,3.6385,3.519,3.4139,3.3683,3.4331,3.391,3.3216,3.2538,3.2449,3.203,3.0687,3.1662,3.2492,3.2382,3.3455,3.4201,3.4101,3.4594,3.4851,3.4756,3.4851,3.4899,3.4899,3.4899,3.4899,3.4899,3.4899,3.4899,3.4899,3.4899,3.4899,3.4899,3.4899,3.4899,3.4899,3.4899,3.4899,3.9245,4.0303,4.0641,3.9383,3.7449,3.4948,3.1445,0.0,0.0,0.0,2.2561,2.248,2.5068,0.0,0.0,0.0,0.0,0.0,0.0,0.0,0.0,0.0,0.0,0.0,0.0,0.0,0.0,0.0,0.0,4.4081,4.3986,4.3516,4.2877,4.2083,4.1219,4.0773,4.0804,4.0773,4.0761,4.0757,4.028,4.0094,4.0113,3.9656,3.9438,3.9328,3.8022,0.0,3.713,3.581,3.5232,3.5196,3.5611,3.5467,3.5038,3.5455,3.5249,3.4793,3.4793,3.4713,3.4739,3.5477,3.4939,3.4097,3.458,3.4382,3.4138,3.5021,3.4895,3.476,3.6113,3.6768,3.698,3.6555,3.6728,3.6588,3.5232,3.5049,3.5267,3.5552,3.5245,3.4758,3.4031,3.3562,3.293,3.1935,3.2038,3.2247,3.2492,3.298,3.3387,3.3594,3.4366,3.4804,3.4497,3.4739,3.4899,3.4899,3.4899,3.4899,3.4899,3.4899,3.4899,3.4899,3.4899,3.4899,3.4899,3.4899,3.4899,3.4899,3.4899,3.4899,3.8689,3.9805,4.0056,3.8371,3.6165,3.3275,2.8914,2.6085,0.0,0.0,2.0505,2.1032,2.2773,0.0,2.4092,0.0,0.0,0.0,0.0,0.0,0.0,0.0,0.0,0.0,0.0,0.0,0.0,0.0,0.0,0.0,4.3236,4.2374,4.1849,4.1869,4.1189,4.0868,4.0927,4.0868,4.0828,4.0826,4.0128,4.0167,4.0796,3.9921,3.989,4.0444,3.8698,0.0,0.0,3.6219,3.5553,3.5493,3.59,3.572,3.5242,3.5621,3.5444,3.5035,3.5037,3.4982,3.504,3.5685,3.5096,3.424,3.4568,3.4381,3.4284,3.5075,3.4729,3.4427,3.5783,3.6317,3.6528,3.6771,3.6683,3.635,3.5588,3.5987,3.6393,3.6286,3.6148,3.5824,3.5155,3.4486,3.3757,3.3089,3.252,3.2302,3.2586,3.2749,3.2949,3.3235,3.4152,3.4594,3.43,3.4643,3.4899,3.4899,3.4899,3.4899,3.4899,3.4899,3.4899,3.4899,3.4899,3.4899,3.4899,3.4899,3.4899,3.4899,3.4899,3.4899,3.696,3.8068,3.831,3.657,3.4812,3.2382,2.8007,0.0,0.0,2.1035,2.0507,2.1033,2.2789,2.3105,2.3691,0.0,0.0,0.0,0.0,0.0,0.0,0.0,0.0,0.0,0.0,0.0,0.0,0.0,0.0,0.0,4.2362,4.1584,4.1108,4.1103,4.1011,4.0988,4.0988,4.0988,4.098,4.098,4.0846,4.0818,4.0857,3.9994,3.9636,3.9616,3.787,0.0,0.0,3.6024,3.5585,3.5743,3.7332,3.6979,3.574,3.725,3.682,3.5443,3.5441,3.5285,3.51,3.5164,3.4964,3.4845,3.5539,3.5195,3.4548,3.458,3.452,3.4502,3.4652,3.5233,3.5983,3.6728,3.6339,3.5943,3.6423,3.6603,3.6645,3.6497,3.6274,3.5997,3.5324,3.4531,3.3757,3.3089,3.2829,3.2749,3.2788,3.3198,3.3547,3.3531,3.3901,3.4349,3.4804,3.4899,3.4899,3.4899,3.4899,3.4899,3.4899,3.4899,3.4899,3.4899,3.4899,3.4899,3.4899,3.4899,3.4899,3.4899,3.4899,3.4899,3.4886,3.6653,3.7303,3.5546,3.3867,3.1616,2.7762,0.0,2.3017,2.0926,2.0494,2.0708,2.1401,2.1531,2.1938,0.0,0.0,0.0,0.0,0.0,0.0,0.0,0.0,0.0,0.0,0.0,0.0,0.0,0.0,4.1206,4.1554,4.1258,4.0812,4.0297,4.0749,4.0779,4.0277,4.076,4.0994,4.0994,4.098,4.0961,4.0942,4.0054,3.966,3.9555,3.7816,0.0,0.0,3.6067,3.5659,3.5673,3.6411,3.6245,3.567,3.6358,3.6161,3.5565,3.5572,3.5489,3.5402,3.5388,3.5315,3.5248,3.538,3.5135,3.4793,3.4813,3.4735,3.4694,3.4733,3.5039,3.5551,3.6345,3.6289,3.6072,3.6133,3.6544,3.6791,3.6541,3.6414,3.6337,3.6061,3.5063,3.4206,3.3931,3.3162,3.2547,3.2453,3.2641,3.2841,3.3093,3.385,3.4448,3.4643,3.4947,3.5152,3.5152,3.5152,3.5152,3.5152,3.5152,3.5152,3.5152,3.5152,3.5152,3.5152,3.5152,3.5088,3.4994,3.4994,3.4994,3.2226,3.4353,3.5304,3.3818,3.2187,3.0102,0.0,0.0,2.2296,2.0818,2.0494,2.0506,2.0492,2.048,2.0662,0.0,0.0,2.4588,0.0,0.0,0.0,0.0,0.0,0.0,0.0,0.0,0.0,0.0,4.068,4.0769,4.105,4.1062,4.0801,4.0193,4.0479,4.0494,4.0184,4.0745,4.0901,4.0648,4.0902,4.0754,4.0246,3.9627,3.9201,3.8889,3.7383,0.0,0.0,3.6052,3.576,3.5689,3.5999,3.5911,3.5648,3.5929,3.5861,3.5626,3.5635,3.5612,3.5608,3.5608,3.5579,3.5501,3.5315,3.5155,3.5053,3.5086,3.5016,3.4963,3.5,3.5091,3.5354,3.6155,3.6155,3.6004,3.6146,3.6434,3.6648,3.6538,3.6492,3.643,3.623,3.5245,3.4398,3.4198,3.3305,3.2586,3.2492,3.2656,3.2803,3.2879,3.3935,3.4578,3.4497,3.4994,3.5291,3.5291,3.5291,3.5291,3.5291,3.5291,3.5291,3.5291,3.5291,3.5291,3.5291,3.5291,3.5245,3.5152,3.5152,3.5105,2.8847,3.079,3.1841,3.0963,2.9472,2.7556,0.0,0.0,2.1558,2.0683,2.0508,2.0508,2.0508,2.0443,2.0405,2.0419,0.0,0.0,0.0,0.0,0.0,0.0,0.0,0.0,0.0,0.0,0.0,0.0,3.9811,0.0,4.0955,4.0994,4.1028,4.108,4.0254,4.0211,4.1087,4.1087,4.0679,3.9822,4.0698,4.021,3.8532,3.8526,3.8034,3.7172,0.0,0.0,0.0,3.589,3.5858,3.5879,3.6756,3.653,3.5805,3.6745,3.6503,3.5699,3.5698,3.5667,3.5607,3.5607,3.5612,3.5604,3.5589,3.5502,3.5379,3.5315,3.53,3.5281,3.53,3.5289,3.5503,3.6307,3.5835,3.5543,3.6789,3.6462,3.6034,3.6444,3.6492,3.6276,3.5599,3.4922,3.4229,3.3521,3.3295,3.3182,3.3198,3.3665,3.3767,3.3235,3.4169,3.4706,3.4497,3.4994,3.5291,3.5291,3.5291,3.5291,3.5291,3.5291,3.5291,3.5291,3.5291,3.5291,3.5291,3.5291,3.5291,3.5291,3.5291,3.5291,2.6128,2.762,2.8248,2.7362,2.6715,2.5754,2.3746,0.0,2.1359,2.0533,2.0352,2.0363,2.0369,2.0357,2.052,2.1126,2.1675,0.0,0.0,0.0,0.0,0.0,0.0,0.0,0.0,0.0,0.0,3.8703,3.8656,3.8743,3.8995,3.8452,3.8749,4.0111,4.0457,4.0469,4.0161,4.018,4.0063,3.9806,3.9481,3.9038,3.8471,3.7871,3.7459,0.0,3.6285,0.0,0.0,3.5899,3.589,3.5903,3.6177,3.5738,3.5061,3.595,3.5689,3.4969,3.5571,3.5718,3.5659,3.5659,3.5678,3.5676,3.5676,3.5608,3.5522,3.5463,3.5397,3.5383,3.5383,3.5369,3.558,3.6426,3.5969,3.5704,3.7093,3.6723,3.6208,3.6589,3.6662,3.6538,3.6276,3.523,3.4398,3.4168,3.329,3.2641,3.2641,3.2803,3.3002,3.3198,3.3495,3.3818,3.4152,3.5008,3.5503,3.5503,3.5503,3.5503,3.5503,3.5503,3.5503,3.5503,3.5503,3.5503,3.5503,3.5503,3.5458,3.5446,3.5337,3.5291,0.0,2.5367,2.6033,2.5186,2.493,0.0,0.0,0.0,2.0862,2.0369,2.026,2.0255,2.0262,2.0518,2.0897,2.1463,2.2623,0.0,0.0,0.0,0.0,0.0,0.0,0.0,0.0,0.0,3.7571,3.7669,3.7634,3.7745,3.8073,3.759,3.7846,3.9052,3.9354,3.9409,3.924,3.9285,3.9143,3.8825,3.8599,3.8163,3.7515,3.7304,3.7021,3.6671,3.6145,3.5912,0.0,3.5566,3.5408,3.5408,3.5417,3.5073,3.4702,3.5576,3.5519,3.5106,3.5652,3.5812,3.5775,3.5775,3.5785,3.5766,3.5757,3.5676,3.5596,3.5553,3.5509,3.5483,3.5483,3.547,3.5669,3.6535,3.604,3.5778,3.7212,3.6819,3.6301,3.6722,3.6583,3.6198,3.589,3.4858,3.3983,3.3737,3.2952,3.2398,3.2398,3.2602,3.2841,3.313,3.3547,3.3869,3.3986,3.4769,3.5362,3.5577,3.5622,3.5622,3.5622,3.5622,3.5622,3.5622,3.5622,3.5622,3.5622,3.5622,3.5594,3.552,3.5475,3.5412,0.0,0.0,0.0,0.0,0.0,0.0,0.0,0.0,0.0,2.0164,2.0164,2.0184,2.0241,2.0821,2.135,2.1607,2.4249,0.0,0.0,0.0,0.0,0.0,0.0,0.0,0.0,3.5499,3.6522,3.6652,3.6665,3.7032,3.7835,3.7893,3.7887,3.7887,3.7239,3.7386,3.8468,3.841,3.7975,3.7176,3.7936,3.743,3.5918,3.6657,3.6551,0.0,3.5729,3.5797,0.0,3.4908,3.4545,3.4605,3.4609,3.4565,3.4638,3.5561,3.5861,3.5817,3.5878,3.5862,3.5815,3.5807,3.5846,3.5885,3.584,3.5718,3.5612,3.5612,3.562,3.5616,3.5685,3.5604,3.5753,3.6685,3.6151,3.581,3.7217,3.6827,3.6365,3.6837,3.6275,3.5474,3.4829,3.399,3.3198,3.2622,3.253,3.2514,3.2514,3.292,3.3277,3.3366,3.4185,3.4529,3.4136,3.4577,3.5068,3.5515,3.5577,3.5622,3.5622,3.5622,3.5622,3.5622,3.5622,3.5622,3.5622,3.5622,3.5622,3.5622,3.5622,3.5622,2.0207,0.0,2.0432,2.0929,2.0995,0.0,0.0,0.0,0.0,0.0,0.0,2.0002,2.0613,2.0387,2.0727,2.2639,0.0,0.0,0.0,0.0,0.0,0.0,0.0,0.0,0.0,3.4261,3.5321,3.5356,3.5444,3.5592,3.5783,3.5802,3.5848,3.595,3.5795,3.6505,3.8175,3.7525,3.7099,3.6895,3.6424,3.6038,3.5735,3.5274,3.5002,3.4866,3.4197,3.4305,3.4856,3.4031,3.4059,3.4686,3.468,3.4273,3.3861,3.5415,3.5526,3.4996,3.5675,3.5464,3.4905,3.49,3.5368,3.5899,3.5875,3.5788,3.5695,3.5737,3.5718,3.5834,3.6548,3.6234,3.6129,3.7655,3.6839,3.6041,3.7225,3.6864,3.6241,3.6101,3.5921,3.5596,3.4949,3.4234,3.3737,3.3581,3.3535,3.3575,3.3575,3.3685,3.4036,3.4845,3.4327,3.4153,3.488,3.5224,3.527,3.5021,3.5379,3.5622,3.5622,3.5622,3.5622,3.5622,3.5622,3.5622,3.5622,3.5622,3.5622,3.5622,3.5622,3.5622,1.9179,1.9613,1.9764,1.9797,2.007,2.0208,0.0,0.0,0.0,0.0,0.0,0.0,2.0172,2.0236,0.0,0.0,2.2615,0.0,0.0,0.0,0.0,0.0,0.0,0.0,0.0,0.0,3.4614,3.4614,3.4733,3.4773,3.4773,3.4812,3.4699,3.4391,3.4426,3.5254,3.6897,3.6067,3.5649,3.563,3.4766,3.4395,3.4448,3.3974,3.4013,3.4445,3.3949,3.4023,3.4408,3.3634,3.3342,3.3412,3.3478,3.3215,3.2966,3.4315,3.4749,3.4713,3.5183,3.5308,3.5234,3.5232,3.5561,3.5948,3.5906,3.5845,3.5787,3.5803,3.5773,3.5862,3.6377,3.6151,3.6034,3.6988,3.6489,3.6015,3.6797,3.6597,3.6222,3.5931,3.5589,3.5191,3.4604,3.3951,3.3568,3.3848,3.363,3.3646,3.4269,3.3802,3.3957,3.5328,3.4592,3.4301,3.5144,3.5316,3.527,3.5021,3.5515,3.58,3.58,3.58,3.58,3.58,3.58,3.58,3.58,3.58,3.58,3.58,3.58,3.58,1.8493,1.9666,2.0159,1.9606,1.9985,2.0315,0.0,0.0,0.0,0.0,0.0,0.0,0.0,0.0,0.0,0.0,0.0,0.0,0.0,0.0,0.0,0.0,0.0,0.0,3.3222,3.3817,3.3934,3.3846,3.3896,3.3997,3.417,3.4124,3.3827,3.3266,3.3256,3.3805,3.4936,3.434,3.4007,3.4007,3.3268,3.2933,3.2945,3.2841,3.3191,3.3912,0.0,0.0,3.3867,3.3102,3.2496,3.2062,3.2072,3.2141,3.2357,3.3248,3.4033,3.4676,3.4534,3.5069,3.5775,3.5653,3.5782,3.5987,3.5935,3.5918,3.5906,3.5857,3.583,3.5846,3.5988,3.593,3.5852,3.6002,3.5924,3.5903,3.6185,3.6255,3.6163,3.5867,3.5255,3.46,3.4059,3.3419,3.317,3.3881,3.3545,3.3772,3.5122,3.4178,3.3994,3.5576,3.5087,3.474,3.5005,3.5161,3.5224,3.5115,3.5588,3.5932,3.5975,3.6019,3.6019,3.6019,3.6019,3.6044,3.6146,3.607,3.6044,3.6146,3.607,3.6019,1.7791,1.7822,1.7876,1.9035,1.9416,1.9475,0.0,0.0,0.0,0.0,0.0,0.0,0.0,0.0,0.0,0.0,0.0,0.0,0.0,0.0,0.0,0.0,0.0,3.1627,3.0288,3.1547,3.2245,3.1783,3.1813,3.227,3.3171,3.2579,3.2474,3.3019,3.2465,3.2252,3.2448,3.2613,3.2678,3.2678,3.2613,3.2653,3.2718,3.2031,3.1859,3.2069,0.0,3.1437,3.2116,3.1274,3.1661,3.2774,3.2095,3.2307,3.3061,3.3981,3.4451,3.4528,3.3847,3.4168,3.4783,3.4047,3.4803,3.5992,3.5994,3.5971,3.5986,3.5973,3.5929,3.6072,3.6858,3.653,3.6157,3.6882,3.6501,3.5978,3.6021,3.605,3.5804,3.4989,3.4733,3.4358,3.3542,3.3319,3.3477,3.4139,3.4691,3.5459,3.6796,3.6285,3.6118,3.6719,3.6092,3.5268,3.4333,3.5068,3.5345,3.488,3.5161,3.5515,3.5975,3.6019,3.6019,3.6019,3.6019,3.63,3.6932,3.6283,3.63,3.6932,3.6283,3.6019,1.6594,1.6657,1.673,1.7821,1.8499,1.9473,0.0,0.0,0.0,0.0,0.0,0.0,0.0,0.0,0.0,0.0,0.0,0.0,2.649,2.6387,2.6798,0.0,0.0,3.0113,2.9899,3.0624,3.1038,3.0764,3.0803,3.1057,3.1564,3.1289,3.113,3.1201,3.0906,3.0637,3.0324,3.0518,3.0921,3.1468,3.1146,3.1235,3.1701,3.1013,3.1217,3.2082,0.0,3.1136,3.1507,3.1186,3.1503,3.2154,3.1873,3.2019,3.2503,3.3401,3.3464,3.3177,3.3738,3.3926,3.39,3.3932,3.4484,3.523,3.5703,3.5566,3.524,3.5246,3.5584,3.6052,3.6484,3.6308,3.6094,3.6504,3.6288,3.5994,3.5992,3.6009,3.5768,3.4969,3.4838,3.4641,3.4103,3.3832,3.4166,3.5489,3.5476,3.5846,3.7275,3.6632,3.6173,3.6555,3.6019,3.5529,3.5224,3.5374,3.5436,3.5237,3.5571,3.5941,3.6276,3.6276,3.6276,3.6377,3.6377,3.6508,3.6767,3.6861,3.6801,3.6663,3.6792,3.681,1.5662,1.5766,1.5888,1.7574,0.0,0.0,0.0,0.0,0.0,0.0,0.0,0.0,0.0,0.0,0.0,0.0,2.2953,2.4322,2.45,2.5349,2.6533,2.804,2.8052,2.8363,2.9413,2.9361,2.9198,2.9082,2.9136,2.9337,2.9787,2.9639,2.9558,2.9557,2.9404,2.9137,2.8749,2.8607,2.9152,3.0309,2.9832,2.9927,3.0489,3.0034,3.0572,3.1781,3.0978,3.0763,3.0982,3.0906,3.1096,3.1443,3.1352,3.1499,3.1813,3.2492,3.2358,3.199,3.3325,3.3518,3.3283,3.3886,3.4369,3.4833,3.5503,3.5302,3.486,3.4857,3.5373,3.5893,3.572,3.5827,3.5989,3.5971,3.5971,3.5971,3.5973,3.5956,3.5775,3.5153,3.5026,3.4922,3.4694,3.4393,3.4757,3.6405,3.6053,3.6062,3.7456,3.6799,3.6175,3.6235,3.5857,3.5712,3.5924,3.5599,3.5419,3.5526,3.5985,3.6343,3.6544,3.6544,3.6602,3.6702,3.6702,3.673,3.6821,3.7203,3.7143,3.6679,3.7241,3.7517,1.5588,1.4923,1.5024,1.9502,1.9848,0.0,0.0,0.0,0.0,0.0,0.0,0.0,0.0,0.0,0.0,0.0,2.3753,2.5468,2.7782,0.0,2.8203,2.911,2.8545,2.7859,2.7276,2.6607,2.601,2.5501,2.5477,2.6219,2.7906,2.7278,2.7553,2.9001,2.8317,2.7968,2.7982,2.7299,2.7716,2.9222,2.9228,2.9267,2.9326,2.9336,2.9531,2.9776,2.8965,2.916,3.0041,2.9296,2.9916,3.1241,3.0494,3.0748,3.1552,3.1667,3.1742,3.1826,3.1942,3.2474,3.313,3.3169,3.4293,3.5611,3.567,3.565,3.5618,3.5627,3.5663,3.5551,3.4886,3.531,3.5916,3.5916,3.591,3.5903,3.5903,3.5861,3.5699,3.5263,3.5072,3.494,3.4807,3.4644,3.4937,3.6085,3.6472,3.6885,3.7533,3.765,3.7228,3.6141,3.6214,3.6068,3.5487,3.5419,3.5419,3.5419,3.5864,3.6301,3.6661,3.6702,3.6702,3.6702,3.6702,3.7032,3.7686,3.7085,3.7061,3.7686,3.7637,3.7611,1.4172,1.4638,1.5491,1.6814,0.0,0.0,0.0,0.0,0.0,0.0,0.0,0.0,0.0,0.0,0.0,2.2607,2.3727,2.5009,2.6052,2.6096,2.6153,2.6475,2.6236,2.6133,2.6304,2.6065,2.6011,2.6275,2.6293,2.6564,2.7276,2.7002,2.6974,2.7238,2.74,2.735,2.7095,2.6813,2.7191,2.8228,2.758,2.8118,2.9682,2.8812,2.9031,2.9965,2.8725,2.8727,2.9495,2.883,2.9538,3.1047,3.0896,3.1066,3.1374,3.1436,3.1167,3.0893,3.1975,3.2244,3.2281,3.3327,3.4129,3.4821,3.5354,3.5152,3.4784,3.4816,3.4836,3.4914,3.5259,3.558,3.5844,3.5836,3.583,3.5844,3.5844,3.5827,3.5732,3.549,3.5512,3.5569,3.5611,3.5479,3.5943,3.753,3.7288,3.7168,3.7753,3.754,3.6939,3.5992,3.5977,3.5904,3.5424,3.5599,3.5732,3.5732,3.5968,3.6199,3.6444,3.6444,3.6585,3.6869,3.6869,3.6968,3.7184,3.7393,3.7596,3.7798,3.8243,3.8469,1.3597,1.4292,1.5394,0.0,0.0,0.0,0.0,0.0,0.0,0.0,0.0,0.0,0.0,0.0,0.0,0.0,2.3262,2.4205,2.4506,2.4601,2.4618,2.454,2.4337,2.4388,2.4879,2.4898,2.5069,2.5561,2.5814,2.605,2.6353,2.637,2.6247,2.6031,2.6513,2.6653,2.6377,2.6115,2.6406,2.721,2.5976,2.6774,2.9344,2.8135,2.8384,2.9706,2.8178,2.817,2.9159,2.8278,2.8877,3.0396,3.0563,3.0653,3.0671,3.0741,3.043,3.0152,3.1359,3.1817,3.2025,3.2905,3.3585,3.417,3.4774,3.4581,3.4238,3.4526,3.4615,3.4786,3.5485,3.5697,3.5741,3.5764,3.5764,3.5764,3.5772,3.5771,3.5748,3.5642,3.5707,3.5855,3.6119,3.6031,3.6462,3.7937,3.7594,3.7261,3.7507,3.7222,3.6717,3.5922,3.5705,3.5571,3.5588,3.5661,3.5776,3.589,3.5994,3.6139,3.6343,3.6343,3.6568,3.6987,3.6987,3.693,3.6851,3.7411,3.7633,3.7574,3.8562,3.905,1.4174,1.3758,1.4438,0.0,0.0,0.0,0.0,0.0,0.0,0.0,0.0,0.0,0.0,0.0,0.0,2.1736,2.2498,2.3217,2.3867,2.4161,2.4193,2.3999,2.3336,2.2891,2.2891,2.2717,2.2589,2.2638,2.3226,2.4013,2.4942,2.501,2.5179,2.5559,2.5609,2.5673,2.5877,2.5094,2.5197,2.616,2.4568,2.5272,2.7946,2.7219,2.7546,2.8603,2.6991,2.7336,2.8956,2.7429,2.7786,2.9275,2.923,2.923,2.9314,2.9373,2.9532,2.9713,2.9784,3.1067,3.2535,3.169,3.2584,3.3991,3.3991,3.4059,3.4261,3.5066,3.5296,3.5296,3.5379,3.5483,3.5591,3.5679,3.5708,3.5689,3.5697,3.5698,3.5704,3.5704,3.5597,3.5657,3.6209,3.6186,3.6308,3.6917,3.7352,3.7326,3.6606,3.681,3.67,3.5975,3.5316,3.5195,3.5864,3.5616,3.5543,3.5847,3.5907,3.6097,3.6502,3.6502,3.6667,3.6987,3.6987,3.6987,3.6987,3.6987,3.6987,3.7023,3.8426,3.9083,1.405,1.4775,0.0,0.0,0.0,0.0,0.0,0.0,0.0,0.0,0.0,0.0,0.0,0.0,0.0,2.1171,2.1453,2.1887,2.2146,2.2083,2.2035,2.1972,2.1793,2.1858,2.2508,2.2798,2.3181,2.3754,2.4378,2.4841,2.5125,2.5142,2.4834,2.4149,2.4626,2.4547,2.3806,2.4106,2.4738,2.5624,2.4675,2.5176,2.6933,2.6141,2.6631,2.8058,2.653,2.6597,2.7743,2.7456,2.7705,2.8294,2.8886,2.9169,2.923,2.9251,2.9355,2.9569,3.0168,3.0791,3.1411,3.1713,3.26,3.3545,3.3724,3.4194,3.4628,3.4485,3.4453,3.4453,3.4486,3.4524,3.4706,3.5335,3.5526,3.557,3.5623,3.5623,3.5643,3.5684,3.5291,3.5266,3.6323,3.6132,3.6355,3.795,3.775,3.7233,3.6788,3.6624,3.6533,3.634,3.6088,3.595,3.5907,3.6037,3.5924,3.5487,3.5968,3.6207,3.6097,3.636,3.6544,3.6667,3.6869,3.6987,3.6987,3.6987,3.7251,3.7777,3.8193,3.8421,1.4319,0.0,0.0,0.0,0.0,0.0,0.0,0.0,0.0,0.0,0.0,0.0,2.0835,2.1657,0.0,2.077,2.0814,2.1039,2.1039,2.1023,2.1038,2.1259,2.1004,2.1292,2.233,2.2631,2.308,2.3834,2.4492,2.4887,2.495,2.495,2.4557,2.3677,2.3842,2.364,2.2981,2.3293,2.3868,2.4663,2.4379,2.4818,2.5887,2.5668,2.6353,2.7707,2.6896,2.6579,2.6652,2.7181,2.7464,2.7597,2.8109,2.8534,2.8874,2.892,2.9034,2.9222,2.9746,3.0286,3.0747,3.0897,3.1555,3.235,3.2506,3.292,3.3317,3.3342,3.3353,3.3353,3.3369,3.3385,3.3738,3.5086,3.543,3.5476,3.5515,3.5521,3.5437,3.5164,3.5053,3.5073,3.5281,3.5303,3.5797,3.7288,3.7453,3.7279,3.6935,3.6597,3.6416,3.6464,3.6316,3.6165,3.6105,3.6165,3.6097,3.5739,3.5985,3.6139,3.6122,3.6326,3.6591,3.693,3.6952,3.6992,3.7105,3.7105,3.7294,3.7672,3.797,3.8111,1.4773,0.0,0.0,0.0,0.0,0.0,0.0,0.0,0.0,0.0,0.0,0.0,2.0827,2.0744,2.0677,2.0514,2.053,2.0512,2.0444,2.0579,2.0863,2.1279,2.0798,2.0938,2.2205,2.224,2.2486,2.3161,2.3836,2.4287,2.4502,2.4502,2.4295,2.386,2.3296,2.302,2.3048,2.2683,2.2882,2.3632,2.3901,2.4381,2.5092,2.5641,2.6458,2.7361,2.7637,2.6949,2.5711,2.6649,2.7056,2.7107,2.7146,2.7655,2.8353,2.8458,2.8626,2.879,2.8837,2.9544,3.032,2.9574,2.9973,3.0727,3.0768,3.0883,3.1128,3.1864,3.2071,3.209,3.2166,3.2184,3.2691,3.4642,3.5177,3.5268,3.5345,3.5364,3.5128,3.4321,3.4758,3.4855,3.3613,3.3999,3.4769,3.5577,3.6817,3.754,3.7223,3.6799,3.6498,3.6539,3.6232,3.6147,3.6457,3.6232,3.6147,3.6416,3.6114,3.6131,3.6498,3.6457,3.6799,3.754,3.7167,3.7091,3.7334,3.7334,3.722,3.7027,3.773,3.8006,0.0,1.5496,0.0,0.0,0.0,0.0,0.0,0.0,0.0,0.0,0.0,2.0697,2.0663,2.0712,2.0728,2.0597,2.0308,2.008,1.998,1.9904,1.9908,2.0008,1.9867,2.0128,2.0948,2.1178,2.1676,2.2701,2.315,2.3465,2.3809,2.3809,2.3633,2.3277,2.3163,2.2925,2.2629,2.2654,2.3032,2.3771,2.4188,2.4792,2.5566,2.5428,2.5661,2.6179,2.6454,2.6063,2.53,2.6114,2.6475,2.6584,2.7353,2.7802,2.8027,2.8255,2.844,2.8551,2.8576,2.8809,2.9082,2.8918,2.9441,3.0221,3.0476,3.1027,3.148,3.1259,3.1167,3.1167,3.1205,3.1242,3.156,3.2691,3.3502,3.4201,3.4986,3.5083,3.4816,3.417,3.3647,3.3315,3.3389,3.3085,3.3501,3.555,3.7124,3.8003,3.7739,3.7468,3.7395,3.7774,3.7432,3.719,3.7266,3.719,3.7076,3.6821,3.7017,3.7152,3.7266,3.696,3.6917,3.7223,3.7374,3.7466,3.7558,3.7558,3.7447,3.722,3.7397,3.739,0.0,0.0,0.0,0.0,0.0,0.0,0.0,0.0,0.0,0.0,1.9975,2.0292,2.012,2.0189,2.0204,1.9929,1.9747,1.9632,1.9566,1.9508,1.9583,1.993,1.9694,1.9834,2.0646,2.0564,2.0874,2.1887,2.2149,2.2467,2.295,2.3098,2.3142,2.3031,2.2817,2.2611,2.2394,2.2294,2.2578,2.3335,2.3784,2.4505,2.5513,2.5631,2.5798,2.6034,2.6311,2.5994,2.5356,2.5932,2.6194,2.6294,2.6824,2.7327,2.773,2.7864,2.7961,2.8083,2.8165,2.8299,2.843,2.8594,2.8985,2.9411,2.9627,2.9991,3.0254,3.0009,2.9965,3.0008,3.0029,3.009,3.0354,3.1236,3.2221,3.3109,3.3636,3.3694,3.3448,3.2749,3.2575,3.2335,3.1806,3.1948,3.2775,3.4745,3.6231,3.7364,3.7962,3.7739,3.7578,3.7845,3.7632,3.7505,3.7505,3.7303,3.7208,3.7208,3.7017,3.7094,3.7487,3.7321,3.7339,3.7613,3.7595,3.7613,3.7739,3.7739,3.7631,3.7447,3.7447,3.7334,0.0,0.0,0.0,0.0,0.0,0.0,0.0,0.0,0.0,0.0,1.9472,1.9839,1.9515,1.9566,1.953,1.9176,1.9176,1.9228,1.9213,1.9191,1.9418,1.9996,1.9549,1.9551,2.0508,2.0026,2.0117,2.1175,2.1215,2.1482,2.2239,2.2466,2.2649,2.2754,2.2425,2.2293,2.2379,2.1939,2.2103,2.2885,2.3279,2.4068,2.5162,2.568,2.601,2.617,2.6453,2.6202,2.5647,2.5936,2.6124,2.6237,2.6299,2.677,2.7434,2.7465,2.7539,2.7612,2.7771,2.7926,2.8047,2.8344,2.8492,2.8576,2.8669,2.8628,2.8603,2.8821,2.8837,2.8833,2.9026,2.913,2.9363,3.0072,3.1003,3.1845,3.2166,3.2241,3.1977,3.1184,3.1466,3.1426,3.0108,3.0984,3.238,3.3856,3.5178,3.6536,3.8012,3.7845,3.7632,3.7632,3.7632,3.7632,3.7632,3.7339,3.7246,3.7596,3.6995,3.6917,3.7596,3.7632,3.7792,3.8192,3.781,3.7739,3.7934,3.7934,3.7864,3.7667,3.7667,3.7558,0.0,0.0,0.0,0.0,0.0,0.0,0.0,0.0,0.0,0.0,1.8974,1.9281,1.9244,1.9369,1.9369,1.9207,1.9101,1.9017,1.8874,1.8812,1.8778,1.8747,1.857,1.8663,1.9266,1.9002,1.9412,2.1027,2.0882,2.1098,2.21,2.2175,2.2175,2.2221,2.2136,2.2292,2.2624,2.2033,2.2221,2.323,2.3576,2.4028,2.4517,2.4599,2.5153,2.6026,2.6082,2.6104,2.6127,2.6215,2.6284,2.6319,2.6721,2.6952,2.7103,2.7386,2.7496,2.7526,2.7539,2.7612,2.7683,2.773,2.7886,2.812,2.8255,2.7962,2.7774,2.8585,2.8346,2.8031,2.8727,2.8975,2.9058,2.9168,2.937,2.9993,3.1686,3.1942,3.1654,3.0977,3.0359,2.9925,2.9839,3.0926,3.2315,3.3794,3.5151,3.6522,3.8012,3.814,3.8106,3.8106,3.8106,3.8106,3.8106,3.8072,3.8054,3.8106,3.802,3.7985,3.8106,3.8106,3.814,3.8192,3.814,3.8106,3.8158,3.8158,3.8056,3.7864,3.7864,3.7739,0.0,0.0,0.0,0.0,0.0,0.0,0.0,0.0,0.0,1.8638,1.8928,1.9237,1.897,1.8912,1.8874,1.8822,1.8683,1.8606,1.8514,1.8475,1.8503,1.8517,1.8347,1.8232,1.8208,1.8251,1.8623,1.9522,1.9813,2.0298,2.1099,2.1369,2.1465,2.1465,2.1609,2.1799,2.1988,2.1676,2.1921,2.2678,2.3127,2.3551,2.4078,2.412,2.4639,2.5513,2.5584,2.5733,2.5937,2.601,2.6099,2.6154,2.6452,2.6572,2.6624,2.6859,2.6925,2.6957,2.707,2.7149,2.7195,2.7365,2.7547,2.759,2.7293,2.7094,2.7012,2.7083,2.6886,2.6862,2.7869,2.8093,2.8202,2.8795,2.8975,2.9228,3.0132,3.0342,3.025,2.9946,2.9655,2.9453,2.9493,3.0035,3.1243,3.3546,3.4399,3.5605,3.7972,3.8241,3.8241,3.8241,3.8241,3.8241,3.8192,3.7967,3.7933,3.8174,3.7967,3.7933,3.8192,3.8192,3.8192,3.8192,3.8192,3.8192,3.8192,3.8192,3.8158,3.809,3.809,3.7969,0.0,0.0,0.0,0.0,0.0,0.0,0.0,0.0,1.9037,0.0,1.9136,1.9487,1.8987,1.8796,1.8703,1.8703,1.853,1.8287,1.8175,1.8152,1.8166,1.8069,1.7935,1.7693,1.7269,1.7579,1.7939,1.8342,1.8887,1.9532,2.0181,2.0547,2.0696,2.0696,2.0881,2.1028,2.1126,2.1334,2.1684,2.2091,2.2586,2.2951,2.3284,2.3385,2.3727,2.4257,2.487,2.5301,2.5551,2.5696,2.5807,2.5937,2.6079,2.6187,2.6277,2.6399,2.6485,2.652,2.6674,2.6742,2.6724,2.6813,2.6885,2.6853,2.6225,2.6048,2.6002,2.5788,2.5608,2.5722,2.7006,2.7283,2.7488,2.8494,2.8791,2.8881,2.9017,2.9089,2.9178,2.92,2.924,2.9262,2.9262,2.9307,3.0224,3.2832,3.3536,3.475,3.7405,3.8081,3.8307,3.8322,3.8322,3.8307,3.8274,3.7931,3.7862,3.8207,3.7915,3.7827,3.8192,3.8192,3.8192,3.8192,3.8192,3.8192,3.8192,3.8192,3.8192,3.8192,3.8192,3.8124,0.0,0.0,0.0,0.0,0.0,0.0,0.0,0.0,0.0,0.0,1.9501,2.0161,1.9515,1.9307,1.9265,1.9265,1.8822,1.8311,1.7787,1.78,1.7601,1.6986,1.6837,1.6723,1.6565,1.6891,1.7451,1.8166,1.8596,1.9133,1.9773,1.985,1.985,1.985,1.9901,2.0055,2.0472,2.1215,2.1664,2.1841,2.2217,2.2241,2.1903,2.1903,2.1882,2.1967,2.3838,2.4831,2.513,2.5278,2.5454,2.5738,2.5937,2.6079,2.6203,2.6277,2.6382,2.6485,2.652,2.652,2.6402,2.5715,2.5675,2.5788,2.5158,2.4629,2.4419,2.5367,2.5057,2.4827,2.6428,2.696,2.733,2.8129,2.8536,2.8767,2.9044,2.9089,2.9112,2.9178,2.92,2.9218,2.9218,2.92,2.9757,3.1377,3.2812,3.4303,3.6008,3.7442,3.8322,3.8401,3.8382,3.8382,3.8382,3.835,3.8336,3.8307,3.8274,3.8241,3.8192,3.8192,3.8192,3.8192,3.8192,3.8192,3.8192,3.8192,3.8192,3.8192,3.8192,3.8192,0.0,0.0,0.0,0.0,0.0,0.0,0.0,1.7949,1.9019,1.8419,1.9029,1.9656,1.9453,1.9666,1.9851,1.9766,1.935,1.895,1.8574,1.814,1.7751,1.7357,1.6853,1.6509,1.6367,1.6987,1.7506,1.7786,1.8672,1.9315,1.9552,1.9604,1.9604,1.9565,1.9565,1.9617,1.9772,2.0372,2.0809,2.1055,2.1602,2.1932,2.2045,2.2226,2.2134,2.1838,2.3078,2.3819,2.4108,2.4642,2.5029,2.5323,2.5508,2.5696,2.5901,2.599,2.6099,2.617,2.617,2.5924,2.5562,2.5295,2.5012,2.465,2.3938,2.3738,2.3708,2.3719,2.3823,2.4222,2.5588,2.6267,2.6831,2.7822,2.8237,2.8466,2.8619,2.8815,2.8998,2.9062,2.9108,2.9152,2.9152,2.9156,2.9876,3.1897,3.2653,3.3925,3.6547,3.7323,3.7867,3.8423,3.8478,3.8245,3.7671,3.8091,3.8182,3.7608,3.8049,3.8307,3.8336,3.8241,3.8225,3.8274,3.8207,3.8192,3.8192,3.8192,3.8192,3.8192,3.8192,3.8192,0.0,0.0,0.0,0.0,0.0,0.0,0.0,0.0,1.7959,1.8201,1.8753,1.9252,1.9296,1.9658,1.9897,1.9765,1.9306,1.8799,1.8343,1.7824,1.7428,1.728,1.6834,1.6552,1.6679,1.735,1.7787,1.7812,1.87,0.0,1.9263,1.9356,1.9356,1.9263,1.9263,1.9263,1.9263,1.9772,2.0118,2.0396,2.0855,2.1301,2.163,2.171,2.1437,2.0984,2.1845,2.2458,2.2994,2.3958,2.4449,2.4524,2.4973,2.5285,2.546,2.5642,2.5644,2.5504,2.5576,2.5335,2.4942,2.448,2.4281,2.3978,2.3006,2.3009,2.3304,2.2965,2.3329,2.4108,2.5253,2.6092,2.6817,2.7659,2.8017,2.8174,2.8344,2.8619,2.8858,2.8952,2.8998,2.9044,2.9044,2.9089,2.9663,3.1184,3.209,3.3436,3.5852,3.6581,3.7211,3.8065,3.8138,3.7937,3.7363,3.8039,3.8227,3.7666,3.8109,3.8368,3.8382,3.8303,3.8274,3.8307,3.8241,3.8207,3.8192,3.8192,3.8192,3.8192,3.8192,3.8192,0.0,0.0,0.0,0.0,0.0,0.0,1.4616,0.0,1.651,1.7907,1.8643,1.9031,1.9031,1.9285,1.9356,1.9189,1.8562,1.7836,1.7038,1.6757,1.6584,1.6584,1.6618,1.681,1.7339,1.7869,1.8181,1.8205,1.8698,1.8987,1.8987,1.8987,1.8987,1.8987,1.8987,1.8987,1.8987,1.9408,1.9708,1.9991,2.0083,2.0261,2.0495,2.0168,1.9723,1.928,2.0119,2.0944,2.1759,2.3292,2.3682,2.3427,2.4437,2.4863,2.4958,2.5246,2.5003,2.4535,2.4746,2.4783,2.4558,2.3307,2.3451,2.3797,2.2332,2.2458,2.3103,2.3194,2.3731,2.4521,2.5407,2.6426,2.7276,2.7672,2.7789,2.7904,2.8291,2.8543,2.8718,2.8858,2.8905,2.8905,2.8994,2.8994,2.9021,2.9115,3.1045,3.2822,3.3784,3.5173,3.6446,3.7379,3.747,3.747,3.7422,3.8193,3.8603,3.8436,3.8473,3.8478,3.8415,3.8415,3.8368,3.8289,3.8307,3.8274,3.8192,3.8192,3.8192,3.8192,3.8192,3.8192,1.0633,0.0,0.0,0.0,0.0,0.0,0.0,0.0,0.0,1.5932,1.6926,1.7811,1.7686,1.7948,1.8118,1.7881,1.8122,1.8134,1.7672,1.7134,1.6711,1.663,1.6248,1.6212,1.6786,1.7327,1.7796,0.0,1.8698,1.8987,1.8987,1.8987,1.8987,1.8987,1.8987,1.8987,1.8987,1.921,1.9473,1.9695,1.9851,2.0176,2.0691,2.0248,1.9899,1.9663,2.0088,2.0203,2.0165,2.1968,2.3001,2.3553,2.3945,2.4395,2.4855,2.4934,2.4738,2.4507,2.5061,2.4668,2.388,2.3521,2.3341,2.3054,2.2109,2.2415,2.3103,2.3103,2.4041,2.5229,2.6101,2.6656,2.7007,2.712,2.7355,2.76,2.7719,2.7943,2.8219,2.8543,2.8644,2.8694,2.8718,2.8881,2.9196,2.9813,3.0925,3.2283,3.3907,3.4982,3.5898,3.6758,3.685,3.6528,3.5752,3.7,3.7569,3.6953,3.7918,3.8559,3.8627,3.8465,3.8382,3.8368,3.8322,3.8274,3.8192,3.8192,3.8192,3.8192,3.8192,3.8192,0.0,0.0,0.0,0.0,0.0,0.0,1.3361,1.4487,1.5254,0.0,1.6466,1.7267,1.5399,1.6612,1.7492,1.6273,1.6695,1.7189,1.7122,1.6611,1.6308,1.6489,1.625,1.6358,1.7207,1.7568,1.7965,1.8494,1.8819,1.8987,1.8987,1.8782,1.8758,1.8987,1.8987,1.8987,1.8987,1.9052,1.921,1.9408,1.9521,1.9848,2.0231,2.0047,1.9746,1.941,1.9582,1.9612,1.9656,2.0855,2.1946,2.2892,2.3419,2.3979,2.4461,2.4287,2.4027,2.3791,2.3991,2.3758,2.3365,2.2817,2.2834,2.2948,2.1991,2.228,2.3019,2.3381,2.453,2.5646,2.5598,2.6101,2.659,2.6353,2.6751,2.7198,2.7355,2.7461,2.7683,2.8192,2.8422,2.8518,2.8492,2.8743,2.9107,2.9504,3.0335,3.1417,3.2846,3.345,3.4211,3.5453,3.5603,3.5528,3.5298,3.6426,3.7063,3.6915,3.7342,3.7766,3.8175,3.8083,3.8003,3.7953,3.8204,3.8289,3.8192,3.8192,3.8192,3.8192,3.8192,3.8192,0.0,0.0,0.0,0.0,0.0,0.0,1.4012,1.3991,1.3519,0.0,1.6219,1.6603,1.2874,1.506,1.6696,1.4479,1.4737,1.5416,1.5844,1.5691,1.5678,1.6231,1.6278,1.6717,1.7879,1.7975,1.819,1.8718,1.8814,1.8874,1.8934,1.849,1.8506,1.8975,1.8987,1.8987,1.8987,1.8987,1.9052,1.917,1.9258,1.9353,1.9513,1.9561,1.93,1.8803,1.8808,1.9137,1.9727,2.0014,2.0838,2.1916,2.2893,2.3566,2.3849,2.3477,2.311,2.2749,2.2343,2.2556,2.2897,2.1762,2.2247,2.3075,2.1936,2.2097,2.2915,2.3836,2.5077,2.5789,2.4531,2.5146,2.5947,2.5547,2.605,2.669,2.7068,2.7087,2.7184,2.7783,2.811,2.8291,2.8255,2.8594,2.8834,2.8743,2.9572,3.0471,3.1207,3.1393,3.2123,3.3905,3.4089,3.45,3.5472,3.613,3.6824,3.7503,3.6805,3.6683,3.7411,3.7419,3.7367,3.7351,3.8045,3.8336,3.8225,3.8192,3.8192,3.8192,3.8192,3.8192,0.0,0.0,0.0,0.0,0.0,0.0,1.1178,1.189,1.2365,0.0,1.2698,1.3437,1.2269,1.2771,1.3107,1.2415,1.3123,1.4124,1.5274,1.548,1.5549,1.5643,1.5666,1.5914,1.6455,1.6514,1.6676,1.7128,1.7587,1.8113,1.8643,1.8691,1.8797,1.8987,1.8987,1.8987,1.8987,1.8987,1.8987,1.9052,1.9036,1.9236,1.9571,1.8942,1.8754,1.8914,1.834,1.8522,1.9181,1.9674,2.0782,2.2154,2.2452,2.2859,2.3231,2.2957,2.2629,2.2368,2.265,2.2512,2.22,2.1947,2.2212,2.2426,2.1616,2.2003,2.2981,2.4396,2.5041,2.5259,2.4961,2.4713,2.4647,2.5146,2.5546,2.5996,2.6673,2.6892,2.7055,2.7244,2.7535,2.7829,2.8027,2.8344,2.8644,2.8815,2.9572,3.0279,3.0701,3.1315,3.2168,3.3354,3.349,3.3833,3.4647,3.5435,3.5937,3.6105,3.6521,3.6851,3.7019,3.6853,3.7026,3.7608,3.8076,3.8307,3.8274,3.8225,3.8192,3.8192,3.8192,3.8192,0.0,0.0,0.0,1.1204,0.0,0.0,0.0,1.1656,1.1497,1.0614,1.1978,1.2594,1.0278,1.1536,1.247,1.1217,1.1815,1.2742,1.3586,1.4582,1.5232,1.539,1.5289,1.5395,1.5856,1.5961,1.6169,1.6677,1.6711,1.7097,1.7979,1.7833,1.799,1.8667,1.8679,1.8732,1.8774,1.8893,1.8893,1.8893,1.9146,1.9273,1.9131,1.8662,1.8408,1.828,1.7663,1.7889,1.8663,1.896,1.9816,2.1074,2.1654,2.2314,2.2878,2.1828,2.162,2.1926,2.2071,2.2108,2.2164,2.2394,2.2773,2.2975,2.2003,2.2135,2.2704,2.3178,2.3869,2.4331,2.3653,2.3751,2.4049,2.4032,2.4477,2.5076,2.5866,2.6184,2.6384,2.6889,2.7152,2.7386,2.773,2.8055,2.837,2.8644,2.9066,2.9456,2.9757,3.0142,3.08,3.1833,3.2399,3.3089,3.4019,3.4831,3.5466,3.5861,3.5791,3.5893,3.6264,3.6184,3.6447,3.7091,3.8051,3.8277,3.7707,3.8059,3.8192,3.8192,3.8192,3.8192,0.0,0.0,0.0,0.0,0.0,1.0551,0.0,0.0,0.0,1.0192,1.1579,0.0,0.0,0.0,0.0,0.0,0.0,0.0,0.0,1.3023,0.0,1.4846,1.4562,1.4597,1.533,1.5468,1.5731,1.6341,1.5938,1.6109,1.7123,1.6791,1.7099,1.8182,1.8216,1.8359,1.856,1.8679,1.8744,1.8798,1.9198,1.9175,1.8694,1.8555,1.824,1.7784,1.7268,1.7514,1.8275,1.8424,1.8963,1.9877,2.067,2.1634,2.2334,2.0843,2.0852,2.1575,2.1424,2.1697,2.2255,2.2645,2.3222,2.3533,2.2585,2.2551,2.2769,2.228,2.308,2.3786,2.2498,2.2959,2.3636,2.304,2.3418,2.4114,2.4962,2.5329,2.5729,2.6503,2.6791,2.704,2.7496,2.7789,2.8055,2.8414,2.8543,2.8694,2.8947,2.8952,2.9388,3.048,3.1506,3.2538,3.3621,3.4471,3.523,3.5894,3.5113,3.4936,3.5574,3.5851,3.618,3.6586,3.8127,3.8446,3.7528,3.8091,3.8289,3.8192,3.8192,3.8192,0.0,0.0,0.0,0.0,1.1431,0.0,0.0,0.0,0.9759,0.905,0.0,0.0,0.0,0.0,0.0,0.0,0.0,0.0,0.9159,1.0509,1.2047,1.3378,1.2704,1.2747,1.4218,1.4168,1.4371,1.5197,1.5018,1.5312,1.6379,1.6457,1.6837,1.7502,1.7607,1.7932,1.841,1.8572,1.8614,1.8614,1.8667,1.875,1.8797,1.8592,1.8511,1.8561,1.7827,1.7777,1.8258,1.879,1.9279,1.9744,1.9905,2.0423,2.1091,2.0826,2.1125,2.1672,2.1514,2.1614,2.1831,2.2156,2.2655,2.3088,2.3016,2.3538,2.418,2.41,2.4395,2.4523,2.3703,2.3243,2.3007,2.2907,2.3019,2.3331,2.408,2.4927,2.5545,2.5725,2.6367,2.704,2.7434,2.763,2.7876,2.8255,2.8484,2.8662,2.881,2.8881,2.9349,3.048,3.1506,3.2538,3.3621,3.4604,3.5196,3.531,3.5198,3.5162,3.5257,3.6463,3.7052,3.6958,3.8478,3.9133,3.8961,3.8934,3.867,3.8192,3.8192,3.8192,0.0,0.0,0.0,0.0,0.0,0.0,0.9313,0.0,0.945,0.0,0.0,0.0,0.0,0.0,0.0,0.0,0.8157,0.0,0.0,0.0,0.938,0.0,0.0,0.0,1.4553,1.415,1.4218,1.541,1.4687,1.4371,1.4855,1.5394,1.597,1.6553,1.6961,1.7274,1.7596,1.8097,1.829,1.8182,1.841,1.8518,1.8572,1.8135,1.8103,1.827,1.7642,1.7768,1.8377,1.8656,1.9152,1.97,1.9731,2.0379,2.1217,2.0564,2.0723,2.1274,2.1584,2.1708,2.1892,2.2832,2.3163,2.3224,2.3262,2.3423,2.3615,2.3615,2.3758,2.3905,2.375,2.3211,2.275,2.2859,2.259,2.2521,2.3283,2.3777,2.434,2.531,2.5797,2.6349,2.7129,2.7417,2.7642,2.8073,2.8264,2.8388,2.843,2.8651,2.898,2.951,3.054,3.1612,3.2675,3.3738,3.4583,3.5168,3.5209,3.5439,3.5935,3.6974,3.7432,3.7227,3.8765,3.9207,3.8558,3.8867,3.8868,3.864,3.8603,3.8496,1.37,0.0,0.0,0.0,0.0,0.0,0.0,0.0,0.0,0.0,0.0,0.0,0.0,0.0,0.0,0.0,0.0,0.7842,0.0,0.724,0.0,0.0,0.0,0.0,0.0,1.3256,1.3292,1.4613,1.3833,1.3439,1.3854,1.4504,1.523,1.5895,1.6373,1.6746,1.7109,1.7684,1.792,1.7854,1.8139,1.8247,1.8236,1.7931,1.7967,1.8255,1.7769,1.8007,1.8806,1.8793,1.9192,1.9854,2.0016,2.0677,2.1383,2.0498,2.0574,2.1144,2.1631,2.1885,2.2221,2.3359,2.3701,2.3668,2.3787,2.3714,2.3544,2.3597,2.3722,2.3835,2.3856,2.3339,2.2867,2.3029,2.2533,2.2214,2.2806,2.3133,2.3596,2.4544,2.5209,2.5842,2.6705,2.7186,2.7569,2.7961,2.8146,2.8228,2.8246,2.8474,2.8669,2.8785,2.9793,3.0901,3.2003,3.308,3.4129,3.5146,3.5242,3.5529,3.6126,3.7158,3.764,3.749,3.9064,3.9467,3.8639,3.9096,3.9242,3.9109,3.896,3.8803,0.0,0.0,0.0,1.3506,0.0,0.0,0.0,0.0,0.8872,0.0,0.0,0.0,0.0,0.0,0.0,0.0,0.0,0.0,0.0,0.0,0.0,0.0,0.0,0.0,0.0,1.0584,1.0784,1.1951,1.2048,1.2526,1.3641,1.4155,1.4843,1.5753,1.5939,1.6494,1.749,1.7645,1.7711,1.7711,1.7854,1.7909,1.7897,1.8236,1.8602,1.8939,1.8551,1.8809,1.9458,1.9542,1.9795,2.0241,2.0898,2.1202,2.1161,2.0825,2.1068,2.1575,2.1766,2.2175,2.2756,2.3406,2.3894,2.4354,2.4815,2.4958,2.4942,2.4942,2.5059,2.507,2.4367,2.379,2.3381,2.345,2.3079,2.2718,2.2781,2.3454,2.3881,2.3214,2.4565,2.5863,2.6194,2.6926,2.7617,2.794,2.8164,2.8327,2.838,2.8458,2.8569,2.8785,2.9757,3.086,3.1999,3.308,3.4129,3.5146,3.532,3.5354,3.5248,3.6814,3.7693,3.7693,3.9394,4.0196,4.0039,4.0057,3.9826,3.9376,3.9045,3.891,0.0,0.0,1.1963,1.3277,0.0,0.0,0.0,0.0,0.0,0.0,0.0,0.0,0.0,0.0,0.0,0.0,0.0,0.0,0.0,0.0,0.0,0.0,0.0,0.0,0.0,0.0,1.2142,1.3156,1.3403,1.353,1.3518,1.4149,1.4791,1.5301,1.5662,1.6173,1.6819,1.7313,1.7534,1.7445,1.759,1.7634,1.7634,1.7744,1.7963,1.8267,1.8147,1.8424,1.8985,1.9357,1.9762,2.0237,2.0729,2.1019,2.1202,2.1192,2.1295,2.1471,2.1616,2.1983,2.2449,2.2889,2.3421,2.4051,2.4426,2.4766,2.5005,2.5005,2.5045,2.5075,2.4952,2.4436,2.3963,2.4123,2.3677,2.3128,2.2752,2.2979,2.322,2.317,2.3722,2.4654,2.6033,2.6551,2.7017,2.7747,2.8081,2.8164,2.8035,2.8228,2.8432,2.8569,2.9007,3.0045,3.1993,3.3847,3.5032,3.5386,3.5388,3.5614,3.6102,3.7152,3.796,3.8553,3.9718,4.0291,4.0234,4.0137,3.9954,3.9735,3.9526,3.9324,1.7555,1.5235,0.0,1.4126,1.2087,0.0,1.0934,0.0,1.1215,0.0,0.0,0.0,0.0,0.0,0.0,0.0,0.0,0.0,0.0,0.7065,0.0,0.0,0.0,0.0,0.0,0.0,1.1162,1.2519,1.2976,1.3101,1.296,1.3976,1.4857,1.5459,1.569,1.6142,1.6776,1.7214,1.7379,1.7278,1.7423,1.7479,1.7423,1.7534,1.7744,1.7952,1.8007,1.8321,1.8845,1.9121,1.9475,1.9837,2.0245,2.056,2.0822,2.1166,2.1375,2.1423,2.152,2.1746,2.2077,2.2618,2.3143,2.3681,2.4219,2.4605,2.4846,2.4846,2.4886,2.4982,2.51,2.4614,2.4212,2.4617,2.4071,2.3335,2.2964,2.2899,2.2839,2.2798,2.3144,2.3925,2.5512,2.6121,2.6748,2.7741,2.8053,2.8126,2.795,2.8136,2.83,2.8458,2.8543,2.9584,3.2006,3.4267,3.555,3.5495,3.5509,3.572,3.618,3.6907,3.7857,3.9025,3.9564,4.0138,4.0731,4.029,4.0036,3.9889,3.9762,3.9575]},{"header":{"parameterUnit":"m.s-1","parameterCategory":1,"la1":30.6,"la2":29.2853,"lo1":-89.7004,"lo2":-87.6739,"dy":0.0162,"dx":0.0183,"nx":112,"ny":82,"refTime":"2023-05-01T12:00:00:Z","depth":0,"parameterNumber":3,"parameterNumberName":"V-component_of_WINDS"},"data":[0.0,0.0,0.0,0.0,0.0,0.0,0.0,0.0,0.0,0.0,0.0,0.0,0.0,0.0,0.0,0.0,0.0,0.0,0.0,0.0,0.0,0.0,0.0,0.0,0.0,0.0,0.0,0.0,0.0,0.0,0.0,0.0,0.0,0.0,0.0,0.0,0.0,0.0,0.0,0.0,0.0,0.0,0.0,0.0,0.0,0.0,0.0,0.0,0.0,0.0,0.0,0.0,0.0,0.0,0.0,0.0,0.0,0.0,0.0,0.0,0.0,0.0,0.0,0.0,0.0,0.0,0.0,0.0,0.0,0.0,0.0,0.0,0.0,0.0,0.0,0.0,0.0,0.0,0.0,0.0,0.0,0.0,0.0,0.0,0.0,0.0,0.0,0.0,0.0,0.0,1.1983,1.5728,1.7324,1.8256,1.8747,1.8336,1.7226,1.5234,0.0,0.0,0.0,0.0,0.0,0.0,0.0,0.0,0.0,0.0,0.0,0.0,0.0,0.0,0.0,0.0,0.0,0.0,0.0,0.0,0.0,0.0,0.0,0.0,0.0,0.0,0.0,0.0,0.0,0.0,0.0,0.0,0.0,0.0,0.0,0.0,0.0,0.0,0.0,0.0,0.0,0.0,0.0,0.0,0.0,0.0,0.0,0.0,0.0,0.0,0.0,0.0,0.0,0.0,0.0,0.0,0.0,0.0,0.0,0.0,0.0,0.0,0.0,0.0,0.0,0.0,0.0,0.0,0.0,0.0,0.0,0.0,0.0,0.0,0.0,0.0,0.0,0.0,0.0,0.0,0.0,0.0,0.0,0.0,0.0,0.0,0.0,0.0,0.0,0.0,0.0,0.0,0.0,0.0,0.0,0.0,0.0,0.0,0.0,0.0,0.0,0.0,0.0,0.0,1.4124,1.6864,1.7748,1.8118,1.8187,1.813,1.7226,1.5234,0.0,0.0,0.0,0.0,0.0,0.0,0.0,0.0,0.0,0.0,0.0,0.0,0.0,0.0,0.0,0.0,0.0,0.0,0.0,0.0,0.0,0.0,0.0,0.0,0.0,0.0,0.0,0.0,0.0,0.0,0.0,0.0,0.0,0.0,0.0,0.0,0.0,0.0,0.0,0.0,0.0,0.0,0.0,0.0,0.0,0.0,0.0,0.0,0.0,0.0,0.0,0.0,0.0,0.0,0.0,0.0,0.0,0.0,0.0,0.0,0.0,0.0,0.0,0.0,0.0,0.0,0.0,0.0,0.0,0.0,0.0,0.0,0.0,0.0,0.0,0.0,0.0,0.0,0.0,0.0,0.0,0.0,0.0,0.0,0.0,0.0,0.0,0.0,0.0,0.0,0.0,0.0,0.0,0.0,0.0,0.0,0.0,0.0,0.0,0.0,0.0,0.0,0.0,1.3489,1.5785,1.722,1.784,1.8084,1.8084,1.8084,1.7226,1.5234,1.4867,0.0,0.0,0.0,0.0,0.0,0.0,0.0,0.0,0.0,0.0,0.0,0.0,0.0,0.0,0.0,0.0,0.0,0.0,0.0,0.0,0.0,0.0,0.0,0.0,0.0,0.0,0.0,0.0,0.0,0.0,0.0,0.0,0.0,0.0,0.0,0.0,0.0,0.0,0.0,0.0,0.0,0.0,0.0,0.0,0.0,0.0,0.0,0.0,0.0,0.0,0.0,0.0,0.0,0.0,0.0,0.0,0.0,0.0,0.0,0.0,0.0,0.0,0.0,0.0,0.0,0.0,0.0,0.0,0.0,0.0,0.0,0.0,0.0,0.0,0.0,0.0,0.0,0.0,0.0,0.0,0.0,0.0,0.0,0.0,0.0,0.0,0.0,0.0,0.0,0.0,0.0,0.0,0.0,0.0,0.0,0.0,0.0,0.0,0.0,0.0,0.0,0.0,1.458,1.6474,1.745,1.7909,1.8084,1.8084,1.8084,1.7226,1.5234,1.466,0.0,0.0,0.0,0.0,0.0,0.0,0.0,0.0,0.0,0.0,0.0,0.0,0.0,0.0,0.0,0.0,0.0,0.0,0.0,0.0,0.0,0.0,0.0,0.0,0.0,0.0,0.0,0.0,0.0,0.0,0.0,0.0,0.0,0.0,0.0,0.0,0.0,0.0,0.0,0.0,0.0,0.0,0.0,0.0,0.0,0.0,0.0,0.0,0.0,0.0,0.0,0.0,0.0,0.0,0.0,0.0,0.0,0.0,0.0,0.0,0.0,0.0,0.0,0.0,0.0,0.0,0.0,0.0,0.0,0.0,0.0,0.0,0.0,0.0,0.0,0.0,0.0,0.0,0.0,0.0,0.0,0.0,0.0,0.0,0.0,0.0,0.0,0.0,0.0,0.0,0.0,0.0,0.0,0.0,0.0,0.0,0.0,0.0,0.0,0.0,0.0,0.0,1.4109,1.5452,1.7775,1.8061,1.8084,1.8084,1.8084,1.7226,1.5234,1.466,0.0,0.0,0.0,0.0,0.0,0.0,0.0,0.0,0.0,0.0,0.0,0.0,0.0,0.0,0.0,0.0,0.0,0.0,0.0,0.0,0.0,0.0,0.0,0.0,0.0,0.0,0.0,0.0,0.0,0.0,0.0,0.0,0.0,0.0,0.0,0.0,0.0,0.0,0.0,0.0,0.0,0.0,0.0,0.0,0.0,0.0,0.0,0.0,0.0,0.0,0.0,0.0,0.0,0.0,0.0,0.0,0.0,0.0,0.0,0.0,0.0,0.0,0.0,0.0,0.0,0.0,0.0,0.0,0.0,0.0,0.0,0.0,0.0,0.0,0.0,0.0,0.0,0.0,0.0,0.0,0.0,0.0,0.0,0.0,0.0,0.0,0.0,0.0,0.0,0.0,0.0,0.0,0.0,0.0,0.0,0.0,0.0,0.0,0.0,0.0,0.0,0.0,1.5142,1.6738,0.0,1.8084,1.8084,1.8084,1.8084,1.7226,1.5234,0.0,0.0,0.0,0.0,0.0,0.0,0.0,0.0,0.0,0.0,0.0,0.0,0.0,0.0,0.0,0.0,0.0,0.0,0.0,0.0,0.0,0.0,0.0,0.0,0.0,0.0,0.0,0.0,0.0,0.0,0.0,0.0,0.0,0.0,0.0,0.0,0.0,0.0,0.0,0.0,0.0,0.0,0.0,0.0,0.0,0.0,0.0,0.0,0.0,0.0,0.0,0.0,0.0,0.0,0.0,0.0,0.0,0.0,0.0,0.0,0.0,0.0,0.0,0.0,0.0,0.0,0.0,0.0,0.0,0.0,0.0,0.0,0.0,0.0,0.0,0.0,0.0,0.0,0.0,0.0,0.0,0.0,0.0,0.0,0.0,0.0,0.0,0.0,0.0,0.0,0.0,0.0,0.0,0.0,0.0,0.0,0.0,0.0,0.0,0.0,0.0,0.0,1.357,1.5808,1.7576,0.0,1.8084,1.8084,1.8084,1.8084,1.7226,1.5234,0.0,0.0,0.0,0.0,0.0,0.0,0.0,0.0,0.0,0.0,0.0,0.0,0.0,0.0,0.0,0.0,0.0,0.0,0.0,0.0,0.0,0.0,0.0,0.0,0.0,0.0,0.0,0.0,0.0,0.0,0.0,0.0,0.0,0.0,0.0,0.0,0.0,0.0,0.0,0.0,0.0,0.0,0.0,0.0,0.0,0.0,0.0,0.0,0.0,0.0,0.0,0.0,0.0,0.0,0.0,0.0,0.0,0.0,0.0,0.0,0.0,0.0,0.0,0.0,0.0,0.0,0.0,0.0,0.0,0.0,0.0,0.0,0.0,0.0,0.0,0.0,0.0,0.0,0.0,0.0,0.0,0.0,0.0,0.0,0.0,0.0,0.0,0.0,0.0,0.0,0.0,0.0,0.0,0.0,0.0,0.0,0.0,0.0,0.0,0.0,0.0,0.0,1.3535,1.5808,1.7576,1.8027,1.8084,1.8084,1.8084,1.8084,1.7226,0.0,0.0,0.0,0.0,0.0,0.0,0.0,0.0,0.0,0.0,0.0,0.0,0.0,0.0,0.0,0.0,0.0,0.0,0.0,0.0,0.0,0.0,0.0,0.0,0.0,0.0,0.0,0.0,0.0,0.0,0.0,0.0,0.0,0.0,0.0,0.0,0.0,0.0,0.0,0.0,0.0,0.0,0.0,0.0,0.0,0.0,0.0,0.0,0.0,0.0,0.0,0.0,0.0,0.0,0.0,0.0,0.0,0.0,0.0,0.0,0.0,0.0,0.0,0.0,0.0,0.0,0.0,0.0,0.0,0.0,0.0,0.0,0.0,0.0,0.0,0.0,0.0,0.0,0.0,0.0,0.0,0.0,0.0,0.0,0.0,0.0,0.0,0.0,0.0,0.0,0.0,0.0,0.0,0.0,0.0,0.0,0.0,0.0,0.0,0.0,0.0,0.0,0.0,1.3615,1.6118,1.7978,1.8073,1.8084,1.8084,1.8084,1.8084,1.7226,1.5234,0.0,0.0,0.0,0.0,0.0,0.0,0.0,0.0,0.0,0.0,0.0,0.0,0.0,0.0,0.0,0.0,0.0,0.0,0.0,0.0,0.0,0.0,0.0,0.0,0.0,0.0,0.0,0.0,0.0,0.0,0.0,0.0,0.0,0.0,0.0,0.0,0.0,0.0,0.0,0.0,0.0,0.0,0.0,0.0,0.0,0.0,0.0,0.0,0.0,0.0,0.0,0.0,0.0,0.0,0.0,0.0,0.0,0.0,0.0,0.0,0.0,0.0,0.0,0.0,0.0,0.0,0.0,0.0,0.0,0.0,0.0,0.0,0.0,0.0,0.0,0.0,0.0,0.0,0.0,0.0,0.0,0.0,0.0,0.0,0.0,0.0,0.0,0.0,0.0,0.0,0.0,0.0,0.0,0.0,0.0,0.0,0.0,0.0,0.0,0.0,0.0,0.0,1.3925,1.6394,1.8084,1.8084,1.8084,1.8084,1.8084,1.8084,1.7502,1.6056,0.0,0.0,0.0,0.0,0.0,0.0,0.0,0.0,0.0,0.0,0.0,0.0,0.0,0.0,0.0,0.0,0.0,0.0,0.0,0.0,0.0,0.0,0.0,0.0,0.0,0.0,0.0,0.0,0.0,0.0,0.0,0.0,0.0,0.0,0.0,0.0,0.0,0.0,0.0,0.0,0.0,0.0,0.0,0.0,0.0,0.0,0.0,0.0,0.0,0.0,0.0,0.0,0.0,0.0,0.0,0.0,0.0,0.0,0.0,0.0,0.0,0.0,0.0,0.0,0.0,0.0,0.0,0.0,0.0,0.0,0.0,0.0,0.0,0.0,0.0,0.0,0.0,0.0,0.0,0.0,0.0,0.0,0.0,0.0,0.0,0.0,0.0,0.0,0.0,0.0,0.0,0.0,0.0,0.0,0.0,0.0,0.0,0.0,0.0,0.0,0.0,0.0,1.4247,1.6554,1.8084,1.8084,1.8084,1.8084,1.8084,1.8139,1.7926,1.7288,0.0,0.0,0.0,0.0,0.0,0.0,0.0,0.0,0.0,0.0,0.0,0.0,0.0,0.0,0.0,0.0,0.0,0.0,0.0,0.0,0.0,0.0,0.0,0.0,0.0,0.0,0.0,0.0,0.0,0.0,0.0,0.0,0.0,0.0,0.0,0.0,0.0,0.0,0.0,0.0,0.0,0.0,0.0,0.0,0.0,0.0,0.0,0.0,0.0,0.0,0.0,0.0,0.0,0.0,0.0,0.0,0.0,0.0,0.0,0.0,0.9144,0.0,0.0,0.0,0.0,0.0,0.0,0.0,0.0,0.0,0.0,0.0,0.0,0.0,0.0,0.0,0.0,0.0,0.0,0.0,0.0,0.0,0.0,0.0,0.0,0.0,0.0,0.0,0.0,0.0,0.0,0.0,0.0,0.0,0.0,0.0,0.0,0.0,0.0,0.0,0.0,0.0,1.3742,1.6325,1.8084,1.8084,1.8084,1.8084,1.8084,1.8422,1.8084,1.6842,1.682,0.0,0.0,0.0,0.0,0.0,0.0,0.0,0.0,0.0,0.0,0.0,0.0,0.0,0.0,0.0,0.0,0.0,0.0,0.0,0.0,0.0,0.0,0.0,0.0,0.0,0.0,0.0,0.0,0.0,0.0,0.0,0.0,0.0,0.0,0.0,0.0,0.0,0.0,0.0,0.0,0.0,0.0,0.0,0.0,0.0,0.0,0.0,0.0,0.0,0.0,0.0,0.0,0.0,0.0,0.0,0.0,0.0,0.0,0.0,0.0,0.935,0.0,0.0,0.0,0.0,0.0,0.0,0.0,0.0,0.0,0.0,0.0,0.0,0.0,0.0,0.0,0.0,0.0,0.0,0.0,0.0,0.0,0.0,0.0,0.0,0.0,0.0,0.0,0.0,0.0,0.0,0.0,0.0,0.0,0.0,0.0,0.0,0.0,0.0,0.0,0.0,1.3937,1.6417,1.8084,1.8084,1.8313,1.8356,1.8139,1.853,1.8454,1.7704,1.7677,0.0,0.0,0.0,0.0,0.0,0.0,0.0,0.0,0.0,0.0,0.0,0.0,0.0,0.0,0.0,0.0,0.0,0.0,0.0,0.0,0.0,0.0,0.0,0.0,0.0,0.0,0.0,0.0,0.0,0.0,0.0,0.0,0.0,0.0,0.0,0.0,0.0,0.0,0.0,0.0,0.0,0.0,0.0,0.0,0.0,0.0,0.0,0.0,0.0,0.0,0.0,0.0,0.0,1.1614,1.1622,1.1781,1.2131,1.2099,1.1717,1.0798,1.0119,0.9684,0.9739,0.0,0.0,0.0,0.0,0.0,0.0,0.0,0.0,0.0,0.0,0.0,0.0,0.0,0.0,0.0,0.0,0.0,0.0,0.0,0.0,0.0,0.0,0.0,0.0,1.3224,1.289,0.0,0.0,0.0,0.0,0.0,0.0,0.0,0.0,0.0,0.0,0.0,0.0,1.4339,1.675,1.8359,1.8359,1.8744,1.8799,1.8414,1.8842,1.9125,1.9071,1.8843,1.8751,0.0,0.0,0.0,0.0,0.0,0.0,0.0,0.0,0.0,0.0,0.0,0.0,0.0,0.0,0.0,0.0,0.0,0.0,0.0,0.0,0.0,0.0,0.0,0.0,0.0,0.0,0.0,0.0,0.0,0.0,0.0,0.0,0.9511,0.9908,0.0,0.0,0.0,0.0,0.0,0.0,0.0,0.0,0.0,0.0,0.0,0.0,0.0,1.1702,1.2477,1.2687,1.2838,1.2885,1.3433,1.3418,1.2893,1.3227,1.3195,1.2869,1.2539,0.0,1.0812,1.1098,0.0,0.0,0.0,0.0,0.0,0.0,0.0,0.0,0.0,0.0,0.0,0.0,0.0,0.0,0.0,0.0,0.0,0.0,0.0,0.0,0.0,0.0,1.4999,1.6634,1.6229,1.5709,0.0,1.3981,1.1714,1.3289,1.2506,0.0,0.0,0.0,0.0,0.0,0.0,0.0,1.4385,1.7369,1.9482,1.9482,1.954,1.9552,1.9482,2.0211,2.054,2.0211,2.0859,2.0499,1.8927,1.9742,0.0,0.0,0.0,0.0,0.0,0.0,0.0,0.0,0.0,0.0,0.0,0.0,0.0,0.0,0.0,0.0,0.0,0.0,0.0,0.0,0.0,0.0,0.0,0.0,0.0,0.0,0.0,0.0,0.0,1.0154,1.042,1.0292,1.0325,1.0303,0.0,0.0,0.0,0.0,0.0,0.0,0.0,0.0,0.0,1.2599,1.2779,1.3044,1.3433,1.3791,1.4061,1.4268,1.4577,1.4657,1.4546,1.4632,1.4442,1.412,1.3902,1.3276,1.2328,1.1771,1.1135,1.0447,0.0,0.0,0.0,0.0,0.9883,1.0386,1.0588,1.0726,0.0,1.0748,0.0,0.0,0.0,0.0,0.0,0.0,0.0,0.0,0.0,0.0,1.5921,1.7338,1.7482,1.7472,1.8009,1.6206,1.473,0.0,1.4083,1.2856,1.2692,0.0,0.0,0.0,0.0,1.565,1.6012,1.8196,1.9807,2.0088,2.0309,2.0367,2.0077,2.086,2.0974,2.0088,2.1371,2.1719,2.0628,2.1277,2.0701,0.0,0.0,0.0,0.0,0.0,0.0,0.0,0.0,0.0,0.0,0.0,0.0,0.0,0.0,0.0,0.0,0.0,0.0,0.0,0.0,0.0,0.0,0.0,0.0,0.0,0.0,0.0,0.0,1.0878,1.1057,1.078,1.0905,1.096,0.0,0.0,0.0,0.0,0.0,0.0,1.2385,1.2736,1.3119,1.36,1.4006,1.4303,1.4514,1.4824,1.517,1.5616,1.5757,1.5888,1.6133,1.5854,1.551,1.5024,1.4793,1.4379,1.3684,1.2531,1.1836,1.1546,1.0771,1.0841,1.1304,1.1006,1.1383,1.2076,1.2349,1.2535,1.2663,1.2349,1.1981,1.1661,1.1624,0.0,0.0,0.0,0.0,1.3153,1.4878,1.5802,1.6578,1.7697,1.8319,1.8557,1.8557,1.7688,1.6927,0.0,1.569,1.4297,1.3831,0.0,0.0,0.0,0.0,1.6968,1.7512,1.9034,2.0248,2.0582,2.0866,2.0983,2.0807,2.1378,2.1378,2.0523,2.1805,2.238,2.1907,2.2335,2.1979,2.0633,0.0,0.0,0.0,0.0,0.0,0.0,0.0,0.0,0.0,0.0,0.0,0.0,0.0,0.0,0.0,0.0,0.0,0.0,0.0,0.0,0.0,0.0,0.0,0.0,0.0,0.0,0.0,0.0,0.0,1.1414,1.1268,0.0,0.0,0.0,0.0,1.2224,1.2414,1.2882,1.3515,1.3711,1.4203,1.5046,1.5094,1.5261,1.5594,1.5799,1.6195,1.6666,1.7168,1.7309,1.7194,1.6874,1.6264,1.5462,1.5165,1.4885,1.4514,1.37,1.3349,1.3298,1.3249,1.3339,1.3493,1.3038,1.286,1.2911,1.2796,1.2755,1.2873,1.3495,1.3416,1.3173,1.3772,1.3385,0.0,0.0,1.3932,1.4756,1.5657,1.6568,1.756,1.8491,1.889,1.9034,1.9034,1.7789,1.7094,0.0,1.7491,1.6384,1.6736,0.0,1.55,1.5067,1.6356,1.7556,1.7995,1.9849,2.1152,2.1152,2.1215,2.1393,2.1806,2.1868,2.2041,2.2457,2.2542,2.2384,2.1904,2.2347,2.2139,2.1169,2.0134,0.0,0.0,0.0,0.0,0.0,0.0,0.0,0.0,0.0,0.0,0.0,0.0,0.0,0.0,0.0,0.0,0.0,0.0,0.0,0.0,0.0,0.0,0.0,0.0,0.0,0.0,0.0,0.0,1.1882,1.2338,0.0,1.2321,1.2834,1.323,1.3461,1.3916,1.4323,1.4585,1.5313,1.5821,1.6179,1.686,1.7268,1.7235,1.7579,1.7796,1.8022,1.8005,1.8005,1.7926,1.7519,1.7063,1.6596,1.6374,1.61,1.5732,1.5219,1.4714,1.4222,1.3824,1.3685,1.38,1.3917,1.4145,1.4452,1.4907,1.506,1.5024,1.4729,1.4532,1.4399,1.4038,1.393,1.3949,1.4096,1.4452,1.5059,1.6316,1.7129,1.78,1.8639,1.8942,1.9075,1.9075,1.8616,1.842,1.8971,1.7708,1.6581,1.6574,1.7305,1.7538,1.6395,1.7908,1.9276,1.9654,2.0586,2.1348,2.1639,2.1639,2.1702,2.1877,2.2506,2.2628,2.2187,2.275,2.2871,2.2359,2.2237,2.2002,2.1639,2.0976,1.9726,0.0,0.0,0.0,0.0,0.0,0.0,0.0,0.0,0.0,0.0,0.0,0.0,0.0,0.0,0.0,0.0,0.0,0.0,0.0,0.0,0.0,0.0,0.0,0.0,0.0,0.0,1.2154,1.2634,1.3188,1.3531,1.3459,1.395,1.43,1.4442,1.5089,1.5675,1.5953,1.6572,1.7044,1.7424,1.7986,1.8266,1.8335,1.8626,1.8849,1.8895,1.8761,1.877,1.8745,1.8264,1.7817,1.7458,1.7232,1.702,1.6666,1.6627,1.6297,1.5773,1.4882,1.4715,1.4846,1.5189,1.548,1.5806,1.6355,1.6514,1.6404,1.5735,1.5515,1.5386,1.4698,1.4689,1.4937,1.5084,1.5235,1.5698,1.692,1.7578,1.8055,1.8546,1.8875,1.9075,1.9075,1.8713,1.8516,1.8982,1.8202,1.7246,1.6539,1.7491,1.7884,1.6426,1.7564,1.8654,1.9015,1.9765,2.045,2.0731,2.1322,2.1702,2.1877,2.1727,2.1689,2.1904,2.1715,2.1761,2.2089,2.1667,2.1305,2.1134,2.0308,1.9358,1.8318,0.0,0.0,0.0,0.0,0.0,0.0,0.0,0.0,0.0,0.0,0.0,0.0,0.0,0.0,0.0,0.0,0.0,0.0,0.0,0.0,0.0,0.0,0.0,1.1187,1.2273,1.317,1.3557,1.3905,1.4237,1.48,1.4624,1.4702,1.5115,1.5843,1.6638,1.7432,1.7327,1.7734,1.8948,1.8425,1.8273,1.8736,1.8907,1.9149,1.9301,1.9525,1.963,1.9566,1.8984,1.8461,1.7951,1.7796,1.7595,1.7406,1.7922,1.8146,1.7989,1.6688,1.6447,1.6927,1.6927,1.6917,1.6908,1.6908,1.6908,1.6844,1.6459,1.6264,1.6257,1.5854,1.5725,1.5808,1.6221,1.6464,1.6749,1.7366,1.7872,1.8337,1.8482,1.8808,1.9075,1.9075,1.804,1.7491,1.8816,1.9075,1.8516,1.6767,1.6819,1.6555,1.5137,1.5335,0.0,1.6089,1.7611,1.8668,1.8668,2.0118,2.129,2.1815,1.9598,1.9239,2.1747,1.9598,1.9114,2.1141,2.0699,2.0182,1.9734,1.8157,1.7791,1.8802,0.0,0.0,0.0,0.0,0.0,0.0,0.0,0.0,0.0,0.0,0.0,0.0,0.0,0.0,0.0,0.0,0.0,0.0,0.0,0.0,0.0,0.0,1.1619,1.2654,1.2883,1.3248,1.4145,1.4825,1.5237,1.5203,1.563,1.6006,1.603,1.622,1.6645,1.7388,1.762,1.8152,1.8984,1.9231,1.9469,1.9548,1.9584,1.9672,1.9696,1.9672,1.9612,1.9557,1.9311,1.9079,1.89,1.89,1.8837,1.8719,1.8592,1.8473,1.8285,1.7768,1.7388,1.7134,1.7134,1.6874,1.6482,1.6482,1.6551,1.6664,1.6356,1.639,1.6501,1.6187,1.6219,1.6374,1.6491,1.6871,1.7319,1.7442,1.794,1.8482,1.8482,1.8808,1.9075,1.9075,1.8775,1.862,1.9003,1.9075,1.8909,1.8413,1.8433,1.8404,1.7968,1.8237,0.0,1.8569,1.9463,2.003,2.003,1.9618,1.9893,2.1244,1.9901,1.9818,2.177,2.1221,2.1101,2.1678,2.1257,2.0943,2.0756,1.9932,1.9425,0.0,0.0,0.0,0.0,0.0,0.0,0.0,0.0,0.0,0.0,0.0,0.0,0.0,0.0,0.0,0.0,0.0,0.0,0.0,0.0,0.0,0.0,1.1224,1.2144,1.3411,1.3484,1.3675,1.4451,1.505,1.5481,1.5434,1.5904,1.6257,1.6237,1.6775,1.7351,1.8017,1.8336,1.8984,1.9987,1.9981,1.9968,2.0207,2.0027,1.9863,1.9784,1.9636,1.9557,1.9469,1.9381,1.9301,1.9301,1.9301,1.9222,1.9134,1.8906,1.8737,0.0,0.0,0.0,0.0,0.0,1.6678,1.6342,1.6412,1.6473,1.6473,1.6342,1.6412,1.6473,1.6403,1.6542,1.6603,1.6682,1.7038,1.7392,1.7392,1.7862,1.8414,1.8414,1.8741,1.9075,1.9075,1.862,1.8392,1.8961,1.8609,0.0,1.8971,1.8599,1.7957,1.7191,1.7423,1.7743,1.7933,1.9084,1.9909,2.012,2.0245,2.0711,2.172,2.0387,0.0,0.0,0.0,2.1143,2.1565,2.1348,0.0,0.0,0.0,1.9672,1.9755,0.0,0.0,0.0,1.7193,1.6619,0.0,0.0,0.0,0.0,0.0,0.0,0.0,0.0,0.0,0.0,0.0,0.0,0.0,0.0,0.0,0.0,1.1834,1.2472,1.3628,1.3909,1.4186,1.455,1.4918,1.5249,1.5567,1.5742,1.59,1.6163,1.7155,1.8087,1.888,0.0,0.0,0.0,0.0,2.0071,2.048,2.0113,1.9776,1.9617,1.9571,1.9463,1.9286,1.924,1.9231,1.9231,1.9231,1.9152,1.9002,1.9002,1.8851,1.8621,1.802,1.751,1.6998,1.6696,1.6474,1.6334,1.6491,0.0,0.0,1.6272,1.6272,1.6342,1.6473,1.6533,1.6612,1.683,1.7038,1.7166,1.7166,1.7716,1.8202,1.8202,1.8664,1.9008,1.9008,1.8059,1.7626,1.8837,1.8092,1.7667,1.9052,1.8165,1.6736,1.5152,1.5266,1.5701,1.6167,1.7862,1.923,1.9668,0.0,0.0,2.2662,2.0894,2.0607,2.2559,2.1009,2.0423,2.136,2.133,2.078,1.9648,1.9254,1.9517,2.038,1.9758,2.0006,2.1066,1.8968,1.8495,0.0,0.0,0.0,0.0,0.0,0.0,0.0,0.0,0.0,0.0,0.0,0.0,0.0,0.0,0.0,1.097,1.1842,1.2555,1.3078,1.3374,1.3838,1.4559,1.5032,1.5235,1.4901,1.5285,1.5738,1.6453,1.6699,1.7536,1.9033,1.8956,1.9246,2.0108,1.9951,1.9822,1.9991,1.9835,1.979,1.979,0.0,0.0,1.9208,1.8905,1.8851,1.8851,1.8851,1.8772,1.8772,1.8772,1.8612,1.8399,1.7943,1.7716,1.7558,1.6711,1.6387,1.6335,1.6237,1.6272,1.6272,1.6202,1.6202,1.6272,1.6202,1.6272,0.0,1.6612,1.689,1.7166,1.7166,1.751,1.7842,1.7842,1.8202,1.8617,1.8617,1.867,1.8754,1.9023,1.8858,1.9065,2.0366,1.955,1.8682,1.8702,1.8785,1.9003,1.9458,2.016,2.0715,2.1155,2.0555,2.0815,2.257,2.1065,2.0762,2.2581,2.2317,2.2191,2.2375,2.2105,2.1812,2.1554,2.1534,2.1469,2.1307,2.1606,2.1734,2.1593,2.041,2.0193,0.0,0.0,0.0,0.0,0.0,0.0,0.0,0.0,0.0,0.0,0.0,0.8959,0.0,0.0,1.0484,1.1163,1.2031,1.2742,1.3027,1.3386,1.3716,1.4017,1.4358,1.4562,1.458,1.5147,1.5879,1.6576,1.7212,1.8024,1.899,1.9419,1.9696,1.9973,1.9887,1.9887,1.9722,1.9522,1.9418,1.9418,1.9219,1.9019,1.8911,1.8728,1.8626,1.8531,1.8531,1.8531,1.8531,1.8282,1.8112,1.7989,1.7542,1.7475,1.7519,1.656,1.6335,1.6375,1.6201,1.607,1.6008,1.6,1.607,1.6202,1.6202,1.6342,1.6473,1.6682,1.6899,1.7038,1.7038,1.7314,1.7588,1.7588,1.8066,1.8667,1.9287,1.9474,1.9614,2.0243,2.0023,1.9948,2.0525,2.017,1.9958,2.0605,2.0717,2.0737,2.0783,2.1072,2.1528,2.198,2.1706,2.1909,2.2797,2.225,2.2275,2.3385,2.329,2.3149,2.3149,2.2782,2.2568,2.2568,2.2375,2.2273,2.2273,2.236,2.2402,2.2392,2.1692,2.1386,0.0,0.0,0.0,0.0,0.0,0.0,0.0,0.0,0.8286,0.8546,0.8752,0.9202,0.997,1.0385,1.0808,1.1398,1.2188,1.2671,1.285,1.332,1.3499,1.3205,1.3604,1.3973,1.4347,1.5061,1.5847,1.6624,1.7697,1.8459,1.9045,1.9842,2.0192,2.0033,1.9927,1.9804,1.9567,1.9253,1.9058,1.8981,1.8914,1.8718,1.8496,1.8428,1.8314,1.8201,1.8201,1.8201,1.8201,1.7781,1.7577,1.7485,1.7033,1.7033,1.7158,1.6323,1.616,1.622,1.6059,1.5929,1.5805,1.5805,1.5938,1.6132,1.6202,1.6403,1.6542,1.6691,1.6769,1.6769,1.676,1.7047,1.7411,1.7693,1.8193,1.8927,2.0228,2.0355,2.0413,2.1403,2.1188,2.0928,2.1165,2.1246,2.1317,2.168,2.175,2.1653,2.1481,2.1755,2.2051,2.236,2.3001,2.3298,2.3001,2.3298,2.3604,2.397,2.3677,2.3446,2.3446,2.3075,2.2852,2.2852,2.2478,2.2478,2.2777,2.2553,2.2553,2.2777,2.2478,2.2262,0.9511,0.8943,0.8588,0.8187,0.7885,0.7881,0.0,0.0,0.9024,0.9177,0.9723,1.0234,1.0319,1.0815,1.1249,1.1552,1.2032,1.2388,1.2112,1.2572,1.2681,1.2187,1.3346,1.4186,1.4244,1.4327,1.509,1.6726,1.6995,1.7788,1.9447,1.9596,1.9704,1.9621,1.9613,1.9447,1.9115,1.9065,1.8883,1.8551,1.8312,1.8129,1.8079,1.768,1.7514,1.7473,1.7473,1.7473,1.7473,1.7473,1.7282,1.6975,1.6847,1.6632,1.637,1.6013,1.588,1.5863,1.5631,1.5655,1.5805,1.5805,1.5938,1.6132,1.6132,1.6132,1.6132,1.6202,1.6272,1.6342,1.6202,1.6403,1.7033,1.8487,1.8755,1.9114,2.0656,2.1252,2.1413,2.1607,2.208,2.2902,2.3916,2.4136,2.3723,2.2397,2.2193,2.2368,2.2711,2.285,2.2713,2.2402,2.2478,2.2628,2.3001,2.3075,2.3075,2.315,2.3075,2.3075,2.3075,2.2703,2.2478,2.2478,2.2101,2.1883,2.1949,2.2252,2.2252,2.1959,2.2252,2.2402,1.1433,1.0533,0.9532,0.0,0.9313,0.9252,0.881,0.889,0.9162,0.9385,0.9729,0.9989,1.0274,1.0481,1.0778,0.0,1.1569,1.1804,1.1836,1.2106,1.2191,1.1937,1.2563,1.3091,1.3296,1.3653,1.4609,1.6274,1.6167,1.6807,1.8707,1.8624,1.8548,1.8632,1.8816,1.8752,1.8213,1.8213,1.8032,1.7684,1.7534,1.736,1.7178,1.7036,1.6818,1.6501,1.6669,1.6669,1.6669,1.6581,1.6533,1.6565,1.6205,1.5913,1.5634,1.5741,1.5766,1.579,1.5408,1.5426,1.5576,1.5497,1.5647,1.5929,1.5788,1.585,1.5912,1.5912,1.6061,1.6202,1.6132,1.6272,1.6842,1.8606,1.9083,1.9913,2.2316,2.2774,2.2876,2.3595,2.3641,2.3699,2.4202,2.4308,2.4248,2.4047,2.3678,2.3105,2.2371,2.2703,2.3001,2.3075,2.2478,2.2327,2.2927,2.2777,2.2777,2.3001,2.2777,2.2628,2.2628,2.2252,2.2025,2.2025,2.1883,2.1959,2.2176,2.2327,2.2402,2.2478,2.2402,2.2402,1.1478,0.0,0.0,0.9662,0.9781,0.9791,0.8969,0.8951,0.9133,0.9344,0.939,0.9547,0.9858,0.9965,1.0105,1.068,1.0853,1.1127,1.1372,1.1546,1.1658,1.1438,1.1556,1.1804,1.2136,1.282,1.3888,1.5259,1.5337,1.598,1.7622,1.7657,1.7587,1.7728,1.7949,1.7774,1.7258,1.7168,1.6949,1.6616,1.6616,1.6496,1.6277,1.6369,1.6125,1.58,1.5967,1.5992,1.5905,1.574,1.5754,1.5878,1.5579,1.5179,1.485,1.5295,1.5397,1.5276,1.5008,1.5062,1.5141,1.5062,1.5213,1.5443,1.5426,1.5497,1.5559,1.5621,1.5771,1.5921,1.585,1.6061,1.6799,1.9083,1.9643,2.0599,2.3769,2.4225,2.4272,2.5157,2.5004,2.4767,2.4767,2.4767,2.485,2.5229,2.4636,2.3756,2.2894,2.2916,2.3001,2.3075,2.2327,2.2025,2.2628,2.2402,2.2327,2.2628,2.2402,2.2252,2.2252,2.1959,2.1807,2.1807,2.1807,2.1949,2.2252,2.2327,2.2478,2.2628,2.2478,2.2327,0.0,0.0,0.8283,0.8189,0.8004,0.804,0.8741,0.8907,0.8946,0.9144,0.911,0.9119,0.9292,0.9229,0.9339,0.9966,1.0005,1.0222,1.0661,1.077,1.0656,1.0388,1.0427,1.0513,0.0,1.1796,1.2758,1.3596,1.4502,1.5419,1.6177,1.6943,1.7326,1.7311,1.7117,1.6801,1.6477,1.6067,1.5745,1.5423,1.5423,1.5416,1.5409,1.5665,1.5651,1.5576,1.5583,1.5393,1.5165,1.5165,1.4904,1.472,1.4965,1.4683,1.4198,1.4521,1.4429,1.4145,1.4129,1.4281,1.4433,1.4433,1.4497,1.4713,1.5062,1.507,1.4935,1.5133,1.5346,1.5497,1.5275,1.563,1.6924,2.0257,2.0628,2.1126,2.4531,2.5276,2.5288,2.53,2.5886,2.6452,2.6452,2.6452,2.6164,2.5382,2.4636,2.4337,2.5087,2.3936,2.2703,2.1959,2.1807,2.1807,2.1807,2.1807,2.1807,2.1807,2.1807,2.1807,2.1807,2.1807,2.1807,2.1807,2.1807,2.1807,2.1807,2.2176,2.2176,2.1883,2.2252,2.2176,0.7824,0.0,0.727,0.7377,0.7557,0.7729,0.7962,0.8146,0.8207,0.8013,0.7663,0.7418,0.7496,0.7602,0.7892,0.8613,0.8937,0.9325,0.9851,0.9837,0.9648,0.9322,0.9387,0.0,0.0,0.0,0.0,1.3006,1.2942,1.3631,1.5615,1.5235,1.5615,1.677,1.6195,1.5791,1.5651,1.535,1.5035,1.4727,1.4901,1.4878,1.4678,1.476,1.4561,1.4142,1.4142,1.4077,1.3975,1.3975,1.4041,1.4142,1.4258,1.4033,1.3664,1.3773,1.3606,1.3404,1.3912,1.4209,1.4361,1.4209,1.4353,1.4497,1.4489,1.4418,1.4353,1.4418,1.4633,1.4768,1.4919,1.5349,1.6302,1.8832,2.0222,2.1568,2.3488,2.4735,2.5358,2.5024,2.5174,2.5485,2.5824,2.5598,2.5306,2.5029,2.4483,2.4047,2.379,2.3287,2.2927,2.2628,2.2101,2.1807,2.1807,2.1807,2.1807,2.1807,2.1807,2.1807,2.1807,2.1807,2.1807,2.1807,2.1807,2.1807,2.1807,2.1959,2.1949,2.1807,2.1959,2.1949,0.7383,0.7043,0.6644,0.6699,0.6919,0.7119,0.7161,0.7211,0.7154,0.6857,0.6366,0.6016,0.6089,0.616,0.6455,0.7297,0.7561,0.7983,0.8793,0.8631,0.8396,0.8376,0.8464,0.84,0.0,0.0,0.0,1.1544,1.1551,1.2273,1.3838,1.3651,1.4046,1.5477,1.4922,1.4631,1.4783,1.4496,1.4249,1.4062,1.4045,1.4062,1.3954,1.3844,1.3601,1.321,1.321,1.3147,1.3119,1.3119,1.3313,1.3571,1.3571,1.3376,1.3194,1.3194,1.3068,1.2973,1.3557,1.384,1.3992,1.392,1.3992,1.4072,1.4137,1.4057,1.3992,1.4209,1.4367,1.4587,1.4731,1.5245,1.6146,1.8127,2.0064,2.1811,2.3205,2.4635,2.5498,2.5159,2.4946,2.4921,2.5259,2.5,2.4703,2.4703,2.4376,2.3834,2.3178,2.3029,2.2927,2.2628,2.2101,2.1807,2.1807,2.1807,2.1807,2.1807,2.1807,2.1807,2.1807,2.1807,2.1807,2.1807,2.1807,2.1807,2.1807,2.1807,2.1807,2.1807,2.1807,2.1807,0.6642,0.6417,0.6234,0.6169,0.6156,0.613,0.6436,0.6117,0.5809,0.5848,0.5303,0.4858,0.0,0.0,0.5116,0.5977,0.5949,0.6237,0.7574,0.7234,0.7093,0.0,0.0,0.0,0.0,0.0,0.0,0.9448,0.0,1.1243,1.1267,1.2128,1.2816,1.3432,1.309,1.3195,1.363,1.336,1.3222,1.3222,1.2958,1.2985,1.3117,1.2827,1.2694,1.2643,1.2643,1.2634,1.2526,1.2526,1.2673,1.2826,1.2826,1.2826,1.2826,1.2826,1.2826,1.29,1.3046,1.3193,1.3193,1.3419,1.3492,1.3564,1.3912,1.392,1.3863,1.4232,1.4537,1.4718,1.4749,1.53,1.6308,1.7988,1.9944,2.1835,2.3451,2.4747,2.5586,2.5523,2.5159,2.4858,2.4833,2.4676,2.4599,2.4526,2.4272,2.3948,2.3395,2.3123,2.2703,2.1949,2.1807,2.1807,2.1807,2.1807,2.1807,2.1807,2.1807,2.1807,2.1807,2.1807,2.1807,2.1807,2.1807,2.1807,2.1807,2.1807,2.1807,2.1807,2.1807,2.1807,0.6235,0.6031,0.5746,0.5813,0.581,0.5589,0.5208,0.5069,0.4936,0.4671,0.4117,0.3748,0.0,0.0,0.0,0.5073,0.558,0.0,0.7049,0.709,0.0,0.7246,0.0,0.7214,0.7327,0.7375,0.0,0.0,0.9003,1.0017,1.0886,1.0947,1.1361,1.2094,1.159,1.1359,1.1483,1.125,1.1133,1.1305,1.1241,1.1025,1.0762,1.0697,1.0757,1.0889,1.0889,1.116,1.1706,1.1706,1.1855,1.2003,1.2003,1.2003,1.2003,1.2003,1.2077,1.2224,1.2452,1.2753,1.2973,1.3046,1.3046,1.3046,1.3193,1.3193,1.3169,1.3472,1.3669,1.3834,1.4317,1.4663,1.5115,1.5975,1.8599,2.0832,2.0628,2.3087,2.5108,2.4352,2.4868,2.5272,2.4895,2.5478,2.5555,2.4337,2.4091,2.4062,2.3936,2.3334,2.2927,2.2703,2.2176,2.1807,2.1807,2.1807,2.1807,2.1807,2.1807,2.1807,2.1807,2.1807,2.1807,2.1807,2.1807,2.1807,2.1807,2.1807,2.1807,2.1807,2.1807,2.1807,0.5476,0.5268,0.493,0.4763,0.469,0.4486,0.4153,0.4,0.3855,0.3655,0.3221,0.0,0.0,0.0,0.0,0.0,0.0,0.0,0.5992,0.6087,0.6127,0.0,0.6305,0.0,0.6444,0.6504,0.6686,0.0,0.797,0.8802,0.9478,0.9371,0.9681,1.0355,0.9961,0.9853,1.0,0.9883,0.9918,1.0178,0.9994,0.9824,0.9596,0.9485,0.9478,0.9569,0.0,0.9969,1.0422,1.0396,1.0501,1.0801,1.0801,1.0956,1.1335,1.1335,1.1558,1.1855,1.2003,1.215,1.2452,1.2826,1.29,1.29,1.29,1.29,1.2963,1.3188,1.3355,1.3502,1.4118,1.4448,1.4689,1.5162,1.8054,2.0262,1.8835,2.2204,2.5407,2.4855,2.5428,2.5799,2.5259,2.5605,2.5698,2.4806,2.4348,2.4264,2.4564,2.335,2.2628,2.2927,2.2252,2.1949,2.2327,2.2025,2.1807,2.1807,2.1807,2.1807,2.1807,2.1807,2.1807,2.1807,2.1807,2.1807,2.1807,2.1807,2.1807,2.1807,2.1807,2.1807,0.4658,0.4426,0.4099,0.3665,0.3495,0.3352,0.3278,0.2999,0.2807,0.2872,0.0,0.2481,0.2802,0.2739,0.2819,0.3437,0.0,0.3911,0.4698,0.4806,0.4881,0.5346,0.5196,0.5177,0.5376,0.5553,0.5744,0.5945,0.693,0.7521,0.7617,0.774,0.7966,0.8214,0.818,0.839,0.869,0.8777,0.8869,0.9052,0.8804,0.8638,0.8768,0.8594,0.8515,0.8552,0.8604,0.8755,0.9056,0.8928,0.9145,0.9448,0.9478,0.9927,1.0513,1.0547,1.0911,1.1403,1.1403,1.1484,1.1713,1.2499,1.2788,1.2753,1.2802,1.2781,1.2815,1.3113,1.3286,1.3418,1.3996,1.4339,1.4512,1.4821,1.7586,1.961,1.7621,2.1576,2.5654,2.6239,2.6519,2.649,2.5925,2.5664,2.5554,2.5619,2.4857,2.4492,2.5229,2.3338,2.2262,2.2927,2.2252,2.2101,2.2777,2.2176,2.1807,2.1807,2.1807,2.1807,2.1807,2.1807,2.1807,2.1807,2.1807,2.1807,2.1807,2.1807,2.1807,2.1807,2.1807,2.1807,0.384,0.3955,0.392,0.3841,0.3707,0.3445,0.2893,0.2682,0.0,0.0,0.228,0.236,0.2736,0.2246,0.2206,0.3439,0.0,0.0,0.0,0.0,0.4966,0.0,0.0,0.0,0.0,0.0,0.0,0.0,0.0,0.5869,0.6546,0.6569,0.6562,0.64,0.6286,0.6204,0.6334,0.6334,0.6334,0.6334,0.6558,0.6576,0.6484,0.6433,0.6696,0.7252,0.709,0.0,0.8436,0.8467,0.8613,0.8865,0.8956,0.9072,0.9099,0.9189,0.9448,0.975,0.975,1.0276,1.1073,1.1993,1.2061,1.1974,1.2378,1.2355,1.2291,1.2735,1.2898,1.2986,1.3272,1.3541,1.375,1.3787,1.5728,1.7355,1.6409,2.0009,2.4249,2.7308,2.7706,2.7381,2.6822,2.6868,2.6639,2.5749,2.5298,2.5158,2.53,2.3863,2.2852,2.3001,2.2252,2.1883,2.2035,2.1883,2.1807,2.1807,2.1807,2.1807,2.1807,2.1807,2.1807,2.1807,2.1807,2.1807,2.1807,2.1807,2.1807,2.1807,2.1807,2.1807,0.3433,0.3437,0.3377,0.3186,0.2865,0.252,0.1923,0.0,0.0,0.0,0.1281,0.1326,0.1863,0.0,0.0,0.0,0.0,0.0,0.0,0.0,0.0,0.0,0.0,0.0,0.0,0.0,0.0,0.0,0.0,0.3953,0.5401,0.5536,0.5455,0.5354,0.5335,0.5277,0.5191,0.5277,0.5366,0.5547,0.5571,0.5635,0.5638,0.5662,0.5806,0.6141,0.6022,0.0,0.7049,0.688,0.7088,0.7642,0.7569,0.7863,0.825,0.8267,0.8625,0.8998,0.8998,0.9301,0.9797,1.0341,1.11,1.1658,1.157,1.1671,1.1838,1.1973,1.2101,1.2309,1.2523,1.266,1.2643,1.2498,1.3187,1.4968,1.8733,2.0542,2.2794,2.7651,2.8541,2.8272,2.7804,2.7544,2.7145,2.6325,2.5828,2.5535,2.5158,2.4515,2.3925,2.3632,2.2531,2.1959,2.2402,2.2025,2.1807,2.1807,2.1807,2.1807,2.1807,2.1807,2.1807,2.1807,2.1807,2.1807,2.1807,2.1807,2.1807,2.1807,2.1807,2.1807,0.3045,0.2783,0.2538,0.2263,0.1816,0.1307,0.082,0.0683,0.0,0.0,0.0358,0.0367,0.0945,0.0,0.0683,0.0,0.0,0.0,0.0,0.0,0.0,0.0,0.0,0.0,0.0,0.0,0.0,0.0,0.0,0.0,0.3973,0.436,0.4491,0.4308,0.4602,0.4656,0.4482,0.4656,0.4832,0.5013,0.4927,0.4932,0.5099,0.5167,0.5252,0.5235,0.5181,0.0,0.0,0.5413,0.5631,0.6338,0.6169,0.662,0.733,0.7328,0.7696,0.8089,0.8169,0.8318,0.8493,0.8732,0.9898,1.1043,1.0651,1.0923,1.1222,1.1059,1.1117,1.1352,1.154,1.1538,1.1517,1.133,1.1215,1.3141,2.0547,2.0987,2.1759,2.7593,2.8882,2.888,2.8341,2.7802,2.7336,2.6795,2.61,2.5465,2.5004,2.4791,2.4492,2.4036,2.282,2.2252,2.2703,2.2176,2.1807,2.1807,2.1807,2.1807,2.1807,2.1807,2.1807,2.1807,2.1807,2.1807,2.1807,2.1807,2.1807,2.1807,2.1807,2.1807,0.2585,0.2078,0.1505,0.1517,0.0912,0.0283,0.0183,0.0,0.0,0.0092,0.0134,0.0275,0.0448,0.005,-0.0,0.0,0.0,0.0,0.0,0.0,0.0,0.0,0.0,0.0,0.0,0.0,0.0,0.0,0.0,0.0,0.185,0.309,0.3416,0.2694,0.3408,0.3676,0.3676,0.3676,0.3765,0.3765,0.3933,0.402,0.4024,0.4204,0.4428,0.4601,0.4566,0.0,0.0,0.4983,0.516,0.5422,0.5496,0.5609,0.5821,0.59,0.5996,0.617,0.6409,0.7019,0.7621,0.7876,0.8556,0.9337,0.9689,0.976,0.9825,0.9997,1.0062,1.0056,1.01,1.0269,1.0488,1.0792,1.0592,1.2114,1.8559,1.9771,2.1371,2.7378,2.8724,2.8633,2.8098,2.7714,2.7336,2.6795,2.5648,2.4791,2.4707,2.412,2.3599,2.3588,2.3191,2.2628,2.1959,2.1807,2.1807,2.1807,2.1807,2.1807,2.1807,2.1807,2.1807,2.1807,2.1807,2.1807,2.1807,2.1807,2.1807,2.1807,2.1807,2.1807,0.1066,0.072,0.0326,0.0233,-0.0148,-0.0552,-0.0788,0.0,-0.0703,-0.0685,-0.076,-0.0768,-0.0467,-0.0705,-0.0814,0.0,0.0,0.0,0.0,0.0,0.0,0.0,0.0,0.0,0.0,0.0,0.0,0.0,0.0,-0.0629,-0.0816,0.099,0.196,0.1671,0.2046,0.2226,0.2111,0.2225,0.2238,0.2238,0.2776,0.3044,0.3042,0.3592,0.3819,0.3896,0.3808,0.0,0.0,0.4349,0.4616,0.5093,0.5036,0.5094,0.5251,0.5272,0.5404,0.5553,0.5634,0.6018,0.6402,0.6479,0.6865,0.7492,0.8331,0.876,0.8998,0.8841,0.9064,0.9296,0.9226,0.9062,0.9029,0.9315,0.9216,1.0942,1.7429,1.8922,2.0922,2.7287,2.8578,2.8518,2.83,2.7642,2.7087,2.6869,2.5793,2.5087,2.5241,2.4933,2.4636,2.4264,2.3265,2.2478,2.2176,2.1731,2.1436,2.1436,2.1436,2.1436,2.1436,2.1436,2.1436,2.1436,2.1436,2.1436,2.1436,2.1436,2.1502,2.1655,2.1655,2.1655,0.007,-0.0375,-0.077,-0.0812,-0.1124,-0.1446,0.0,0.0,-0.1461,-0.1319,-0.1478,-0.1569,-0.1208,-0.1387,-0.1581,0.0,0.0,0.0268,0.0,0.0,0.0,0.0,0.0,0.0,0.0,0.0,0.0,0.0,-0.1865,-0.2047,-0.2601,-0.0986,0.0089,0.0438,0.0883,0.106,0.0965,0.1156,0.116,0.1153,0.1696,0.1958,0.1933,0.2511,0.2741,0.2719,0.2696,0.0,0.0,0.3392,0.3759,0.4382,0.442,0.4648,0.4851,0.481,0.488,0.5007,0.5087,0.5243,0.5401,0.5401,0.5715,0.618,0.6865,0.7553,0.8012,0.7778,0.8084,0.8313,0.8241,0.8021,0.7919,0.8098,0.8098,0.9985,1.6855,1.8364,2.0419,2.716,2.851,2.8462,2.8306,2.7536,2.6875,2.6719,2.5672,2.5004,2.5158,2.4945,2.4719,2.4552,2.3106,2.2241,2.2402,2.1655,2.1205,2.1205,2.1205,2.1205,2.1205,2.1205,2.1205,2.1205,2.1205,2.1205,2.1205,2.1205,2.1282,2.1436,2.1436,2.1512,-0.0189,-0.0806,-0.146,-0.142,-0.1867,-0.235,0.0,0.0,-0.1886,-0.1809,-0.1794,-0.1794,-0.1794,-0.2059,-0.2235,-0.2101,0.0,0.0,0.0,0.0,0.0,0.0,0.0,0.0,0.0,0.0,0.0,0.0,-0.2697,0.0,-0.2864,-0.2867,-0.233,-0.1076,-0.0088,0.0526,0.0717,0.0717,0.0621,0.0434,0.0622,0.0614,0.0504,0.0841,0.0996,0.1055,0.0,0.0,0.0,0.2195,0.2665,0.2902,0.362,0.4081,0.4396,0.4268,0.432,0.4462,0.4621,0.4854,0.5004,0.5004,0.5243,0.5559,0.5398,0.5941,0.6637,0.6865,0.6942,0.6938,0.6942,0.7099,0.7223,0.7387,0.7454,0.9524,1.6766,1.8179,2.0077,2.7091,2.851,2.8342,2.7813,2.7284,2.6743,2.619,2.4976,2.4108,2.412,2.3463,2.3316,2.4036,2.2723,2.2004,2.2402,2.1655,2.1205,2.1205,2.1205,2.1205,2.1205,2.1205,2.1205,2.1205,2.1205,2.1205,2.1205,2.1205,2.1205,2.1205,2.1205,2.1205,-0.1827,-0.2295,-0.272,-0.2755,-0.3103,-0.3391,-0.3232,0.0,-0.2954,-0.2794,-0.2679,-0.2591,-0.2546,-0.2635,-0.2747,-0.2781,-0.295,0.0,0.0,0.0,0.0,0.0,0.0,0.0,0.0,0.0,0.0,-0.4153,-0.4404,-0.4671,-0.4702,-0.4636,-0.3902,-0.2278,-0.2032,-0.1767,-0.1666,-0.1666,-0.1662,-0.1738,-0.0948,-0.0596,-0.0672,0.0083,0.0409,0.0,0.0554,0.0,0.0,0.1175,0.141,0.1568,0.1975,0.2421,0.2836,0.275,0.3279,0.3984,0.4053,0.4307,0.4616,0.4616,0.4776,0.4935,0.4935,0.5401,0.5944,0.6173,0.6321,0.6398,0.6398,0.6475,0.6514,0.6669,0.6667,0.8654,1.5936,1.7418,1.9557,2.6828,2.8259,2.8291,2.8215,2.7524,2.6875,2.6695,2.566,2.4933,2.4933,2.4719,2.442,2.412,2.3672,2.3243,2.282,2.1558,2.0809,2.0809,2.0809,2.0809,2.0809,2.0809,2.0809,2.0809,2.0809,2.0809,2.0809,2.0809,2.0886,2.0984,2.1128,2.1205,0.0,-0.334,-0.3659,-0.3652,-0.3781,0.0,0.0,0.0,-0.3491,-0.3363,-0.33,-0.3208,-0.3164,-0.3296,-0.3403,-0.3447,-0.3735,0.0,0.0,0.0,0.0,0.0,0.0,0.0,0.0,0.0,-0.5615,-0.521,-0.5457,-0.5641,-0.569,-0.5618,-0.5067,-0.4018,-0.353,-0.3102,-0.2744,-0.2661,-0.2737,-0.28,-0.2023,-0.175,-0.1802,-0.1221,-0.0889,-0.08,-0.071,-0.0627,0.0,0.0155,0.0386,0.0386,0.0927,0.1301,0.1743,0.1864,0.2484,0.3226,0.3669,0.4001,0.4155,0.4155,0.4235,0.4392,0.447,0.4935,0.5479,0.5631,0.5783,0.5938,0.5938,0.6015,0.6129,0.6278,0.6274,0.826,1.5604,1.7169,1.9301,2.668,2.7945,2.7901,2.7789,2.7112,2.655,2.6358,2.5745,2.5312,2.5312,2.5016,2.4636,2.4181,2.3599,2.3169,2.3032,2.1832,2.0934,2.0644,2.0566,2.0566,2.0566,2.0566,2.0566,2.0566,2.0566,2.0566,2.0566,2.0566,2.0654,2.0819,2.0896,2.0964,0.0,0.0,0.0,0.0,0.0,0.0,0.0,0.0,0.0,-0.3737,-0.3737,-0.3741,-0.3751,-0.4047,-0.4295,-0.42,-0.4934,0.0,0.0,0.0,0.0,0.0,0.0,0.0,0.0,-0.674,-0.6687,-0.6051,-0.5971,-0.6031,-0.6077,-0.6086,-0.6001,-0.6001,-0.4737,-0.36,-0.2859,-0.2854,-0.2905,-0.3089,-0.2902,-0.2864,-0.2906,-0.2724,-0.2556,0.0,-0.2264,-0.2111,0.0,-0.099,-0.0603,-0.0529,0.0227,0.0603,0.0831,0.132,0.1644,0.2112,0.3139,0.3532,0.3606,0.3684,0.3688,0.3692,0.3925,0.4623,0.5243,0.5243,0.5323,0.5482,0.5413,0.5559,0.5743,0.5974,0.5969,0.7939,1.5131,1.6589,1.8629,2.5914,2.7088,2.6853,2.6605,2.6318,2.5937,2.5373,2.5301,2.5289,2.5289,2.4694,2.4177,2.402,2.2734,2.2209,2.2809,2.2134,2.1385,2.0712,2.0644,2.0566,2.0566,2.0566,2.0566,2.0566,2.0566,2.0566,2.0566,2.0566,2.0566,2.0566,2.0566,2.0566,-0.5556,0.0,-0.4296,-0.4306,-0.4558,0.0,0.0,0.0,0.0,0.0,0.0,-0.5266,-0.5475,-0.5415,-0.5505,-0.6066,0.0,0.0,0.0,0.0,0.0,0.0,0.0,0.0,0.0,-0.8225,-0.8154,-0.8,-0.7696,-0.7565,-0.7606,-0.761,-0.7293,-0.6663,-0.6312,-0.5863,-0.5111,-0.5107,-0.5049,-0.5103,-0.4795,-0.4425,-0.3992,-0.3707,-0.3293,-0.2821,-0.2616,-0.2474,-0.2437,-0.1858,-0.171,-0.1666,-0.1363,-0.1272,-0.133,-0.1005,-0.031,0.0534,0.0778,0.1316,0.1982,0.2364,0.2396,0.2353,0.243,0.3682,0.4937,0.4309,0.4307,0.4321,0.3922,0.3728,0.3797,0.4041,0.3953,0.5145,0.9887,1.0745,1.2923,2.0634,2.2012,2.2896,2.5861,2.6032,2.5654,2.5536,2.55,2.5415,2.5415,2.5269,2.4728,2.3504,2.3154,2.2713,2.169,2.1165,2.1088,2.1461,2.0944,2.0566,2.0566,2.0566,2.0566,2.0566,2.0566,2.0566,2.0566,2.0566,2.0566,2.0566,2.0566,2.0566,-0.6324,-0.5856,-0.525,-0.5351,-0.5613,-0.5842,0.0,0.0,0.0,0.0,0.0,0.0,-0.6167,-0.609,0.0,0.0,-0.5849,0.0,0.0,0.0,0.0,0.0,0.0,0.0,0.0,0.0,-0.9518,-0.9518,-0.9226,-0.9074,-0.9074,-0.9003,-0.8652,-0.8098,-0.7948,-0.7173,-0.5761,-0.5632,-0.5646,-0.5643,-0.5351,-0.5064,-0.4688,-0.4548,-0.4252,-0.3925,-0.3793,-0.3651,-0.3541,-0.3017,-0.2771,-0.263,-0.2268,-0.2104,-0.2016,-0.2024,-0.1593,-0.0985,-0.0921,-0.0539,-0.0077,0.0384,0.0621,0.0784,0.094,0.1957,0.3288,0.4079,0.3997,0.3532,0.3263,0.3163,0.3153,0.2992,0.2872,0.3944,0.7905,0.8786,1.0988,1.8704,2.0033,2.1145,2.5142,2.5468,2.5295,2.5507,2.5342,2.5354,2.5824,2.5471,2.4671,2.3272,2.3005,2.2489,2.1221,2.1011,2.1088,2.1461,2.0712,2.0255,2.0255,2.0255,2.0255,2.0255,2.0255,2.0255,2.0255,2.0255,2.0255,2.0255,2.0255,2.0255,-0.664,-0.6532,-0.6211,-0.6465,-0.6687,-0.6748,0.0,0.0,0.0,0.0,0.0,0.0,0.0,0.0,0.0,0.0,0.0,0.0,0.0,0.0,0.0,0.0,0.0,0.0,-1.0634,-1.0825,-1.0781,-1.0672,-1.0444,-1.0313,-1.0284,-1.0027,-0.986,-0.9618,-0.9223,-0.8116,-0.6239,-0.5901,-0.5767,-0.5767,-0.5567,-0.5437,-0.5365,-0.5275,-0.5183,-0.4993,0.0,0.0,-0.4609,-0.4138,-0.3774,-0.3441,-0.2947,-0.26,-0.2334,-0.2471,-0.2454,-0.2197,-0.1961,-0.1838,-0.1797,-0.1479,-0.1171,-0.0785,-0.0392,0.0078,0.094,0.3374,0.345,0.2821,0.2753,0.2749,0.2743,0.2281,0.2276,0.3299,0.6788,0.7541,0.9775,1.7397,1.8647,1.9876,2.4294,2.4842,2.4882,2.53,2.5163,2.5218,2.5989,2.5522,2.4585,2.3214,2.2677,2.2132,2.1451,2.1231,2.1165,2.1308,2.0547,2.002,1.9942,1.9863,1.9863,1.9863,1.9863,1.9979,2.0036,1.9891,1.9979,2.0036,1.9891,1.9863,-0.7008,-0.6311,-0.5593,-0.6508,-0.6781,-0.6849,0.0,0.0,0.0,0.0,0.0,0.0,0.0,0.0,0.0,0.0,0.0,0.0,0.0,0.0,0.0,0.0,0.0,-1.2858,-1.2468,-1.2427,-1.2136,-1.1411,-1.1032,-1.0719,-1.0538,-1.0272,-1.0084,-1.0174,-0.9848,-0.94,-0.8922,-0.8056,-0.7619,-0.7619,-0.738,-0.7015,-0.6508,-0.6154,-0.5689,-0.5151,0.0,-0.4768,-0.4585,-0.4535,-0.445,-0.4388,-0.4154,-0.4038,-0.3986,-0.3497,-0.309,-0.2642,-0.1996,-0.1865,-0.2051,-0.1933,-0.2052,-0.2123,-0.1729,-0.1335,-0.0864,-0.0471,0.0784,0.1733,0.1126,0.0957,0.1026,0.0966,0.1275,0.1649,0.2282,0.2442,0.4714,1.2305,1.3769,1.6021,2.3161,2.4319,2.4434,2.4918,2.5321,2.5527,2.5289,2.5882,2.5408,2.328,2.2772,2.2576,2.2724,2.1385,2.0924,2.169,2.1231,2.0712,1.9942,1.9863,1.9863,1.9863,1.9863,2.0121,2.0472,2.0112,2.0121,2.0472,2.0112,1.9863,-0.7388,-0.7243,-0.6973,-0.7702,-0.6962,-0.6047,0.0,0.0,0.0,0.0,0.0,0.0,0.0,0.0,0.0,0.0,0.0,0.0,-1.0235,-1.0862,-1.1791,0.0,0.0,-1.3565,-1.3469,-1.3475,-1.3255,-1.29,-1.2602,-1.239,-1.2275,-1.2011,-1.1716,-1.1356,-1.102,-1.0549,-1.0073,-0.9403,-0.894,-0.8727,-0.82,-0.7933,-0.7757,-0.7017,-0.6635,-0.66,0.0,-0.6052,-0.5982,-0.5569,-0.5343,-0.5237,-0.4763,-0.4571,-0.4496,-0.4101,-0.3739,-0.3487,-0.3174,-0.3043,-0.3115,-0.3193,-0.3169,-0.316,-0.3124,-0.2643,-0.1924,-0.1385,-0.0388,0.0393,0.0,-0.0079,-0.0,0.008,0.0238,0.0393,0.055,0.0707,0.3051,1.0608,1.3286,1.6246,2.2041,2.3361,2.3702,2.4051,2.4382,2.4636,2.4789,2.4592,2.3942,2.2621,2.1964,2.1454,2.1165,2.0837,2.0769,2.1068,2.0537,1.9923,1.939,1.939,1.939,1.924,1.924,1.9412,1.9756,1.9703,1.9774,1.9906,1.9873,1.9882,-0.7851,-0.7861,-0.7835,-0.8477,0.0,0.0,0.0,0.0,0.0,0.0,0.0,0.0,0.0,0.0,0.0,0.0,-1.0764,-1.1928,-1.0211,-1.1956,-1.3447,-1.3752,-1.3682,-1.3757,-1.4187,-1.4162,-1.4005,-1.3794,-1.3586,-1.3525,-1.3575,-1.3429,-1.3083,-1.2546,-1.2255,-1.1772,-1.1108,-1.0767,-1.018,-0.9484,-0.8837,-0.8652,-0.8887,-0.8048,-0.7764,-0.7924,-0.7509,-0.7315,-0.7153,-0.6499,-0.6256,-0.6112,-0.5528,-0.513,-0.4896,-0.4711,-0.4404,-0.4211,-0.4239,-0.4115,-0.3939,-0.4161,-0.4068,-0.3969,-0.4124,-0.3633,-0.2897,-0.2132,-0.1622,-0.1332,-0.1247,-0.0938,-0.0707,-0.0628,-0.0628,-0.0628,-0.0471,-0.0235,0.1797,0.844,1.2317,1.5823,1.9829,2.1805,2.2896,2.3081,2.3413,2.3756,2.3977,2.3444,2.2824,2.2097,2.1439,2.0722,1.9913,2.045,2.076,2.0615,1.9844,1.9222,1.8922,1.8922,1.8851,1.87,1.87,1.8816,1.9066,1.9264,1.9336,1.9297,1.9697,1.9843,-0.8376,-0.7319,-0.6494,-0.783,-0.915,0.0,0.0,0.0,0.0,0.0,0.0,0.0,0.0,0.0,0.0,0.0,-1.2696,-1.3756,-1.4309,0.0,-1.5553,-1.5888,-1.5579,-1.5205,-1.4887,-1.4522,-1.3902,-1.3064,-1.2981,-1.3072,-1.331,-1.3084,-1.3142,-1.36,-1.3355,-1.3042,-1.2826,-1.2441,-1.148,-0.9919,-0.9779,-0.9722,-0.967,-0.932,-0.8888,-0.8398,-0.8033,-0.7609,-0.7143,-0.6898,-0.6907,-0.7069,-0.683,-0.6396,-0.5848,-0.5655,-0.5098,-0.4402,-0.4418,-0.4275,-0.4068,-0.4073,-0.4211,-0.4373,-0.438,-0.4219,-0.3979,-0.3902,-0.3748,-0.3501,-0.3052,-0.2082,-0.1254,-0.1254,-0.1411,-0.1568,-0.1568,-0.1644,-0.0545,0.3629,0.8016,1.2031,1.5315,1.9402,2.215,2.2005,2.2901,2.3273,2.2441,2.3412,2.3717,2.2474,2.1868,2.1352,2.0799,2.076,2.076,2.076,1.9982,1.9301,1.878,1.87,1.87,1.87,1.87,1.8869,1.9306,1.8896,1.8985,1.9306,1.9488,1.9579,-0.8265,-0.758,-0.7265,-0.894,0.0,0.0,0.0,0.0,0.0,0.0,0.0,0.0,0.0,0.0,0.0,-1.2147,-1.3152,-1.3862,-1.4072,-1.4317,-1.4497,-1.46,-1.4468,-1.4412,-1.4506,-1.4374,-1.427,-1.4192,-1.4201,-1.4274,-1.435,-1.4282,-1.4042,-1.3655,-1.3811,-1.3562,-1.2924,-1.2789,-1.2535,-1.2128,-1.0934,-1.0513,-1.073,-0.985,-0.9503,-0.9664,-0.8919,-0.8578,-0.8597,-0.786,-0.7708,-0.7957,-0.7346,-0.6958,-0.674,-0.6539,-0.6199,-0.5865,-0.5926,-0.5758,-0.5547,-0.5801,-0.5864,-0.5749,-0.5758,-0.541,-0.4966,-0.4738,-0.4586,-0.4287,-0.3473,-0.2957,-0.2585,-0.2427,-0.2506,-0.2585,-0.2585,-0.282,-0.1873,0.2326,0.7467,1.1815,1.367,1.7786,2.0752,2.0803,2.1312,2.1676,2.1797,2.1892,2.1759,2.1095,2.0771,2.0625,2.0867,2.045,2.0216,2.0216,1.9835,1.945,1.9073,1.9073,1.8843,1.8282,1.8282,1.8432,1.8742,1.8848,1.9053,1.9259,1.9591,1.9707,-0.8537,-0.8293,-0.8445,0.0,0.0,0.0,0.0,0.0,0.0,0.0,0.0,0.0,0.0,0.0,0.0,0.0,-1.3498,-1.3975,-1.4077,-1.399,-1.3999,-1.4097,-1.398,-1.4009,-1.4291,-1.4375,-1.4547,-1.4907,-1.5054,-1.5192,-1.5215,-1.5225,-1.485,-1.3987,-1.4246,-1.4023,-1.3367,-1.3235,-1.331,-1.3492,-1.2044,-1.1503,-1.1781,-1.08,-1.0471,-1.0665,-0.9771,-0.9494,-0.9615,-0.8646,-0.8485,-0.8788,-0.8261,-0.7999,-0.7932,-0.7736,-0.7446,-0.71,-0.7168,-0.6908,-0.6588,-0.6769,-0.6757,-0.6719,-0.6681,-0.6331,-0.5806,-0.5623,-0.556,-0.5354,-0.4593,-0.4146,-0.3756,-0.3522,-0.3522,-0.3522,-0.3444,-0.3839,-0.3285,-0.0389,0.4701,0.9023,1.0785,1.4833,1.8179,1.933,1.9989,2.0442,2.0684,2.0633,2.0457,2.0117,2.0304,2.0537,2.0547,2.0382,2.0138,1.9894,1.9747,1.952,1.9222,1.9222,1.8834,1.804,1.804,1.8112,1.8273,1.8551,1.8763,1.8836,1.9437,1.9683,-0.9337,-0.95,-0.9785,0.0,0.0,0.0,0.0,0.0,0.0,0.0,0.0,0.0,0.0,0.0,0.0,-1.3385,-1.3787,-1.4297,-1.4842,-1.4661,-1.4609,-1.4851,-1.4512,-1.4304,-1.4304,-1.4542,-1.474,-1.4701,-1.5228,-1.5595,-1.5737,-1.5704,-1.543,-1.4831,-1.4785,-1.4673,-1.427,-1.391,-1.3681,-1.3618,-1.2994,-1.2738,-1.281,-1.2333,-1.1835,-1.1267,-1.0564,-1.0152,-0.9971,-0.9244,-0.9162,-0.9512,-0.9709,-0.9709,-0.9454,-0.9332,-0.8748,-0.7962,-0.7772,-0.7387,-0.6915,-0.6664,-0.6777,-0.6916,-0.6916,-0.6775,-0.666,-0.6816,-0.6861,-0.6861,-0.6637,-0.5699,-0.4686,-0.446,-0.4384,-0.4382,-0.4146,-0.4621,-0.5018,-0.5018,-0.1399,0.2728,0.5978,1.0206,1.4302,1.751,1.8929,1.9534,1.9056,1.9882,2.0448,1.9942,2.1011,2.1252,1.9982,2.0459,2.0624,1.9972,1.9904,1.9599,1.9002,1.9002,1.8683,1.804,1.804,1.804,1.804,1.804,1.804,1.8057,1.9054,1.9486,-0.9522,-0.9232,0.0,0.0,0.0,0.0,0.0,0.0,0.0,0.0,0.0,0.0,0.0,0.0,0.0,-1.3037,-1.3799,-1.435,-1.4382,-1.4478,-1.4516,-1.4612,-1.4493,-1.4536,-1.4757,-1.5378,-1.5857,-1.6022,-1.6598,-1.6993,-1.7027,-1.7038,-1.6515,-1.5384,-1.5689,-1.5339,-1.4304,-1.4413,-1.4572,-1.4719,-1.4175,-1.3598,-1.2991,-1.2609,-1.2489,-1.2419,-1.1673,-1.1221,-1.0998,-1.0334,-0.9879,-0.9674,-0.9876,-0.9831,-0.9709,-0.9646,-0.9326,-0.8899,-0.9008,-0.8756,-0.8417,-0.8498,-0.8583,-0.8597,-0.7863,-0.7737,-0.7677,-0.6938,-0.6697,-0.6697,-0.6625,-0.6321,-0.5964,-0.5755,-0.5547,-0.5395,-0.5165,-0.5165,-0.5168,-0.5015,-0.1695,0.2157,0.551,0.9513,1.3412,1.6996,1.7804,1.816,1.8442,1.9065,1.9323,1.9018,1.9492,1.9825,1.9904,1.9668,1.9913,2.0799,1.9835,1.9353,1.9599,1.9231,1.8922,1.8683,1.8282,1.804,1.804,1.804,1.8168,1.8425,1.8731,1.8843,-1.0026,0.0,0.0,0.0,0.0,0.0,0.0,0.0,0.0,0.0,0.0,0.0,-1.3922,-1.3402,0.0,-1.3878,-1.4439,-1.4731,-1.4731,-1.472,-1.4868,-1.5164,-1.5051,-1.5118,-1.5781,-1.6367,-1.6846,-1.7237,-1.7794,-1.8081,-1.7961,-1.7961,-1.7436,-1.6273,-1.631,-1.5946,-1.5067,-1.4911,-1.4987,-1.5337,-1.4867,-1.4474,-1.4129,-1.3505,-1.3283,-1.3364,-1.2613,-1.2043,-1.1589,-1.1189,-1.0749,-1.0456,-1.0649,-1.0739,-1.0724,-1.0598,-1.0281,-0.9919,-0.9953,-0.9622,-0.9254,-0.9299,-0.9347,-0.92,-0.8558,-0.8437,-0.8384,-0.7698,-0.7471,-0.7471,-0.7398,-0.7325,-0.7171,-0.6503,-0.6247,-0.6096,-0.5864,-0.5705,-0.5613,-0.5334,-0.3375,-0.0612,0.3242,0.5829,0.9091,1.4314,1.6285,1.7383,1.8014,1.8647,1.8957,1.878,1.9107,1.9432,1.9502,1.9432,1.9599,2.0323,1.9844,1.952,1.9511,1.9213,1.8745,1.8112,1.8023,1.7942,1.7797,1.7797,1.7989,1.8374,1.8519,1.8588,-1.0635,0.0,0.0,0.0,0.0,0.0,0.0,0.0,0.0,0.0,0.0,0.0,-1.5062,-1.521,-1.53,-1.5389,-1.54,-1.5457,-1.5546,-1.5367,-1.5509,-1.6255,-1.5887,-1.5994,-1.7038,-1.7376,-1.7726,-1.8258,-1.879,-1.8975,-1.8632,-1.8632,-1.8225,-1.7335,-1.6848,-1.6496,-1.6289,-1.5444,-1.5217,-1.5642,-1.53,-1.5383,-1.5756,-1.4729,-1.4142,-1.4016,-1.333,-1.2638,-1.1921,-1.1935,-1.1835,-1.1716,-1.1874,-1.2025,-1.2182,-1.1934,-1.1421,-1.0836,-1.071,-1.0245,-0.9706,-0.9538,-0.9379,-0.9321,-0.9114,-0.9002,-0.8926,-0.8837,-0.8819,-0.8749,-0.8544,-0.8473,-0.8151,-0.7048,-0.6758,-0.6696,-0.6391,-0.6395,-0.6273,-0.5897,-0.5894,-0.4589,-0.0147,0.0593,0.3042,1.0623,1.4503,1.6812,1.7456,1.8247,1.8798,1.8718,1.9265,1.9423,1.8877,1.9265,1.9423,1.8957,1.9608,1.9618,1.8798,1.8877,1.8247,1.6812,1.7529,1.7691,1.731,1.731,1.7554,1.7959,1.83,1.8537,0.0,-1.1467,0.0,0.0,0.0,0.0,0.0,0.0,0.0,0.0,0.0,-1.5175,-1.522,-1.5187,-1.5198,-1.5311,-1.5724,-1.6044,-1.6107,-1.6262,-1.6411,-1.6567,-1.6523,-1.6666,-1.7268,-1.8088,-1.8678,-1.8796,-1.9598,-1.9952,-1.954,-1.954,-1.9138,-1.8268,-1.8097,-1.7671,-1.6898,-1.6535,-1.658,-1.6956,-1.6392,-1.6332,-1.6682,-1.5659,-1.489,-1.4288,-1.3771,-1.3208,-1.2683,-1.302,-1.3128,-1.3038,-1.2973,-1.289,-1.2773,-1.2359,-1.1926,-1.1608,-1.1545,-1.1276,-1.0946,-1.0884,-1.0934,-1.085,-1.0049,-0.9932,-0.9926,-0.9037,-0.8717,-0.857,-0.8507,-0.8371,-0.8236,-0.8151,-0.8121,-0.8053,-0.7596,-0.7698,-0.7639,-0.6719,-0.654,-0.5277,-0.1385,-0.0289,0.249,0.9942,1.3696,1.5839,1.6409,1.6878,1.6944,1.6229,1.6862,1.7342,1.718,1.7342,1.7585,1.8158,1.7755,1.7423,1.718,1.7827,1.8006,1.7456,1.7131,1.6976,1.682,1.682,1.7066,1.7554,1.7638,1.7834,0.0,0.0,0.0,0.0,0.0,0.0,0.0,0.0,0.0,0.0,-1.6175,-1.5712,-1.5932,-1.5844,-1.5856,-1.6139,-1.6423,-1.662,-1.6637,-1.6735,-1.6948,-1.7173,-1.6969,-1.7165,-1.8106,-1.8435,-1.8878,-1.9621,-2.0118,-2.0407,-2.0484,-2.0346,-2.0029,-1.9497,-1.9145,-1.8722,-1.8216,-1.7654,-1.764,-1.8068,-1.7439,-1.7238,-1.729,-1.6329,-1.5654,-1.5259,-1.4735,-1.4261,-1.3839,-1.3716,-1.3636,-1.3615,-1.3521,-1.3476,-1.345,-1.3216,-1.2964,-1.265,-1.2466,-1.2158,-1.1849,-1.1553,-1.1417,-1.129,-1.071,-1.0621,-1.0639,-0.9968,-0.9664,-0.9462,-0.9396,-0.9199,-0.9136,-0.9253,-0.8936,-0.8486,-0.8231,-0.8323,-0.8262,-0.7486,-0.7371,-0.6726,-0.4399,-0.2304,0.1073,0.6832,1.0475,1.3323,1.553,1.6312,1.6535,1.6064,1.646,1.6698,1.6698,1.7098,1.735,1.735,1.7755,1.7594,1.669,1.7107,1.7115,1.6648,1.664,1.6648,1.6409,1.6409,1.6656,1.7066,1.7066,1.731,0.0,0.0,0.0,0.0,0.0,0.0,0.0,0.0,0.0,0.0,-1.6778,-1.6281,-1.6667,-1.6637,-1.668,-1.7115,-1.7115,-1.7086,-1.7073,-1.7128,-1.7255,-1.7691,-1.7372,-1.7604,-1.8874,-1.8675,-1.9007,-2.0359,-2.0487,-2.0745,-2.1197,-2.1042,-2.0845,-2.0759,-2.0103,-1.9723,-1.9626,-1.8821,-1.8629,-1.9033,-1.8517,-1.8137,-1.7865,-1.7078,-1.657,-1.6353,-1.5816,-1.5434,-1.5107,-1.4525,-1.4184,-1.4098,-1.3983,-1.401,-1.413,-1.407,-1.3881,-1.3692,-1.3321,-1.2948,-1.2634,-1.2104,-1.1802,-1.1545,-1.1365,-1.1205,-1.1051,-1.0919,-1.071,-1.0494,-1.0421,-1.0244,-1.011,-1.0208,-0.9553,-0.8757,-0.8694,-0.8714,-0.8718,-0.8283,-0.8211,-0.8054,-0.7367,-0.4217,-0.0424,0.3558,0.7157,1.0823,1.4878,1.6064,1.646,1.646,1.646,1.646,1.646,1.7115,1.7269,1.6542,1.7844,1.8006,1.6542,1.646,1.6139,1.5431,1.6147,1.6312,1.6004,1.6004,1.617,1.6574,1.6574,1.682,0.0,0.0,0.0,0.0,0.0,0.0,0.0,0.0,0.0,0.0,-1.731,-1.6909,-1.6951,-1.6837,-1.6837,-1.6993,-1.7199,-1.735,-1.7447,-1.7543,-1.7665,-1.7868,-1.7855,-1.8181,-1.8933,-1.9253,-1.9754,-2.0484,-2.0882,-2.119,-2.1342,-2.1321,-2.1321,-2.1272,-2.1191,-2.097,-2.0641,-2.0013,-1.9833,-2.0016,-1.9608,-1.9113,-1.8643,-1.8536,-1.7776,-1.6581,-1.6457,-1.6312,-1.6089,-1.5908,-1.5793,-1.5736,-1.5041,-1.4787,-1.4715,-1.4181,-1.401,-1.395,-1.3881,-1.3692,-1.3502,-1.345,-1.3078,-1.252,-1.2212,-1.1654,-1.1081,-1.1044,-1.0739,-1.0411,-1.0669,-1.0618,-1.0504,-1.0544,-1.0328,-0.989,-0.9386,-0.9689,-0.9829,-0.9029,-0.8634,-0.8299,-0.7717,-0.4622,-0.0776,0.3403,0.6992,1.0732,1.4878,1.5506,1.559,1.559,1.559,1.559,1.559,1.5673,1.5665,1.559,1.5748,1.5831,1.559,1.559,1.5506,1.5431,1.5506,1.559,1.5514,1.5514,1.5763,1.617,1.617,1.6409,0.0,0.0,0.0,0.0,0.0,0.0,0.0,0.0,0.0,-1.7842,-1.7962,-1.786,-1.7459,-1.7406,-1.7447,-1.7475,-1.7652,-1.7733,-1.7801,-1.7841,-1.7868,-1.7882,-1.8029,-1.8311,-1.8855,-1.9487,-2.0234,-2.1026,-2.1528,-2.1958,-2.2331,-2.2128,-2.2035,-2.2035,-2.1894,-2.1704,-2.1513,-2.1301,-2.1077,-2.0871,-2.0372,-1.985,-1.9239,-1.9186,-1.8483,-1.729,-1.7256,-1.7032,-1.6684,-1.657,-1.6467,-1.6343,-1.5894,-1.5652,-1.5526,-1.5196,-1.5079,-1.502,-1.4775,-1.4588,-1.446,-1.4094,-1.3734,-1.3382,-1.2872,-1.2419,-1.1886,-1.1426,-1.1137,-1.099,-1.0838,-1.0854,-1.0897,-1.0766,-1.0618,-1.0494,-1.0155,-1.0079,-1.0048,-0.9658,-0.935,-0.9145,-0.8947,-0.7419,-0.4044,0.2419,0.4758,0.8138,1.4386,1.5257,1.5257,1.5257,1.5257,1.5257,1.5431,1.5824,1.5906,1.5423,1.5824,1.5906,1.5431,1.5431,1.5431,1.5431,1.5431,1.5431,1.5431,1.5431,1.5514,1.568,1.568,1.5922,0.0,0.0,0.0,0.0,0.0,0.0,0.0,0.0,-1.7674,0.0,-1.8479,-1.8818,-1.8097,-1.8072,-1.814,-1.814,-1.8289,-1.8367,-1.8175,-1.8391,-1.8486,-1.8307,-1.8411,-1.8644,-1.9011,-1.9783,-2.0637,-2.1475,-2.2114,-2.2668,-2.3216,-2.292,-2.2785,-2.2785,-2.2589,-2.2452,-2.236,-2.2189,-2.1874,-2.152,-2.097,-2.0395,-1.9712,-1.9623,-1.8958,-1.7949,-1.7904,-1.7634,-1.7234,-1.7088,-1.692,-1.6684,-1.6534,-1.6363,-1.6181,-1.6019,-1.5914,-1.5856,-1.5478,-1.5362,-1.5274,-1.4634,-1.4295,-1.3979,-1.3363,-1.2845,-1.2402,-1.1752,-1.1535,-1.1519,-1.1255,-1.1301,-1.1316,-1.1224,-1.1052,-1.087,-1.0561,-1.0301,-1.0047,-0.9983,-0.9926,-0.9862,-0.9862,-0.9664,-0.7047,0.0143,0.2272,0.5582,1.2606,1.4428,1.509,1.4999,1.4999,1.509,1.5173,1.5809,1.5974,1.534,1.5899,1.6057,1.5431,1.5431,1.5431,1.5431,1.5431,1.5431,1.5431,1.5431,1.5431,1.5431,1.5431,1.5597,0.0,0.0,0.0,0.0,0.0,0.0,0.0,0.0,0.0,0.0,-1.8832,-1.9469,-1.8845,-1.8808,-1.885,-1.885,-1.9238,-1.9296,-1.8662,-1.9425,-1.9894,-1.9369,-1.9369,-1.9493,-1.9654,-2.0399,-2.1076,-2.165,-2.2359,-2.3005,-2.3565,-2.3551,-2.3551,-2.3551,-2.3508,-2.3377,-2.3038,-2.2356,-2.1949,-2.1746,-2.1361,-2.074,-1.9982,-1.9982,-1.9274,-1.8028,-1.8374,-1.829,-1.7843,-1.77,-1.7412,-1.6955,-1.6684,-1.6534,-1.6374,-1.6181,-1.6009,-1.5914,-1.5856,-1.5856,-1.5786,-1.5299,-1.4749,-1.4148,-1.3589,-1.2753,-1.2042,-1.1964,-1.1751,-1.1643,-1.2184,-1.2003,-1.1742,-1.2158,-1.1747,-1.1115,-1.0428,-1.0301,-1.0238,-1.0047,-0.9983,-0.9989,-0.9989,-0.9983,-0.8463,-0.3922,0.0143,0.4288,0.8562,1.2619,1.4999,1.4741,1.4734,1.4734,1.4734,1.4817,1.4908,1.509,1.5173,1.5257,1.5431,1.5431,1.5431,1.5431,1.5431,1.5431,1.5431,1.5431,1.5431,1.5431,1.5431,1.5431,0.0,0.0,0.0,0.0,0.0,0.0,0.0,-1.588,-1.6316,-1.7787,-1.87,-1.9316,-1.9795,-1.9666,-1.9508,-1.9594,-1.995,-2.0144,-2.0093,-2.0146,-2.0152,-2.0055,-1.9819,-1.9675,-1.9767,-2.0977,-2.1812,-2.1963,-2.2955,-2.364,-2.3824,-2.3782,-2.3782,-2.3839,-2.3839,-2.3797,-2.3668,-2.3127,-2.2709,-2.248,-2.1983,-2.1459,-2.0919,-2.0726,-2.0105,-1.9236,-1.9623,-1.9031,-1.7921,-1.8151,-1.8018,-1.7567,-1.7368,-1.7088,-1.674,-1.6637,-1.6467,-1.6353,-1.6353,-1.612,-1.5741,-1.5577,-1.5029,-1.4375,-1.389,-1.3294,-1.2739,-1.2216,-1.227,-1.2475,-1.2273,-1.2529,-1.2798,-1.2753,-1.2351,-1.1864,-1.149,-1.0989,-1.0555,-1.0434,-1.0308,-1.018,-1.018,-1.011,-0.7727,-0.1044,0.1212,0.4617,1.1261,1.3492,1.4441,1.4461,1.4482,1.449,1.4461,1.4622,1.4657,1.4625,1.4892,1.509,1.4908,1.5257,1.5347,1.5173,1.534,1.5431,1.5431,1.5431,1.5431,1.5431,1.5431,1.5431,0.0,0.0,0.0,0.0,0.0,0.0,0.0,0.0,-1.575,-1.7731,-1.859,-1.9169,-1.9894,-2.0004,-2.0071,-2.0201,-2.0613,-2.0787,-2.0462,-2.0504,-2.0586,-2.0685,-2.0421,-2.0349,-2.0597,-2.1812,-2.2562,-2.2493,-2.3509,0.0,-2.4109,-2.4009,-2.4009,-2.4109,-2.4109,-2.4109,-2.4109,-2.3668,-2.3348,-2.3054,-2.2267,-2.1676,-2.1348,-2.0874,-2.0254,-1.9567,-1.993,-1.9266,-1.7965,-1.8634,-1.8507,-1.7982,-1.7895,-1.7623,-1.7335,-1.7134,-1.6813,-1.6563,-1.6451,-1.614,-1.5737,-1.5371,-1.4952,-1.455,-1.3892,-1.3621,-1.3387,-1.2795,-1.3065,-1.3432,-1.3076,-1.3366,-1.3664,-1.3193,-1.2842,-1.2544,-1.2104,-1.149,-1.0933,-1.0681,-1.0555,-1.0428,-1.0428,-1.0301,-0.8366,-0.3003,0.007,0.381,0.9272,1.224,1.3913,1.4137,1.4164,1.409,1.4062,1.4317,1.4483,1.4365,1.4629,1.4824,1.4734,1.4992,1.5173,1.509,1.5257,1.534,1.5431,1.5431,1.5431,1.5431,1.5431,1.5431,0.0,0.0,0.0,0.0,0.0,0.0,-1.3277,0.0,-1.68,-1.7752,-1.8562,-1.9114,-1.9114,-1.9796,-2.0486,-2.0668,-2.1259,-2.1162,-1.9686,-2.0509,-2.1322,-2.1322,-2.127,-2.1516,-2.2194,-2.2871,-2.3271,-2.3302,-2.3933,-2.4302,-2.4302,-2.4302,-2.4302,-2.4302,-2.4302,-2.4302,-2.4302,-2.3967,-2.3696,-2.3406,-2.2207,-2.1538,-2.1316,-2.0434,-1.9637,-1.8946,-1.926,-1.8858,-1.8097,-1.9031,-1.8922,-1.8139,-1.8165,-1.8147,-1.805,-1.7678,-1.7104,-1.6471,-1.6224,-1.6094,-1.5796,-1.4706,-1.4512,-1.4583,-1.3685,-1.3628,-1.3882,-1.373,-1.4049,-1.4516,-1.4743,-1.4648,-1.435,-1.3571,-1.3329,-1.3086,-1.2228,-1.1677,-1.124,-1.0933,-1.0807,-1.0807,-1.0624,-1.0624,-1.0491,-1.0168,-0.34,0.1792,0.2066,0.877,1.3446,1.3512,1.3546,1.3546,1.3621,1.3901,1.4146,1.4371,1.4384,1.4482,1.465,1.465,1.4824,1.5082,1.509,1.5173,1.5431,1.5431,1.5431,1.5431,1.5431,1.5431,-1.1502,0.0,0.0,0.0,0.0,0.0,0.0,0.0,0.0,-1.6355,-1.7837,-1.9016,-1.9132,-1.9846,-2.0479,-2.0661,-2.1124,-2.1421,-2.1248,-2.1159,-2.1197,-2.1285,-2.089,-2.0844,-2.1486,-2.2178,-2.2778,0.0,-2.3933,-2.4302,-2.4302,-2.4302,-2.4302,-2.4302,-2.4302,-2.4302,-2.4302,-2.4151,-2.394,-2.3681,-2.3243,-2.2805,-2.2286,-2.1524,-2.0696,-1.9835,-1.974,-1.9256,-1.864,-1.9265,-1.9472,-1.9329,-1.9218,-1.8804,-1.8224,-1.8116,-1.7483,-1.6686,-1.6983,-1.6483,-1.5656,-1.5348,-1.487,-1.4336,-1.3748,-1.3736,-1.3882,-1.3882,-1.4445,-1.5084,-1.5375,-1.5235,-1.497,-1.4725,-1.424,-1.3761,-1.3519,-1.2956,-1.2343,-1.1677,-1.1428,-1.1303,-1.124,-1.087,-0.9627,-0.6746,-0.2095,0.1975,0.4464,0.9047,1.2186,1.2388,1.2419,1.2578,1.3013,1.3467,1.3674,1.3541,1.4083,1.4321,1.425,1.4573,1.4734,1.4824,1.4999,1.5173,1.5431,1.5431,1.5431,1.5431,1.5431,1.5431,0.0,0.0,0.0,0.0,0.0,0.0,-1.3596,-1.4487,-1.4795,0.0,-1.5901,-1.7342,-1.6805,-1.805,-1.9257,-1.9566,-2.0434,-2.1039,-2.1144,-2.0977,-2.0967,-2.1296,-2.0987,-2.1126,-2.2024,-2.2486,-2.2994,-2.3671,-2.4087,-2.4302,-2.4302,-2.404,-2.401,-2.4302,-2.4302,-2.4302,-2.4302,-2.4276,-2.4151,-2.3967,-2.3368,-2.2833,-2.2468,-2.1498,-2.0627,-1.9838,-1.9668,-1.9527,-1.94,-1.9619,-1.976,-1.99,-1.9825,-1.9331,-1.8685,-1.8301,-1.7537,-1.6658,-1.6643,-1.6328,-1.576,-1.5246,-1.5042,-1.4761,-1.401,-1.399,-1.4245,-1.4328,-1.5032,-1.5716,-1.5381,-1.5452,-1.5507,-1.5215,-1.4828,-1.4538,-1.424,-1.3992,-1.3502,-1.2405,-1.1919,-1.174,-1.1802,-1.1178,-0.9952,-0.7837,-0.4061,-0.0754,0.1291,0.4776,0.7663,0.9251,0.9374,1.002,1.164,1.2454,1.2943,1.2891,1.3499,1.3933,1.3895,1.4144,1.4303,1.4379,1.4761,1.5082,1.5431,1.5431,1.5431,1.5431,1.5431,1.5431,0.0,0.0,0.0,0.0,0.0,0.0,-1.2896,-1.4237,-1.4818,0.0,-1.373,-1.5214,-1.3685,-1.5595,-1.7517,-1.788,-1.9293,-2.0273,-2.0189,-2.0357,-2.0712,-2.1248,-2.131,-2.1786,-2.2987,-2.311,-2.3388,-2.4066,-2.4189,-2.4266,-2.4343,-2.3773,-2.3686,-2.4287,-2.4302,-2.4302,-2.4302,-2.4302,-2.4276,-2.4208,-2.3053,-2.2461,-2.2348,-2.1069,-2.0161,-1.9556,-1.9307,-1.9559,-2.0074,-1.9927,-1.9948,-2.017,-2.0165,-1.9862,-1.9399,-1.8425,-1.7494,-1.6604,-1.5864,-1.5867,-1.5959,-1.4887,-1.5077,-1.5491,-1.4382,-1.435,-1.4739,-1.5039,-1.567,-1.6115,-1.518,-1.541,-1.5822,-1.5199,-1.5192,-1.5177,-1.4697,-1.4784,-1.4606,-1.3252,-1.2589,-1.2228,-1.2359,-1.1553,-1.0996,-1.1178,-0.7579,-0.4758,-0.4594,-0.1439,0.2035,0.5294,0.5628,0.6862,1.0004,1.1219,1.1876,1.2186,1.2673,1.308,1.3248,1.3343,1.3601,1.3872,1.4414,1.4908,1.5347,1.5431,1.5431,1.5431,1.5431,1.5431,0.0,0.0,0.0,0.0,0.0,0.0,-1.344,-1.4749,-1.5545,0.0,-1.4479,-1.5802,-1.4818,-1.5771,-1.6776,-1.6932,-1.8229,-1.9529,-2.0454,-2.0543,-2.054,-2.0665,-2.0696,-2.1023,-2.1936,-2.2014,-2.2332,-2.3042,-2.3552,-2.4037,-2.4517,-2.4358,-2.4277,-2.4302,-2.4302,-2.4302,-2.4302,-2.4302,-2.4302,-2.4276,-2.4039,-2.3755,-2.3428,-2.1887,-2.1012,-2.0551,-1.9242,-1.893,-1.9433,-1.9934,-2.0511,-2.1116,-2.1028,-2.0673,-2.0105,-1.9008,-1.808,-1.7242,-1.6607,-1.6132,-1.5762,-1.5511,-1.5337,-1.5127,-1.4512,-1.4494,-1.4853,-1.5542,-1.58,-1.5784,-1.5597,-1.5293,-1.5103,-1.5259,-1.5048,-1.4934,-1.5168,-1.5137,-1.4843,-1.441,-1.3803,-1.3199,-1.2773,-1.2104,-1.1428,-1.0989,-0.7579,-0.5203,-0.5621,-0.2396,0.1123,0.4169,0.4483,0.5966,0.969,1.0412,1.0645,1.0695,1.1078,1.1267,1.1318,1.1974,1.2569,1.3041,1.4331,1.509,1.5173,1.5347,1.5431,1.5431,1.5431,1.5431,0.0,0.0,0.0,-1.3898,0.0,0.0,0.0,-1.3829,-1.4389,-1.1333,-1.2678,-1.4049,-1.2863,-1.4182,-1.5537,-1.5726,-1.6953,-1.8283,-1.9313,-2.0162,-2.0679,-2.061,-2.0662,-2.0996,-2.1724,-2.1768,-2.2051,-2.2744,-2.2791,-2.3211,-2.4186,-2.3881,-2.3983,-2.4549,-2.4564,-2.4523,-2.4467,-2.44,-2.44,-2.44,-2.4177,-2.38,-2.3311,-2.1947,-2.1083,-2.0571,-1.9445,-1.9184,-1.9581,-1.9892,-2.0342,-2.0799,-2.082,-2.0718,-2.033,-1.8891,-1.8141,-1.7676,-1.6859,-1.6584,-1.6476,-1.6196,-1.6169,-1.6087,-1.5193,-1.486,-1.4814,-1.4908,-1.5206,-1.5352,-1.478,-1.4769,-1.4882,-1.4872,-1.478,-1.4845,-1.5236,-1.5117,-1.5003,-1.4982,-1.4666,-1.4181,-1.345,-1.2712,-1.2042,-1.1428,-0.9585,-0.8308,-0.8322,-0.6613,-0.426,-0.1181,0.0424,0.2749,0.6152,0.8362,0.9586,0.9693,1.0094,1.0377,1.057,1.0976,1.1579,1.25,1.3662,1.4406,1.4853,1.5184,1.5431,1.5431,1.5431,1.5431,0.0,0.0,0.0,0.0,0.0,-1.3444,0.0,0.0,0.0,-0.9886,-1.1036,0.0,0.0,0.0,0.0,0.0,0.0,0.0,0.0,-1.9038,0.0,-2.0622,-2.0321,-2.056,-2.1692,-2.1786,-2.2054,-2.2699,-2.2242,-2.248,-2.3676,-2.3217,-2.3427,-2.4571,-2.4618,-2.4585,-2.463,-2.4564,-2.4539,-2.4498,-2.4135,-2.3679,-2.3188,-2.2113,-2.1357,-2.0822,-1.9952,-1.971,-1.9944,-2.0019,-2.0158,-2.0227,-2.0402,-2.053,-2.0466,-1.8767,-1.8287,-1.8346,-1.7272,-1.7181,-1.7388,-1.691,-1.6949,-1.702,-1.5962,-1.5499,-1.5142,-1.4677,-1.4917,-1.5153,-1.4195,-1.4416,-1.4769,-1.4397,-1.4491,-1.4777,-1.5073,-1.5069,-1.5005,-1.5071,-1.5157,-1.4911,-1.401,-1.3329,-1.2712,-1.1988,-1.1677,-1.1303,-1.0751,-1.0681,-0.9478,-0.634,-0.3311,-0.0284,0.272,0.6389,0.8539,0.8783,0.9163,0.9525,0.9782,1.0027,1.0717,1.1976,1.2665,1.3426,1.4124,1.4622,1.5082,1.5431,1.5431,1.5431,0.0,0.0,0.0,0.0,-1.4566,0.0,0.0,0.0,-1.3309,-1.24,0.0,0.0,0.0,0.0,0.0,0.0,0.0,0.0,-1.4728,-1.6417,-1.8375,-2.0212,-1.8571,-1.8375,-2.1178,-2.1609,-2.192,-2.2425,-2.2476,-2.2701,-2.3175,-2.3072,-2.328,-2.398,-2.3903,-2.4124,-2.4766,-2.4645,-2.4589,-2.4589,-2.4549,-2.4436,-2.4277,-2.327,-2.2758,-2.2516,-2.0965,-2.0182,-2.0013,-2.0505,-2.0584,-2.0357,-2.0255,-2.0512,-2.0726,-1.9421,-1.9357,-1.9685,-1.8537,-1.8056,-1.7917,-1.7545,-1.6994,-1.6468,-1.6266,-1.6405,-1.6541,-1.6486,-1.6223,-1.585,-1.5319,-1.4807,-1.4376,-1.4314,-1.4245,-1.4297,-1.4756,-1.4904,-1.4972,-1.4778,-1.4994,-1.4911,-1.413,-1.37,-1.3147,-1.2359,-1.1872,-1.1435,-1.1059,-1.087,-0.9536,-0.634,-0.3311,-0.0284,0.272,0.5868,0.7642,0.7667,0.7723,0.7795,0.7816,0.8922,0.9928,1.0772,1.1489,1.2151,1.2565,1.2838,1.3789,1.5431,1.5431,1.5431,0.0,0.0,0.0,0.0,0.0,0.0,-1.1709,0.0,-1.2712,0.0,0.0,0.0,0.0,0.0,0.0,0.0,-1.3509,0.0,0.0,0.0,-1.4866,0.0,0.0,0.0,-1.7971,-2.0397,-2.1178,-1.9287,-2.0975,-2.213,-2.2232,-2.2504,-2.2914,-2.3531,-2.3888,-2.4217,-2.4442,-2.4682,-2.4831,-2.491,-2.4766,-2.4686,-2.4645,-2.3849,-2.3381,-2.3176,-2.2079,-2.127,-2.0772,-2.0994,-2.0809,-2.04,-2.0343,-2.0829,-2.1403,-2.012,-2.0012,-2.0454,-1.952,-1.9206,-1.9114,-1.8821,-1.8097,-1.7342,-1.7291,-1.694,-1.6535,-1.6535,-1.6328,-1.5973,-1.5497,-1.5001,-1.4563,-1.4354,-1.4047,-1.3936,-1.4338,-1.4428,-1.4553,-1.4909,-1.5044,-1.4907,-1.4501,-1.4121,-1.3631,-1.272,-1.229,-1.205,-1.1849,-1.1358,-1.0548,-0.9092,-0.6144,-0.3044,0.0143,0.3174,0.5632,0.7395,0.7484,0.7533,0.7638,0.8282,0.8987,0.9801,1.0478,1.115,1.1696,1.2348,1.3099,1.3873,1.4146,1.4489,-1.4437,0.0,0.0,0.0,0.0,0.0,0.0,0.0,0.0,0.0,0.0,0.0,0.0,0.0,0.0,0.0,0.0,-1.3447,0.0,-1.2667,0.0,0.0,0.0,0.0,0.0,-1.902,-1.9894,-1.7416,-1.9665,-2.1196,-2.1231,-2.1809,-2.2474,-2.3345,-2.3822,-2.4253,-2.4548,-2.4907,-2.5123,-2.5146,-2.4966,-2.4886,-2.4871,-2.4343,-2.3951,-2.3683,-2.2948,-2.2237,-2.1539,-2.1524,-2.1222,-2.074,-2.0909,-2.1412,-2.1951,-2.0768,-2.0664,-2.1144,-2.0617,-2.0319,-2.0096,-1.9775,-1.9022,-1.8243,-1.8088,-1.7468,-1.6871,-1.6831,-1.6688,-1.6458,-1.594,-1.5448,-1.4992,-1.4742,-1.4286,-1.3948,-1.4181,-1.4246,-1.4389,-1.4821,-1.4849,-1.477,-1.4424,-1.4227,-1.3821,-1.2964,-1.2605,-1.2421,-1.2282,-1.1794,-1.1365,-1.1122,-0.8262,-0.5033,-0.1747,0.13,0.4266,0.731,0.733,0.739,0.7679,0.7898,0.8258,0.8828,0.9469,1.0115,1.0716,1.1395,1.1997,1.2425,1.313,1.3646,0.0,0.0,0.0,-1.5536,0.0,0.0,0.0,0.0,-1.2671,0.0,0.0,0.0,0.0,0.0,0.0,0.0,0.0,0.0,0.0,0.0,0.0,0.0,0.0,0.0,0.0,-1.7702,-1.8037,-1.8228,-1.9187,-1.9948,-2.0319,-2.0985,-2.2005,-2.3464,-2.3409,-2.3999,-2.5329,-2.5317,-2.5294,-2.5294,-2.5146,-2.5107,-2.5091,-2.4871,-2.4574,-2.4241,-2.3427,-2.2716,-2.2188,-2.2088,-2.1888,-2.1611,-2.2119,-2.2342,-2.23,-2.1377,-2.1439,-2.1955,-2.1766,-2.1321,-2.067,-1.9991,-1.9436,-1.8857,-1.8278,-1.805,-1.8038,-1.8038,-1.7875,-1.7555,-1.7062,-1.6351,-1.5771,-1.5669,-1.5132,-1.4613,-1.4513,-1.4656,-1.4634,-1.4226,-1.4326,-1.4336,-1.3636,-1.3794,-1.3769,-1.3103,-1.2613,-1.2243,-1.212,-1.1934,-1.1615,-1.1122,-0.8322,-0.5164,-0.1817,0.13,0.4266,0.731,0.6945,0.6872,0.7492,0.7825,0.8012,0.8012,0.8463,0.8911,0.9336,0.9432,1.0207,1.1757,1.2875,1.3398,0.0,0.0,-0.3487,-1.2934,0.0,0.0,0.0,0.0,0.0,0.0,0.0,0.0,0.0,0.0,0.0,0.0,0.0,0.0,0.0,0.0,0.0,0.0,0.0,0.0,0.0,0.0,-1.3193,-1.2268,-1.3,-1.4382,-1.6472,-1.7318,-1.9276,-2.2685,-2.3219,-2.3864,-2.4818,-2.5191,-2.5394,-2.5502,-2.5355,-2.5301,-2.5301,-2.5224,-2.5068,-2.4799,-2.4524,-2.412,-2.3655,-2.3378,-2.3036,-2.2673,-2.2622,-2.254,-2.2342,-2.1945,-2.1955,-2.2137,-2.1996,-2.1602,-2.1118,-2.061,-2.0003,-1.9303,-1.8827,-1.841,-1.8084,-1.8084,-1.803,-1.7886,-1.7553,-1.7031,-1.6547,-1.6348,-1.5821,-1.5236,-1.4775,-1.4639,-1.4439,-1.3922,-1.3834,-1.3736,-1.348,-1.3455,-1.3397,-1.3235,-1.2797,-1.2613,-1.285,-1.2421,-1.1996,-1.1615,-1.0415,-0.77,-0.2729,0.1996,0.5158,0.616,0.6479,0.6761,0.7017,0.7643,0.8069,0.8195,0.8442,0.8656,0.8828,0.9174,0.9777,1.0554,1.1241,1.1929,-1.6228,-0.9154,0.0,-1.3881,-0.8582,0.0,-1.3563,0.0,-1.5366,0.0,0.0,0.0,0.0,0.0,0.0,0.0,0.0,0.0,0.0,-1.3717,0.0,0.0,0.0,0.0,0.0,0.0,-1.1458,-0.9737,-1.133,-1.3332,-1.5514,-1.703,-1.9275,-2.2388,-2.3153,-2.3932,-2.4871,-2.5282,-2.5524,-2.5616,-2.547,-2.5432,-2.547,-2.5394,-2.5224,-2.5052,-2.5013,-2.4759,-2.4338,-2.4147,-2.3837,-2.3537,-2.3187,-2.2934,-2.2723,-2.2402,-2.2231,-2.2184,-2.2091,-2.1841,-2.1506,-2.0908,-2.0295,-1.9695,-1.9093,-1.8625,-1.8302,-1.8302,-1.8247,-1.815,-1.7986,-1.7557,-1.7111,-1.7078,-1.6389,-1.5665,-1.5271,-1.4729,-1.4202,-1.3631,-1.3429,-1.3399,-1.3423,-1.3309,-1.3191,-1.3158,-1.2858,-1.2744,-1.3033,-1.2674,-1.2305,-1.1934,-1.1677,-0.9116,-0.3223,0.2171,0.5392,0.5622,0.5783,0.6058,0.638,0.7174,0.7702,0.794,0.8319,0.8532,0.8658,0.9117,0.9519,1.0038,1.0376,1.1068]}]]